<?xml version='1.0' encoding='UTF-8'?><gpx version="1.1" creator="JPX - https://github.com/jenetics/jpx" xmlns="http://www.topografix.com/GPX/1/1"><trk><trkseg><trkpt lat="44.3258338" lon="10.97014"><ele>674.0</ele><time>2026-04-25T08:49:48.949Z</time></trkpt><trkpt lat="44.3258939" lon="10.9700883"><ele>674.0</ele><time>2026-04-25T08:49:49.95Z</time></trkpt><trkpt lat="44.3259605" lon="10.9700313"><ele>674.0</ele><time>2026-04-25T08:49:50.95Z</time></trkpt><trkpt lat="44.3260284" lon="10.9699666"><ele>674.0</ele><time>2026-04-25T08:49:51.95Z</time></trkpt><trkpt lat="44.3260848" lon="10.9699148"><ele>674.0</ele><time>2026-04-25T08:49:52.949Z</time></trkpt><trkpt lat="44.3261393" lon="10.9698699"><ele>674.0</ele><time>2026-04-25T08:49:53.95Z</time></trkpt><trkpt lat="44.3262255" lon="10.969779"><ele>674.4000000000001</ele><time>2026-04-25T08:49:55.949Z</time></trkpt><trkpt lat="44.3262765" lon="10.969634"><ele>674.8</ele><time>2026-04-25T08:49:57.95Z</time></trkpt><trkpt lat="44.3263076" lon="10.9695311"><ele>675.2</ele><time>2026-04-25T08:49:58.95Z</time></trkpt><trkpt lat="44.3263363" lon="10.9694126"><ele>675.5999999999999</ele><time>2026-04-25T08:49:59.95Z</time></trkpt><trkpt lat="44.3263608" lon="10.9692995"><ele>676.0</ele><time>2026-04-25T08:50:00.95Z</time></trkpt><trkpt lat="44.3263811" lon="10.9691845"><ele>676.0</ele><time>2026-04-25T08:50:01.949Z</time></trkpt><trkpt lat="44.3263937" lon="10.969066"><ele>676.0</ele><time>2026-04-25T08:50:02.95Z</time></trkpt><trkpt lat="44.3264052" lon="10.9689507"><ele>676.0</ele><time>2026-04-25T08:50:03.948Z</time></trkpt><trkpt lat="44.3264067" lon="10.9688277"><ele>676.0</ele><time>2026-04-25T08:50:04.95Z</time></trkpt><trkpt lat="44.3263991" lon="10.9687012"><ele>676.0</ele><time>2026-04-25T08:50:05.949Z</time></trkpt><trkpt lat="44.3263825" lon="10.9685773"><ele>676.0</ele><time>2026-04-25T08:50:06.95Z</time></trkpt><trkpt lat="44.3263705" lon="10.9684462"><ele>675.4</ele><time>2026-04-25T08:50:07.949Z</time></trkpt><trkpt lat="44.3263426" lon="10.9683071"><ele>674.8</ele><time>2026-04-25T08:50:08.95Z</time></trkpt><trkpt lat="44.3262971" lon="10.9681817"><ele>674.1999999999999</ele><time>2026-04-25T08:50:09.949Z</time></trkpt><trkpt lat="44.3262547" lon="10.9680643"><ele>673.5999999999999</ele><time>2026-04-25T08:50:10.949Z</time></trkpt><trkpt lat="44.3262188" lon="10.9679463"><ele>673.0</ele><time>2026-04-25T08:50:11.949Z</time></trkpt><trkpt lat="44.3261854" lon="10.9678268"><ele>673.0</ele><time>2026-04-25T08:50:12.95Z</time></trkpt><trkpt lat="44.3261601" lon="10.9676997"><ele>673.0</ele><time>2026-04-25T08:50:13.948Z</time></trkpt><trkpt lat="44.3261482" lon="10.9675663"><ele>673.0</ele><time>2026-04-25T08:50:14.949Z</time></trkpt><trkpt lat="44.3261493" lon="10.9674184"><ele>673.0</ele><time>2026-04-25T08:50:15.95Z</time></trkpt><trkpt lat="44.3261639" lon="10.9672703"><ele>673.0</ele><time>2026-04-25T08:50:16.95Z</time></trkpt><trkpt lat="44.326187" lon="10.9671249"><ele>672.5999999999999</ele><time>2026-04-25T08:50:17.949Z</time></trkpt><trkpt lat="44.3262177" lon="10.9669811"><ele>672.1999999999999</ele><time>2026-04-25T08:50:18.949Z</time></trkpt><trkpt lat="44.3262555" lon="10.9668465"><ele>671.8</ele><time>2026-04-25T08:50:19.948Z</time></trkpt><trkpt lat="44.3262989" lon="10.9667163"><ele>671.4</ele><time>2026-04-25T08:50:20.95Z</time></trkpt><trkpt lat="44.3263447" lon="10.9665902"><ele>671.0</ele><time>2026-04-25T08:50:21.949Z</time></trkpt><trkpt lat="44.3264031" lon="10.9664644"><ele>672.8</ele><time>2026-04-25T08:50:22.95Z</time></trkpt><trkpt lat="44.3264719" lon="10.9663524"><ele>674.5999999999999</ele><time>2026-04-25T08:50:23.949Z</time></trkpt><trkpt lat="44.3265524" lon="10.9662591"><ele>676.4</ele><time>2026-04-25T08:50:24.95Z</time></trkpt><trkpt lat="44.3266364" lon="10.9661779"><ele>678.2</ele><time>2026-04-25T08:50:25.949Z</time></trkpt><trkpt lat="44.3267179" lon="10.9661026"><ele>680.0</ele><time>2026-04-25T08:50:26.95Z</time></trkpt><trkpt lat="44.3267964" lon="10.9660368"><ele>680.0</ele><time>2026-04-25T08:50:27.95Z</time></trkpt><trkpt lat="44.3268706" lon="10.9659747"><ele>680.0</ele><time>2026-04-25T08:50:28.95Z</time></trkpt><trkpt lat="44.3269375" lon="10.9659125"><ele>680.0</ele><time>2026-04-25T08:50:29.95Z</time></trkpt><trkpt lat="44.326987" lon="10.9658315"><ele>680.0</ele><time>2026-04-25T08:50:30.949Z</time></trkpt><trkpt lat="44.3270187" lon="10.9657307"><ele>680.0</ele><time>2026-04-25T08:50:31.948Z</time></trkpt><trkpt lat="44.3270243" lon="10.9656177"><ele>680.0</ele><time>2026-04-25T08:50:32.949Z</time></trkpt><trkpt lat="44.327009" lon="10.9654884"><ele>677.2</ele><time>2026-04-25T08:50:33.949Z</time></trkpt><trkpt lat="44.327005" lon="10.9653439"><ele>674.4</ele><time>2026-04-25T08:50:34.949Z</time></trkpt><trkpt lat="44.3270144" lon="10.9652168"><ele>671.5999999999999</ele><time>2026-04-25T08:50:35.949Z</time></trkpt><trkpt lat="44.3270629" lon="10.9650039"><ele>668.8</ele><time>2026-04-25T08:50:37.949Z</time></trkpt><trkpt lat="44.3270924" lon="10.9649003"><ele>666.0</ele><time>2026-04-25T08:50:38.95Z</time></trkpt><trkpt lat="44.3271214" lon="10.9648025"><ele>664.0</ele><time>2026-04-25T08:50:39.948Z</time></trkpt><trkpt lat="44.3271579" lon="10.9647033"><ele>662.0</ele><time>2026-04-25T08:50:40.95Z</time></trkpt><trkpt lat="44.3272019" lon="10.9646014"><ele>660.0</ele><time>2026-04-25T08:50:41.949Z</time></trkpt><trkpt lat="44.3272543" lon="10.9644894"><ele>658.0</ele><time>2026-04-25T08:50:42.95Z</time></trkpt><trkpt lat="44.3272936" lon="10.964361"><ele>656.0</ele><time>2026-04-25T08:50:43.95Z</time></trkpt><trkpt lat="44.3273221" lon="10.9642157"><ele>660.0</ele><time>2026-04-25T08:50:44.95Z</time></trkpt><trkpt lat="44.327352" lon="10.964072"><ele>664.0</ele><time>2026-04-25T08:50:45.949Z</time></trkpt><trkpt lat="44.3273833" lon="10.9639354"><ele>668.0</ele><time>2026-04-25T08:50:46.949Z</time></trkpt><trkpt lat="44.3274126" lon="10.963805"><ele>672.0</ele><time>2026-04-25T08:50:47.949Z</time></trkpt><trkpt lat="44.3274381" lon="10.9636881"><ele>676.0</ele><time>2026-04-25T08:50:48.95Z</time></trkpt><trkpt lat="44.3274687" lon="10.9635572"><ele>676.0</ele><time>2026-04-25T08:50:49.95Z</time></trkpt><trkpt lat="44.3274949" lon="10.963448"><ele>676.0</ele><time>2026-04-25T08:50:50.95Z</time></trkpt><trkpt lat="44.3275239" lon="10.9633233"><ele>676.0</ele><time>2026-04-25T08:50:51.95Z</time></trkpt><trkpt lat="44.3275636" lon="10.9632071"><ele>676.0</ele><time>2026-04-25T08:50:52.95Z</time></trkpt><trkpt lat="44.3276035" lon="10.9630934"><ele>676.0</ele><time>2026-04-25T08:50:53.949Z</time></trkpt><trkpt lat="44.327648" lon="10.9629796"><ele>675.1999999999999</ele><time>2026-04-25T08:50:54.95Z</time></trkpt><trkpt lat="44.3276857" lon="10.9628664"><ele>674.4</ele><time>2026-04-25T08:50:55.95Z</time></trkpt><trkpt lat="44.3277165" lon="10.9627391"><ele>673.6</ele><time>2026-04-25T08:50:56.95Z</time></trkpt><trkpt lat="44.3277382" lon="10.9626017"><ele>672.8</ele><time>2026-04-25T08:50:57.95Z</time></trkpt><trkpt lat="44.3277623" lon="10.9624636"><ele>672.0</ele><time>2026-04-25T08:50:58.95Z</time></trkpt><trkpt lat="44.3277805" lon="10.9623278"><ele>671.6666666666666</ele><time>2026-04-25T08:50:59.948Z</time></trkpt><trkpt lat="44.3277965" lon="10.962205"><ele>671.3333333333334</ele><time>2026-04-25T08:51:00.949Z</time></trkpt><trkpt lat="44.3278168" lon="10.9620903"><ele>671.0</ele><time>2026-04-25T08:51:01.95Z</time></trkpt><trkpt lat="44.3278442" lon="10.9619871"><ele>670.6666666666667</ele><time>2026-04-25T08:51:02.949Z</time></trkpt><trkpt lat="44.3278744" lon="10.961884"><ele>670.3333333333334</ele><time>2026-04-25T08:51:03.949Z</time></trkpt><trkpt lat="44.3279097" lon="10.9617864"><ele>670.0</ele><time>2026-04-25T08:51:04.95Z</time></trkpt><trkpt lat="44.3279505" lon="10.9617066"><ele>670.1666666666667</ele><time>2026-04-25T08:51:05.949Z</time></trkpt><trkpt lat="44.3279851" lon="10.9616255"><ele>670.3333333333334</ele><time>2026-04-25T08:51:06.949Z</time></trkpt><trkpt lat="44.3280016" lon="10.9615304"><ele>670.5</ele><time>2026-04-25T08:51:07.95Z</time></trkpt><trkpt lat="44.3279953" lon="10.9614156"><ele>670.6666666666666</ele><time>2026-04-25T08:51:08.949Z</time></trkpt><trkpt lat="44.3279727" lon="10.961294"><ele>670.8333333333333</ele><time>2026-04-25T08:51:09.95Z</time></trkpt><trkpt lat="44.3279471" lon="10.9611788"><ele>671.0</ele><time>2026-04-25T08:51:10.949Z</time></trkpt><trkpt lat="44.3279126" lon="10.9610646"><ele>671.0</ele><time>2026-04-25T08:51:11.949Z</time></trkpt><trkpt lat="44.3278808" lon="10.9609519"><ele>671.0</ele><time>2026-04-25T08:51:12.95Z</time></trkpt><trkpt lat="44.3278483" lon="10.9608429"><ele>671.0</ele><time>2026-04-25T08:51:13.95Z</time></trkpt><trkpt lat="44.3278134" lon="10.960734"><ele>671.0</ele><time>2026-04-25T08:51:14.949Z</time></trkpt><trkpt lat="44.3277898" lon="10.9606237"><ele>671.0</ele><time>2026-04-25T08:51:15.95Z</time></trkpt><trkpt lat="44.3277684" lon="10.9605125"><ele>671.0</ele><time>2026-04-25T08:51:16.95Z</time></trkpt><trkpt lat="44.3277535" lon="10.9603894"><ele>670.8</ele><time>2026-04-25T08:51:17.95Z</time></trkpt><trkpt lat="44.3277364" lon="10.9602655"><ele>670.5999999999999</ele><time>2026-04-25T08:51:18.95Z</time></trkpt><trkpt lat="44.3277211" lon="10.9601303"><ele>670.4</ele><time>2026-04-25T08:51:19.95Z</time></trkpt><trkpt lat="44.3277063" lon="10.9599778"><ele>670.2</ele><time>2026-04-25T08:51:20.95Z</time></trkpt><trkpt lat="44.3276998" lon="10.9598215"><ele>670.0</ele><time>2026-04-25T08:51:21.949Z</time></trkpt><trkpt lat="44.3276918" lon="10.959663"><ele>668.5</ele><time>2026-04-25T08:51:22.949Z</time></trkpt><trkpt lat="44.3276815" lon="10.9595047"><ele>667.0</ele><time>2026-04-25T08:51:23.949Z</time></trkpt><trkpt lat="44.327666" lon="10.95934"><ele>665.5</ele><time>2026-04-25T08:51:24.95Z</time></trkpt><trkpt lat="44.3276474" lon="10.9591783"><ele>664.0</ele><time>2026-04-25T08:51:25.949Z</time></trkpt><trkpt lat="44.3276223" lon="10.9590195"><ele>662.6</ele><time>2026-04-25T08:51:26.948Z</time></trkpt><trkpt lat="44.3275911" lon="10.9588692"><ele>661.2</ele><time>2026-04-25T08:51:27.948Z</time></trkpt><trkpt lat="44.3275539" lon="10.9587269"><ele>659.8000000000001</ele><time>2026-04-25T08:51:28.949Z</time></trkpt><trkpt lat="44.3275157" lon="10.9585979"><ele>658.4000000000001</ele><time>2026-04-25T08:51:29.949Z</time></trkpt><trkpt lat="44.3274784" lon="10.9584673"><ele>657.0</ele><time>2026-04-25T08:51:30.949Z</time></trkpt><trkpt lat="44.3274487" lon="10.958342"><ele>656.0</ele><time>2026-04-25T08:51:31.948Z</time></trkpt><trkpt lat="44.3274191" lon="10.9582219"><ele>655.0</ele><time>2026-04-25T08:51:32.948Z</time></trkpt><trkpt lat="44.3273918" lon="10.958102"><ele>654.0</ele><time>2026-04-25T08:51:33.948Z</time></trkpt><trkpt lat="44.327359" lon="10.9579859"><ele>653.0</ele><time>2026-04-25T08:51:34.947Z</time></trkpt><trkpt lat="44.3273208" lon="10.9578649"><ele>652.0</ele><time>2026-04-25T08:51:35.948Z</time></trkpt><trkpt lat="44.3272798" lon="10.9577459"><ele>652.0</ele><time>2026-04-25T08:51:36.948Z</time></trkpt><trkpt lat="44.3272321" lon="10.9576141"><ele>652.0</ele><time>2026-04-25T08:51:37.949Z</time></trkpt><trkpt lat="44.3271983" lon="10.957482"><ele>652.0</ele><time>2026-04-25T08:51:38.949Z</time></trkpt><trkpt lat="44.3271729" lon="10.9573478"><ele>652.0</ele><time>2026-04-25T08:51:39.948Z</time></trkpt><trkpt lat="44.3271519" lon="10.9572173"><ele>652.0</ele><time>2026-04-25T08:51:40.949Z</time></trkpt><trkpt lat="44.3271357" lon="10.9570929"><ele>650.0</ele><time>2026-04-25T08:51:41.949Z</time></trkpt><trkpt lat="44.327117" lon="10.9569747"><ele>648.0</ele><time>2026-04-25T08:51:42.948Z</time></trkpt><trkpt lat="44.3270949" lon="10.9568583"><ele>646.0</ele><time>2026-04-25T08:51:43.948Z</time></trkpt><trkpt lat="44.3270603" lon="10.9567261"><ele>644.0</ele><time>2026-04-25T08:51:44.949Z</time></trkpt><trkpt lat="44.3270295" lon="10.9565867"><ele>642.0</ele><time>2026-04-25T08:51:45.949Z</time></trkpt><trkpt lat="44.3270062" lon="10.9564567"><ele>642.0</ele><time>2026-04-25T08:51:46.948Z</time></trkpt><trkpt lat="44.3270031" lon="10.9563242"><ele>642.0</ele><time>2026-04-25T08:51:47.949Z</time></trkpt><trkpt lat="44.327011" lon="10.9561967"><ele>642.0</ele><time>2026-04-25T08:51:48.949Z</time></trkpt><trkpt lat="44.3270018" lon="10.9560939"><ele>642.0</ele><time>2026-04-25T08:51:49.949Z</time></trkpt><trkpt lat="44.326977" lon="10.955987"><ele>642.0</ele><time>2026-04-25T08:51:50.948Z</time></trkpt><trkpt lat="44.3269415" lon="10.9558711"><ele>642.0</ele><time>2026-04-25T08:51:51.949Z</time></trkpt><trkpt lat="44.3269034" lon="10.9557567"><ele>642.8333333333334</ele><time>2026-04-25T08:51:52.948Z</time></trkpt><trkpt lat="44.3268669" lon="10.9556505"><ele>643.6666666666666</ele><time>2026-04-25T08:51:53.949Z</time></trkpt><trkpt lat="44.3268316" lon="10.9555423"><ele>644.5</ele><time>2026-04-25T08:51:54.949Z</time></trkpt><trkpt lat="44.3267945" lon="10.9554326"><ele>645.3333333333333</ele><time>2026-04-25T08:51:55.948Z</time></trkpt><trkpt lat="44.3267539" lon="10.9553315"><ele>646.1666666666666</ele><time>2026-04-25T08:51:56.949Z</time></trkpt><trkpt lat="44.3267184" lon="10.9552375"><ele>647.0</ele><time>2026-04-25T08:51:57.949Z</time></trkpt><trkpt lat="44.3266828" lon="10.9551481"><ele>647.4000000000001</ele><time>2026-04-25T08:51:58.949Z</time></trkpt><trkpt lat="44.3266534" lon="10.9550227"><ele>647.8000000000001</ele><time>2026-04-25T08:52:00.948Z</time></trkpt><trkpt lat="44.3266799" lon="10.9548637"><ele>648.2</ele><time>2026-04-25T08:52:03.949Z</time></trkpt><trkpt lat="44.3267051" lon="10.9547286"><ele>648.6</ele><time>2026-04-25T08:52:05.949Z</time></trkpt><trkpt lat="44.3267389" lon="10.9545892"><ele>649.0</ele><time>2026-04-25T08:52:07.948Z</time></trkpt><trkpt lat="44.326793" lon="10.9544677"><ele>649.0</ele><time>2026-04-25T08:52:09.949Z</time></trkpt><trkpt lat="44.3268155" lon="10.9543246"><ele>649.0</ele><time>2026-04-25T08:52:11.948Z</time></trkpt><trkpt lat="44.3268097" lon="10.9541838"><ele>649.0</ele><time>2026-04-25T08:52:13.948Z</time></trkpt><trkpt lat="44.3268029" lon="10.9540766"><ele>649.0</ele><time>2026-04-25T08:52:15.949Z</time></trkpt><trkpt lat="44.3267894" lon="10.9539669"><ele>649.0</ele><time>2026-04-25T08:52:17.949Z</time></trkpt><trkpt lat="44.326767" lon="10.9538335"><ele>646.8000000000001</ele><time>2026-04-25T08:52:19.949Z</time></trkpt><trkpt lat="44.3267283" lon="10.953718"><ele>644.6</ele><time>2026-04-25T08:52:21.948Z</time></trkpt><trkpt lat="44.3266926" lon="10.953599"><ele>642.4</ele><time>2026-04-25T08:52:23.947Z</time></trkpt><trkpt lat="44.3266582" lon="10.9534628"><ele>640.2</ele><time>2026-04-25T08:52:25.949Z</time></trkpt><trkpt lat="44.3266362" lon="10.953342"><ele>638.0</ele><time>2026-04-25T08:52:27.948Z</time></trkpt><trkpt lat="44.3266302" lon="10.9532282"><ele>636.1666666666666</ele><time>2026-04-25T08:52:29.949Z</time></trkpt><trkpt lat="44.3266537" lon="10.9531166"><ele>634.3333333333333</ele><time>2026-04-25T08:52:31.948Z</time></trkpt><trkpt lat="44.3267329" lon="10.9530623"><ele>632.5</ele><time>2026-04-25T08:52:34.949Z</time></trkpt><trkpt lat="44.3267981" lon="10.9530706"><ele>630.6666666666666</ele><time>2026-04-25T08:52:36.947Z</time></trkpt><trkpt lat="44.32671" lon="10.9530428"><ele>628.8333333333334</ele><time>2026-04-25T08:52:51.948Z</time></trkpt><trkpt lat="44.3266332" lon="10.9530452"><ele>627.0</ele><time>2026-04-25T08:52:53.949Z</time></trkpt><trkpt lat="44.326548" lon="10.9529857"><ele>627.0</ele><time>2026-04-25T08:52:55.948Z</time></trkpt><trkpt lat="44.3264605" lon="10.9529189"><ele>627.0</ele><time>2026-04-25T08:52:57.949Z</time></trkpt><trkpt lat="44.3263893" lon="10.9528406"><ele>627.0</ele><time>2026-04-25T08:52:59.949Z</time></trkpt><trkpt lat="44.3263472" lon="10.9527194"><ele>627.0</ele><time>2026-04-25T08:53:01.949Z</time></trkpt><trkpt lat="44.3263837" lon="10.9525531"><ele>627.0</ele><time>2026-04-25T08:53:03.949Z</time></trkpt><trkpt lat="44.3264344" lon="10.9524855"><ele>625.0</ele><time>2026-04-25T08:53:04.949Z</time></trkpt><trkpt lat="44.3264889" lon="10.9524288"><ele>623.0</ele><time>2026-04-25T08:53:05.949Z</time></trkpt><trkpt lat="44.3265462" lon="10.9523817"><ele>621.0</ele><time>2026-04-25T08:53:06.948Z</time></trkpt><trkpt lat="44.3266224" lon="10.9522501"><ele>619.0</ele><time>2026-04-25T08:53:08.948Z</time></trkpt><trkpt lat="44.3266381" lon="10.952161"><ele>617.0</ele><time>2026-04-25T08:53:09.949Z</time></trkpt><trkpt lat="44.3266403" lon="10.952064"><ele>615.0</ele><time>2026-04-25T08:53:10.949Z</time></trkpt><trkpt lat="44.3266391" lon="10.9519718"><ele>615.0</ele><time>2026-04-25T08:53:11.949Z</time></trkpt><trkpt lat="44.3266335" lon="10.951878"><ele>615.0</ele><time>2026-04-25T08:53:12.948Z</time></trkpt><trkpt lat="44.3266253" lon="10.9517901"><ele>615.0</ele><time>2026-04-25T08:53:13.949Z</time></trkpt><trkpt lat="44.3266063" lon="10.9516357"><ele>615.0</ele><time>2026-04-25T08:53:15.949Z</time></trkpt><trkpt lat="44.3265851" lon="10.9514872"><ele>615.0</ele><time>2026-04-25T08:53:17.949Z</time></trkpt><trkpt lat="44.3265659" lon="10.9513997"><ele>615.0</ele><time>2026-04-25T08:53:18.947Z</time></trkpt><trkpt lat="44.326537" lon="10.9513033"><ele>612.8333333333334</ele><time>2026-04-25T08:53:19.949Z</time></trkpt><trkpt lat="44.3265032" lon="10.9512114"><ele>610.6666666666666</ele><time>2026-04-25T08:53:20.947Z</time></trkpt><trkpt lat="44.3264585" lon="10.9511222"><ele>608.5</ele><time>2026-04-25T08:53:21.948Z</time></trkpt><trkpt lat="44.326404" lon="10.951043"><ele>606.3333333333333</ele><time>2026-04-25T08:53:22.949Z</time></trkpt><trkpt lat="44.3263428" lon="10.9509713"><ele>604.1666666666666</ele><time>2026-04-25T08:53:23.949Z</time></trkpt><trkpt lat="44.3262773" lon="10.9509037"><ele>602.0</ele><time>2026-04-25T08:53:24.949Z</time></trkpt><trkpt lat="44.3262058" lon="10.9508376"><ele>598.5</ele><time>2026-04-25T08:53:25.949Z</time></trkpt><trkpt lat="44.3261301" lon="10.9507587"><ele>595.0</ele><time>2026-04-25T08:53:26.948Z</time></trkpt><trkpt lat="44.3260593" lon="10.9506805"><ele>591.5</ele><time>2026-04-25T08:53:27.948Z</time></trkpt><trkpt lat="44.3259957" lon="10.950601"><ele>588.0</ele><time>2026-04-25T08:53:28.948Z</time></trkpt><trkpt lat="44.325939" lon="10.9505265"><ele>584.5</ele><time>2026-04-25T08:53:29.948Z</time></trkpt><trkpt lat="44.325888" lon="10.9504581"><ele>581.0</ele><time>2026-04-25T08:53:30.948Z</time></trkpt><trkpt lat="44.3258425" lon="10.9503889"><ele>581.0</ele><time>2026-04-25T08:53:31.949Z</time></trkpt><trkpt lat="44.3257755" lon="10.9502661"><ele>581.0</ele><time>2026-04-25T08:53:33.948Z</time></trkpt><trkpt lat="44.3257577" lon="10.950149"><ele>581.0</ele><time>2026-04-25T08:53:36.949Z</time></trkpt><trkpt lat="44.3257525" lon="10.9500197"><ele>581.0</ele><time>2026-04-25T08:53:39.948Z</time></trkpt><trkpt lat="44.3257669" lon="10.9498598"><ele>581.0</ele><time>2026-04-25T08:53:41.949Z</time></trkpt><trkpt lat="44.3257807" lon="10.949747"><ele>579.5</ele><time>2026-04-25T08:53:42.948Z</time></trkpt><trkpt lat="44.3257847" lon="10.9496237"><ele>578.0</ele><time>2026-04-25T08:53:43.948Z</time></trkpt><trkpt lat="44.3257729" lon="10.9495032"><ele>576.5</ele><time>2026-04-25T08:53:44.949Z</time></trkpt><trkpt lat="44.3257473" lon="10.9493899"><ele>575.0</ele><time>2026-04-25T08:53:45.948Z</time></trkpt><trkpt lat="44.3257087" lon="10.949285"><ele>573.5</ele><time>2026-04-25T08:53:46.949Z</time></trkpt><trkpt lat="44.3256603" lon="10.9491929"><ele>572.0</ele><time>2026-04-25T08:53:47.949Z</time></trkpt><trkpt lat="44.3256089" lon="10.9491137"><ele>570.1666666666666</ele><time>2026-04-25T08:53:48.948Z</time></trkpt><trkpt lat="44.3255673" lon="10.949036"><ele>568.3333333333333</ele><time>2026-04-25T08:53:49.948Z</time></trkpt><trkpt lat="44.3255404" lon="10.9489446"><ele>566.5</ele><time>2026-04-25T08:53:50.948Z</time></trkpt><trkpt lat="44.3255244" lon="10.9488413"><ele>564.6666666666666</ele><time>2026-04-25T08:53:51.948Z</time></trkpt><trkpt lat="44.3255286" lon="10.9487428"><ele>562.8333333333334</ele><time>2026-04-25T08:53:52.949Z</time></trkpt><trkpt lat="44.3254997" lon="10.948573"><ele>561.0</ele><time>2026-04-25T08:53:54.948Z</time></trkpt><trkpt lat="44.3254672" lon="10.9484731"><ele>559.1666666666666</ele><time>2026-04-25T08:53:55.949Z</time></trkpt><trkpt lat="44.3254315" lon="10.9483667"><ele>557.3333333333334</ele><time>2026-04-25T08:53:56.948Z</time></trkpt><trkpt lat="44.3253918" lon="10.9482578"><ele>555.5</ele><time>2026-04-25T08:53:57.948Z</time></trkpt><trkpt lat="44.3253551" lon="10.9481472"><ele>553.6666666666667</ele><time>2026-04-25T08:53:58.949Z</time></trkpt><trkpt lat="44.3253262" lon="10.9480359"><ele>551.8333333333334</ele><time>2026-04-25T08:53:59.948Z</time></trkpt><trkpt lat="44.325302" lon="10.9479292"><ele>550.0</ele><time>2026-04-25T08:54:00.949Z</time></trkpt><trkpt lat="44.325265" lon="10.9477133"><ele>550.0</ele><time>2026-04-25T08:54:02.947Z</time></trkpt><trkpt lat="44.3252565" lon="10.947606"><ele>550.0</ele><time>2026-04-25T08:54:03.949Z</time></trkpt><trkpt lat="44.3252513" lon="10.9475069"><ele>550.0</ele><time>2026-04-25T08:54:04.948Z</time></trkpt><trkpt lat="44.3252376" lon="10.9474168"><ele>550.0</ele><time>2026-04-25T08:54:05.949Z</time></trkpt><trkpt lat="44.325194" lon="10.9472863"><ele>550.0</ele><time>2026-04-25T08:54:07.949Z</time></trkpt><trkpt lat="44.3251367" lon="10.947167"><ele>550.0</ele><time>2026-04-25T08:54:09.949Z</time></trkpt><trkpt lat="44.3250871" lon="10.9470665"><ele>549.1666666666667</ele><time>2026-04-25T08:54:11.948Z</time></trkpt><trkpt lat="44.3250326" lon="10.9469852"><ele>548.3333333333334</ele><time>2026-04-25T08:54:13.948Z</time></trkpt><trkpt lat="44.324988" lon="10.9469147"><ele>547.5</ele><time>2026-04-25T08:55:37.948Z</time></trkpt><trkpt lat="44.3249379" lon="10.9468357"><ele>546.6666666666666</ele><time>2026-04-25T08:55:40.947Z</time></trkpt><trkpt lat="44.3248679" lon="10.9467322"><ele>545.8333333333333</ele><time>2026-04-25T08:55:42.949Z</time></trkpt><trkpt lat="44.3248011" lon="10.9465966"><ele>545.0</ele><time>2026-04-25T08:55:44.949Z</time></trkpt><trkpt lat="44.3247713" lon="10.946517"><ele>543.5</ele><time>2026-04-25T08:55:45.948Z</time></trkpt><trkpt lat="44.3247451" lon="10.9464344"><ele>542.0</ele><time>2026-04-25T08:55:46.949Z</time></trkpt><trkpt lat="44.3247218" lon="10.94635"><ele>540.5</ele><time>2026-04-25T08:55:47.949Z</time></trkpt><trkpt lat="44.3247027" lon="10.9462655"><ele>539.0</ele><time>2026-04-25T08:55:48.949Z</time></trkpt><trkpt lat="44.3246889" lon="10.9461784"><ele>537.5</ele><time>2026-04-25T08:55:49.948Z</time></trkpt><trkpt lat="44.3246734" lon="10.9460154"><ele>536.0</ele><time>2026-04-25T08:55:51.949Z</time></trkpt><trkpt lat="44.3246896" lon="10.9458805"><ele>534.0</ele><time>2026-04-25T08:55:53.948Z</time></trkpt><trkpt lat="44.3247223" lon="10.9457409"><ele>532.0</ele><time>2026-04-25T08:55:55.948Z</time></trkpt><trkpt lat="44.3247355" lon="10.9455926"><ele>530.0</ele><time>2026-04-25T08:55:57.949Z</time></trkpt><trkpt lat="44.3247372" lon="10.9454678"><ele>528.0</ele><time>2026-04-25T08:55:59.949Z</time></trkpt><trkpt lat="44.3247385" lon="10.9453741"><ele>526.0</ele><time>2026-04-25T08:56:01.948Z</time></trkpt><trkpt lat="44.3247581" lon="10.9452825"><ele>524.0</ele><time>2026-04-25T08:56:03.948Z</time></trkpt><trkpt lat="44.32481" lon="10.9451472"><ele>522.0</ele><time>2026-04-25T08:56:05.949Z</time></trkpt><trkpt lat="44.3248385" lon="10.9450075"><ele>520.0</ele><time>2026-04-25T08:56:07.949Z</time></trkpt><trkpt lat="44.3248467" lon="10.9448445"><ele>518.0</ele><time>2026-04-25T08:56:09.949Z</time></trkpt><trkpt lat="44.3248543" lon="10.9447513"><ele>516.0</ele><time>2026-04-25T08:56:10.948Z</time></trkpt><trkpt lat="44.3248673" lon="10.9446503"><ele>514.0</ele><time>2026-04-25T08:56:11.949Z</time></trkpt><trkpt lat="44.3248851" lon="10.9445237"><ele>514.0</ele><time>2026-04-25T08:56:12.948Z</time></trkpt><trkpt lat="44.3249051" lon="10.9444124"><ele>514.0</ele><time>2026-04-25T08:56:13.947Z</time></trkpt><trkpt lat="44.3249202" lon="10.9443042"><ele>514.0</ele><time>2026-04-25T08:56:14.947Z</time></trkpt><trkpt lat="44.3249282" lon="10.9442049"><ele>514.0</ele><time>2026-04-25T08:56:15.948Z</time></trkpt><trkpt lat="44.3249392" lon="10.9441037"><ele>514.0</ele><time>2026-04-25T08:56:16.949Z</time></trkpt><trkpt lat="44.3249364" lon="10.9440072"><ele>514.0</ele><time>2026-04-25T08:56:17.948Z</time></trkpt><trkpt lat="44.3249196" lon="10.9439172"><ele>514.0</ele><time>2026-04-25T08:56:18.948Z</time></trkpt><trkpt lat="44.3248916" lon="10.9438252"><ele>512.5</ele><time>2026-04-25T08:56:19.949Z</time></trkpt><trkpt lat="44.3248798" lon="10.943644"><ele>511.0</ele><time>2026-04-25T08:56:21.949Z</time></trkpt><trkpt lat="44.3248642" lon="10.9435326"><ele>509.5</ele><time>2026-04-25T08:56:22.949Z</time></trkpt><trkpt lat="44.3248381" lon="10.9434298"><ele>508.0</ele><time>2026-04-25T08:56:23.947Z</time></trkpt><trkpt lat="44.3248086" lon="10.9433437"><ele>506.50000000000006</ele><time>2026-04-25T08:56:24.948Z</time></trkpt><trkpt lat="44.3247792" lon="10.9432447"><ele>505.0</ele><time>2026-04-25T08:56:25.949Z</time></trkpt><trkpt lat="44.3247632" lon="10.9431564"><ele>504.8</ele><time>2026-04-25T08:56:26.949Z</time></trkpt><trkpt lat="44.3247699" lon="10.9430105"><ele>504.6</ele><time>2026-04-25T08:56:28.948Z</time></trkpt><trkpt lat="44.324814" lon="10.9428698"><ele>504.4</ele><time>2026-04-25T08:56:30.948Z</time></trkpt><trkpt lat="44.3248571" lon="10.9427152"><ele>504.2</ele><time>2026-04-25T08:56:32.948Z</time></trkpt><trkpt lat="44.3248925" lon="10.942575"><ele>504.0</ele><time>2026-04-25T08:56:34.948Z</time></trkpt><trkpt lat="44.3249247" lon="10.942463"><ele>503.8333333333333</ele><time>2026-04-25T08:56:36.949Z</time></trkpt><trkpt lat="44.3249404" lon="10.9423763"><ele>503.66666666666663</ele><time>2026-04-25T08:56:38.949Z</time></trkpt><trkpt lat="44.3249087" lon="10.942293"><ele>503.5</ele><time>2026-04-25T08:56:40.948Z</time></trkpt><trkpt lat="44.3248488" lon="10.9422277"><ele>503.3333333333333</ele><time>2026-04-25T08:56:42.949Z</time></trkpt><trkpt lat="44.3247574" lon="10.9422021"><ele>503.16666666666663</ele><time>2026-04-25T08:56:44.949Z</time></trkpt><trkpt lat="44.3246692" lon="10.9422407"><ele>503.0</ele><time>2026-04-25T08:56:46.949Z</time></trkpt><trkpt lat="44.3246093" lon="10.9422719"><ele>498.99999999999994</ele><time>2026-04-25T08:56:48.948Z</time></trkpt><trkpt lat="44.3245273" lon="10.9422891"><ele>495.0</ele><time>2026-04-25T08:56:51.948Z</time></trkpt><trkpt lat="44.3244715" lon="10.9422034"><ele>491.0</ele><time>2026-04-25T08:56:54.949Z</time></trkpt><trkpt lat="44.3244538" lon="10.9420989"><ele>487.0</ele><time>2026-04-25T08:56:57.948Z</time></trkpt><trkpt lat="44.3244738" lon="10.9420086"><ele>482.99999999999994</ele><time>2026-04-25T08:56:59.947Z</time></trkpt><trkpt lat="44.3244898" lon="10.9419089"><ele>479.0</ele><time>2026-04-25T08:57:01.948Z</time></trkpt><trkpt lat="44.3244801" lon="10.9417846"><ele>477.3333333333333</ele><time>2026-04-25T08:57:03.947Z</time></trkpt><trkpt lat="44.3245186" lon="10.9416285"><ele>475.66666666666663</ele><time>2026-04-25T08:57:05.948Z</time></trkpt><trkpt lat="44.3245482" lon="10.9415378"><ele>474.0</ele><time>2026-04-25T08:57:06.947Z</time></trkpt><trkpt lat="44.3245639" lon="10.9414405"><ele>472.33333333333337</ele><time>2026-04-25T08:57:07.949Z</time></trkpt><trkpt lat="44.3245724" lon="10.941351"><ele>470.6666666666667</ele><time>2026-04-25T08:57:08.949Z</time></trkpt><trkpt lat="44.3245778" lon="10.9411984"><ele>469.0</ele><time>2026-04-25T08:57:10.948Z</time></trkpt><trkpt lat="44.3245782" lon="10.9410556"><ele>469.0</ele><time>2026-04-25T08:57:12.949Z</time></trkpt><trkpt lat="44.3245492" lon="10.9409205"><ele>469.0</ele><time>2026-04-25T08:57:14.949Z</time></trkpt><trkpt lat="44.3245222" lon="10.9407769"><ele>469.0</ele><time>2026-04-25T08:57:16.949Z</time></trkpt><trkpt lat="44.3244883" lon="10.9406432"><ele>469.0</ele><time>2026-04-25T08:57:18.949Z</time></trkpt><trkpt lat="44.3244453" lon="10.9405056"><ele>469.0</ele><time>2026-04-25T08:57:20.948Z</time></trkpt><trkpt lat="44.3244196" lon="10.9403847"><ele>467.1666666666667</ele><time>2026-04-25T08:57:22.948Z</time></trkpt><trkpt lat="44.3243916" lon="10.9402712"><ele>465.33333333333337</ele><time>2026-04-25T08:57:24.949Z</time></trkpt><trkpt lat="44.3243602" lon="10.9401887"><ele>463.5</ele><time>2026-04-25T08:57:26.949Z</time></trkpt><trkpt lat="44.3243221" lon="10.9401011"><ele>461.66666666666663</ele><time>2026-04-25T08:57:28.948Z</time></trkpt><trkpt lat="44.3242811" lon="10.9400196"><ele>459.8333333333333</ele><time>2026-04-25T08:57:30.949Z</time></trkpt><trkpt lat="44.3242481" lon="10.9399289"><ele>458.0</ele><time>2026-04-25T08:57:32.947Z</time></trkpt><trkpt lat="44.3242291" lon="10.939816"><ele>456.0</ele><time>2026-04-25T08:57:34.949Z</time></trkpt><trkpt lat="44.3242239" lon="10.9397174"><ele>453.99999999999994</ele><time>2026-04-25T08:57:36.949Z</time></trkpt><trkpt lat="44.3242226" lon="10.9396088"><ele>451.99999999999994</ele><time>2026-04-25T08:57:44.948Z</time></trkpt><trkpt lat="44.324221" lon="10.9394625"><ele>450.0</ele><time>2026-04-25T08:57:47.949Z</time></trkpt><trkpt lat="44.3242151" lon="10.9393328"><ele>448.0</ele><time>2026-04-25T08:57:49.949Z</time></trkpt><trkpt lat="44.324198" lon="10.9391836"><ele>445.4</ele><time>2026-04-25T08:57:51.949Z</time></trkpt><trkpt lat="44.3241836" lon="10.9390321"><ele>442.79999999999995</ele><time>2026-04-25T08:57:53.948Z</time></trkpt><trkpt lat="44.3241798" lon="10.9388738"><ele>440.2</ele><time>2026-04-25T08:57:55.949Z</time></trkpt><trkpt lat="44.324144" lon="10.9387104"><ele>437.6</ele><time>2026-04-25T08:57:57.949Z</time></trkpt><trkpt lat="44.3241165" lon="10.9386191"><ele>435.0</ele><time>2026-04-25T08:57:58.948Z</time></trkpt><trkpt lat="44.3241004" lon="10.9385205"><ele>435.0</ele><time>2026-04-25T08:57:59.948Z</time></trkpt><trkpt lat="44.324089" lon="10.9384205"><ele>435.0</ele><time>2026-04-25T08:58:00.948Z</time></trkpt><trkpt lat="44.3240813" lon="10.9383259"><ele>435.0</ele><time>2026-04-25T08:58:01.949Z</time></trkpt><trkpt lat="44.3240763" lon="10.9382079"><ele>435.0</ele><time>2026-04-25T08:58:02.948Z</time></trkpt><trkpt lat="44.3240784" lon="10.9381084"><ele>435.0</ele><time>2026-04-25T08:58:03.949Z</time></trkpt><trkpt lat="44.3240826" lon="10.937951"><ele>435.0</ele><time>2026-04-25T08:58:05.949Z</time></trkpt><trkpt lat="44.3240283" lon="10.9377888"><ele>431.75</ele><time>2026-04-25T08:58:07.949Z</time></trkpt><trkpt lat="44.3239464" lon="10.937565"><ele>428.5</ele><time>2026-04-25T08:58:09.949Z</time></trkpt><trkpt lat="44.323924" lon="10.9374372"><ele>425.25</ele><time>2026-04-25T08:58:10.949Z</time></trkpt><trkpt lat="44.3239124" lon="10.9373157"><ele>422.0</ele><time>2026-04-25T08:58:11.949Z</time></trkpt><trkpt lat="44.3239099" lon="10.9371883"><ele>420.0</ele><time>2026-04-25T08:58:12.947Z</time></trkpt><trkpt lat="44.3239213" lon="10.9370235"><ele>418.0</ele><time>2026-04-25T08:58:13.949Z</time></trkpt><trkpt lat="44.3239181" lon="10.9368766"><ele>416.0</ele><time>2026-04-25T08:58:14.949Z</time></trkpt><trkpt lat="44.3239016" lon="10.9367565"><ele>414.0</ele><time>2026-04-25T08:58:15.949Z</time></trkpt><trkpt lat="44.3238764" lon="10.9366421"><ele>412.0</ele><time>2026-04-25T08:58:16.949Z</time></trkpt><trkpt lat="44.3238387" lon="10.9365592"><ele>410.6</ele><time>2026-04-25T08:58:17.949Z</time></trkpt><trkpt lat="44.323762" lon="10.9364376"><ele>409.20000000000005</ele><time>2026-04-25T08:58:19.948Z</time></trkpt><trkpt lat="44.3236681" lon="10.9363306"><ele>407.8</ele><time>2026-04-25T08:58:21.948Z</time></trkpt><trkpt lat="44.323598" lon="10.9362898"><ele>406.4</ele><time>2026-04-25T08:58:22.949Z</time></trkpt><trkpt lat="44.323538" lon="10.9362547"><ele>405.0</ele><time>2026-04-25T08:58:23.948Z</time></trkpt><trkpt lat="44.3234533" lon="10.9361462"><ele>405.0</ele><time>2026-04-25T08:58:25.949Z</time></trkpt><trkpt lat="44.3234195" lon="10.9359759"><ele>405.0</ele><time>2026-04-25T08:58:27.949Z</time></trkpt><trkpt lat="44.3234171" lon="10.9358705"><ele>405.0</ele><time>2026-04-25T08:58:28.948Z</time></trkpt><trkpt lat="44.3234205" lon="10.9357563"><ele>405.0</ele><time>2026-04-25T08:58:29.948Z</time></trkpt><trkpt lat="44.323423" lon="10.9356438"><ele>405.0</ele><time>2026-04-25T08:58:30.949Z</time></trkpt><trkpt lat="44.3234227" lon="10.9355329"><ele>405.0</ele><time>2026-04-25T08:58:31.949Z</time></trkpt><trkpt lat="44.3234239" lon="10.9354296"><ele>404.2857142857143</ele><time>2026-04-25T08:58:32.949Z</time></trkpt><trkpt lat="44.3234253" lon="10.9353338"><ele>403.57142857142856</ele><time>2026-04-25T08:58:33.948Z</time></trkpt><trkpt lat="44.3234303" lon="10.9352436"><ele>402.8571428571429</ele><time>2026-04-25T08:58:34.949Z</time></trkpt><trkpt lat="44.3234361" lon="10.9351535"><ele>402.1428571428571</ele><time>2026-04-25T08:58:35.949Z</time></trkpt><trkpt lat="44.3234429" lon="10.9350646"><ele>401.42857142857144</ele><time>2026-04-25T08:58:36.949Z</time></trkpt><trkpt lat="44.3234472" lon="10.9349723"><ele>400.7142857142857</ele><time>2026-04-25T08:58:37.949Z</time></trkpt><trkpt lat="44.3234483" lon="10.9348797"><ele>400.0</ele><time>2026-04-25T08:58:38.949Z</time></trkpt><trkpt lat="44.3234527" lon="10.9347914"><ele>398.2</ele><time>2026-04-25T08:58:39.949Z</time></trkpt><trkpt lat="44.3234675" lon="10.9346144"><ele>396.4</ele><time>2026-04-25T08:58:41.948Z</time></trkpt><trkpt lat="44.323471" lon="10.9345136"><ele>394.6</ele><time>2026-04-25T08:58:42.949Z</time></trkpt><trkpt lat="44.323475" lon="10.9344142"><ele>392.8</ele><time>2026-04-25T08:58:43.949Z</time></trkpt><trkpt lat="44.3234815" lon="10.9343215"><ele>391.0</ele><time>2026-04-25T08:58:44.948Z</time></trkpt><trkpt lat="44.3234946" lon="10.934156"><ele>389.0</ele><time>2026-04-25T08:58:46.949Z</time></trkpt><trkpt lat="44.3234916" lon="10.9339946"><ele>387.0</ele><time>2026-04-25T08:58:48.949Z</time></trkpt><trkpt lat="44.3234844" lon="10.9338884"><ele>385.0</ele><time>2026-04-25T08:58:49.947Z</time></trkpt><trkpt lat="44.3234615" lon="10.9337866"><ele>383.0</ele><time>2026-04-25T08:58:50.947Z</time></trkpt><trkpt lat="44.3234406" lon="10.9336957"><ele>381.0</ele><time>2026-04-25T08:58:51.947Z</time></trkpt><trkpt lat="44.3234067" lon="10.9335445"><ele>381.0</ele><time>2026-04-25T08:58:53.947Z</time></trkpt><trkpt lat="44.3233865" lon="10.9334175"><ele>381.0</ele><time>2026-04-25T08:58:55.947Z</time></trkpt><trkpt lat="44.3233759" lon="10.9333114"><ele>381.0</ele><time>2026-04-25T08:58:57.947Z</time></trkpt><trkpt lat="44.3233657" lon="10.9332053"><ele>381.0</ele><time>2026-04-25T08:58:59.948Z</time></trkpt><trkpt lat="44.3233595" lon="10.9330874"><ele>381.0</ele><time>2026-04-25T08:59:01.948Z</time></trkpt><trkpt lat="44.3233484" lon="10.932985"><ele>381.0</ele><time>2026-04-25T08:59:03.948Z</time></trkpt><trkpt lat="44.3233267" lon="10.9328742"><ele>377.20000000000005</ele><time>2026-04-25T08:59:05.947Z</time></trkpt><trkpt lat="44.3232888" lon="10.932742"><ele>373.40000000000003</ele><time>2026-04-25T08:59:07.947Z</time></trkpt><trkpt lat="44.3232532" lon="10.9325882"><ele>369.6</ele><time>2026-04-25T08:59:09.948Z</time></trkpt><trkpt lat="44.3232075" lon="10.9324937"><ele>365.8</ele><time>2026-04-25T08:59:11.947Z</time></trkpt><trkpt lat="44.3231162" lon="10.9324667"><ele>362.0</ele><time>2026-04-25T08:59:13.947Z</time></trkpt><trkpt lat="44.3230553" lon="10.932489"><ele>360.20000000000005</ele><time>2026-04-25T08:59:14.948Z</time></trkpt><trkpt lat="44.3229406" lon="10.9325424"><ele>358.4</ele><time>2026-04-25T08:59:16.946Z</time></trkpt><trkpt lat="44.3228308" lon="10.9325852"><ele>356.6</ele><time>2026-04-25T08:59:18.948Z</time></trkpt><trkpt lat="44.322727" lon="10.9326175"><ele>354.79999999999995</ele><time>2026-04-25T08:59:20.948Z</time></trkpt><trkpt lat="44.3226343" lon="10.9325757"><ele>353.0</ele><time>2026-04-25T08:59:22.946Z</time></trkpt><trkpt lat="44.3225808" lon="10.9324753"><ele>349.59999999999997</ele><time>2026-04-25T08:59:24.947Z</time></trkpt><trkpt lat="44.3225505" lon="10.9323353"><ele>346.2</ele><time>2026-04-25T08:59:26.947Z</time></trkpt><trkpt lat="44.322499" lon="10.9321902"><ele>342.8</ele><time>2026-04-25T08:59:28.947Z</time></trkpt><trkpt lat="44.3224577" lon="10.9321218"><ele>339.4</ele><time>2026-04-25T08:59:29.948Z</time></trkpt><trkpt lat="44.3224123" lon="10.9320557"><ele>336.0</ele><time>2026-04-25T08:59:30.947Z</time></trkpt><trkpt lat="44.3223354" lon="10.9319413"><ele>336.0</ele><time>2026-04-25T08:59:32.948Z</time></trkpt><trkpt lat="44.322285" lon="10.931831"><ele>336.0</ele><time>2026-04-25T08:59:34.947Z</time></trkpt><trkpt lat="44.3222536" lon="10.9317224"><ele>336.0</ele><time>2026-04-25T08:59:37.947Z</time></trkpt><trkpt lat="44.3222202" lon="10.9316386"><ele>336.0</ele><time>2026-04-25T08:59:41.948Z</time></trkpt><trkpt lat="44.322162" lon="10.9315631"><ele>336.0</ele><time>2026-04-25T08:59:45.947Z</time></trkpt><trkpt lat="44.322105" lon="10.9315178"><ele>336.0</ele><time>2026-04-25T08:59:47.947Z</time></trkpt><trkpt lat="44.3220544" lon="10.9314381"><ele>330.0</ele><time>2026-04-25T08:59:49.948Z</time></trkpt><trkpt lat="44.3220092" lon="10.9313389"><ele>324.0</ele><time>2026-04-25T08:59:51.946Z</time></trkpt><trkpt lat="44.3219323" lon="10.9312651"><ele>318.0</ele><time>2026-04-25T08:59:53.946Z</time></trkpt><trkpt lat="44.321848" lon="10.9312143"><ele>312.0</ele><time>2026-04-25T08:59:55.948Z</time></trkpt><trkpt lat="44.3217904" lon="10.9311588"><ele>306.0</ele><time>2026-04-25T08:59:57.948Z</time></trkpt><trkpt lat="44.3217387" lon="10.9310721"><ele>300.0</ele><time>2026-04-25T08:59:59.947Z</time></trkpt><trkpt lat="44.3216987" lon="10.9309753"><ele>297.5</ele><time>2026-04-25T09:00:01.948Z</time></trkpt><trkpt lat="44.3216801" lon="10.9308618"><ele>295.0</ele><time>2026-04-25T09:00:03.946Z</time></trkpt><trkpt lat="44.3216328" lon="10.9307723"><ele>292.5</ele><time>2026-04-25T09:00:05.947Z</time></trkpt><trkpt lat="44.3215615" lon="10.9307163"><ele>290.0</ele><time>2026-04-25T09:00:07.948Z</time></trkpt><trkpt lat="44.3214872" lon="10.930699"><ele>287.5</ele><time>2026-04-25T09:00:09.948Z</time></trkpt><trkpt lat="44.321411" lon="10.9307165"><ele>285.0</ele><time>2026-04-25T09:00:11.947Z</time></trkpt><trkpt lat="44.321344" lon="10.9307729"><ele>283.3333333333333</ele><time>2026-04-25T09:00:13.947Z</time></trkpt><trkpt lat="44.3213004" lon="10.9308906"><ele>281.6666666666667</ele><time>2026-04-25T09:00:15.947Z</time></trkpt><trkpt lat="44.3212612" lon="10.930993"><ele>280.0</ele><time>2026-04-25T09:00:17.947Z</time></trkpt><trkpt lat="44.3212113" lon="10.9310793"><ele>278.33333333333337</ele><time>2026-04-25T09:00:19.948Z</time></trkpt><trkpt lat="44.321157" lon="10.9311798"><ele>276.6666666666667</ele><time>2026-04-25T09:00:21.947Z</time></trkpt><trkpt lat="44.3210991" lon="10.9312531"><ele>275.0</ele><time>2026-04-25T09:00:23.947Z</time></trkpt><trkpt lat="44.321024" lon="10.9312569"><ele>275.0</ele><time>2026-04-25T09:00:25.948Z</time></trkpt><trkpt lat="44.3209364" lon="10.9312451"><ele>275.0</ele><time>2026-04-25T09:00:27.947Z</time></trkpt><trkpt lat="44.3208564" lon="10.9312548"><ele>275.0</ele><time>2026-04-25T09:00:29.948Z</time></trkpt><trkpt lat="44.320787" lon="10.9312437"><ele>275.0</ele><time>2026-04-25T09:00:31.947Z</time></trkpt><trkpt lat="44.3207173" lon="10.9311525"><ele>275.0</ele><time>2026-04-25T09:00:34.948Z</time></trkpt><trkpt lat="44.320709" lon="10.9310515"><ele>275.0</ele><time>2026-04-25T09:00:36.948Z</time></trkpt><trkpt lat="44.320726" lon="10.9309573"><ele>272.83333333333337</ele><time>2026-04-25T09:00:38.948Z</time></trkpt><trkpt lat="44.3207262" lon="10.9308692"><ele>270.6666666666667</ele><time>2026-04-25T09:00:40.948Z</time></trkpt><trkpt lat="44.3206556" lon="10.9308217"><ele>268.5</ele><time>2026-04-25T09:00:43.947Z</time></trkpt><trkpt lat="44.3205911" lon="10.9308622"><ele>266.3333333333333</ele><time>2026-04-25T09:00:45.947Z</time></trkpt><trkpt lat="44.3205288" lon="10.9309614"><ele>264.16666666666663</ele><time>2026-04-25T09:00:47.948Z</time></trkpt><trkpt lat="44.320459" lon="10.9310619"><ele>262.0</ele><time>2026-04-25T09:00:49.947Z</time></trkpt><trkpt lat="44.3203981" lon="10.9311536"><ele>261.8333333333333</ele><time>2026-04-25T09:00:51.947Z</time></trkpt><trkpt lat="44.3203662" lon="10.9312385"><ele>261.66666666666663</ele><time>2026-04-25T09:00:53.948Z</time></trkpt><trkpt lat="44.320342" lon="10.9313223"><ele>261.5</ele><time>2026-04-25T09:00:56.948Z</time></trkpt><trkpt lat="44.3202842" lon="10.9314063"><ele>261.3333333333333</ele><time>2026-04-25T09:01:12.948Z</time></trkpt><trkpt lat="44.3202187" lon="10.9314744"><ele>261.1666666666667</ele><time>2026-04-25T09:01:15.95Z</time></trkpt><trkpt lat="44.3201998" lon="10.9316541"><ele>261.0</ele><time>2026-04-25T09:01:18.948Z</time></trkpt><trkpt lat="44.3201439" lon="10.9317258"><ele>260.2857142857143</ele><time>2026-04-25T09:02:03.948Z</time></trkpt><trkpt lat="44.3200707" lon="10.9317219"><ele>259.57142857142856</ele><time>2026-04-25T09:02:07.947Z</time></trkpt><trkpt lat="44.3200045" lon="10.9317195"><ele>258.85714285714283</ele><time>2026-04-25T09:02:30.948Z</time></trkpt><trkpt lat="44.3199664" lon="10.9316473"><ele>258.1428571428571</ele><time>2026-04-25T09:04:32.948Z</time></trkpt><trkpt lat="44.3199601" lon="10.9315489"><ele>257.4285714285714</ele><time>2026-04-25T09:04:35.947Z</time></trkpt><trkpt lat="44.31995" lon="10.9314388"><ele>256.7142857142857</ele><time>2026-04-25T09:04:37.948Z</time></trkpt><trkpt lat="44.319957" lon="10.9313265"><ele>256.0</ele><time>2026-04-25T09:04:38.947Z</time></trkpt><trkpt lat="44.3199659" lon="10.9312333"><ele>256.0</ele><time>2026-04-25T09:04:39.948Z</time></trkpt><trkpt lat="44.3199785" lon="10.9311405"><ele>256.0</ele><time>2026-04-25T09:04:40.946Z</time></trkpt><trkpt lat="44.3200627" lon="10.9310087"><ele>256.0</ele><time>2026-04-25T09:04:42.948Z</time></trkpt><trkpt lat="44.3201206" lon="10.9309559"><ele>256.0</ele><time>2026-04-25T09:04:43.947Z</time></trkpt><trkpt lat="44.3202133" lon="10.9308363"><ele>256.0</ele><time>2026-04-25T09:04:45.947Z</time></trkpt><trkpt lat="44.3202582" lon="10.9307454"><ele>255.60000000000002</ele><time>2026-04-25T09:04:46.946Z</time></trkpt><trkpt lat="44.3203072" lon="10.9306281"><ele>255.20000000000002</ele><time>2026-04-25T09:04:47.948Z</time></trkpt><trkpt lat="44.3203493" lon="10.9305125"><ele>254.79999999999998</ele><time>2026-04-25T09:04:48.948Z</time></trkpt><trkpt lat="44.3203883" lon="10.9303939"><ele>254.39999999999998</ele><time>2026-04-25T09:04:49.948Z</time></trkpt><trkpt lat="44.320425" lon="10.9302826"><ele>254.0</ele><time>2026-04-25T09:04:50.948Z</time></trkpt><trkpt lat="44.3204685" lon="10.9301534"><ele>253.39999999999998</ele><time>2026-04-25T09:04:51.947Z</time></trkpt><trkpt lat="44.3205095" lon="10.930041"><ele>252.79999999999998</ele><time>2026-04-25T09:04:52.948Z</time></trkpt><trkpt lat="44.3205484" lon="10.9299305"><ele>252.20000000000002</ele><time>2026-04-25T09:04:53.948Z</time></trkpt><trkpt lat="44.3205906" lon="10.9298057"><ele>251.60000000000002</ele><time>2026-04-25T09:04:54.948Z</time></trkpt><trkpt lat="44.3206326" lon="10.9296739"><ele>251.0</ele><time>2026-04-25T09:04:55.947Z</time></trkpt><trkpt lat="44.3206749" lon="10.9295521"><ele>251.0</ele><time>2026-04-25T09:04:56.947Z</time></trkpt><trkpt lat="44.3207327" lon="10.9293926"><ele>251.00000000000003</ele><time>2026-04-25T09:04:57.948Z</time></trkpt><trkpt lat="44.3207852" lon="10.9292432"><ele>251.00000000000003</ele><time>2026-04-25T09:04:58.948Z</time></trkpt><trkpt lat="44.3208249" lon="10.9291171"><ele>251.0</ele><time>2026-04-25T09:04:59.947Z</time></trkpt><trkpt lat="44.3208597" lon="10.9290111"><ele>251.0</ele><time>2026-04-25T09:05:00.947Z</time></trkpt><trkpt lat="44.3208886" lon="10.9289302"><ele>250.33333333333334</ele><time>2026-04-25T09:05:01.948Z</time></trkpt><trkpt lat="44.3209235" lon="10.9288226"><ele>249.66666666666669</ele><time>2026-04-25T09:05:03.947Z</time></trkpt><trkpt lat="44.3208987" lon="10.9287232"><ele>249.0</ele><time>2026-04-25T09:05:35.948Z</time></trkpt><trkpt lat="44.3208059" lon="10.9286361"><ele>248.33333333333331</ele><time>2026-04-25T09:05:38.948Z</time></trkpt><trkpt lat="44.3207732" lon="10.9285219"><ele>247.66666666666666</ele><time>2026-04-25T09:05:40.948Z</time></trkpt><trkpt lat="44.3207978" lon="10.9284061"><ele>247.0</ele><time>2026-04-25T09:05:42.947Z</time></trkpt><trkpt lat="44.3207978" lon="10.9282649"><ele>246.8</ele><time>2026-04-25T09:05:44.947Z</time></trkpt><trkpt lat="44.3206956" lon="10.9282361"><ele>246.6</ele><time>2026-04-25T09:05:46.948Z</time></trkpt><trkpt lat="44.3205685" lon="10.9282027"><ele>246.40000000000003</ele><time>2026-04-25T09:05:48.948Z</time></trkpt><trkpt lat="44.3204512" lon="10.928154"><ele>246.20000000000002</ele><time>2026-04-25T09:05:50.948Z</time></trkpt><trkpt lat="44.3203878" lon="10.9281072"><ele>246.0</ele><time>2026-04-25T09:05:51.948Z</time></trkpt><trkpt lat="44.3203334" lon="10.9280492"><ele>246.42857142857144</ele><time>2026-04-25T09:05:52.947Z</time></trkpt><trkpt lat="44.3202563" lon="10.9279831"><ele>246.85714285714286</ele><time>2026-04-25T09:05:53.948Z</time></trkpt><trkpt lat="44.3201918" lon="10.9279394"><ele>247.28571428571428</ele><time>2026-04-25T09:05:54.946Z</time></trkpt><trkpt lat="44.3201351" lon="10.9278973"><ele>247.71428571428572</ele><time>2026-04-25T09:05:55.948Z</time></trkpt><trkpt lat="44.3200814" lon="10.9278488"><ele>248.1428571428571</ele><time>2026-04-25T09:05:56.947Z</time></trkpt><trkpt lat="44.3200274" lon="10.9277901"><ele>248.57142857142856</ele><time>2026-04-25T09:05:57.948Z</time></trkpt><trkpt lat="44.3199773" lon="10.927725"><ele>249.0</ele><time>2026-04-25T09:05:58.948Z</time></trkpt><trkpt lat="44.3199316" lon="10.9276604"><ele>249.0</ele><time>2026-04-25T09:05:59.948Z</time></trkpt><trkpt lat="44.3198451" lon="10.9275475"><ele>248.99999999999997</ele><time>2026-04-25T09:06:01.948Z</time></trkpt><trkpt lat="44.3197373" lon="10.9274642"><ele>248.99999999999997</ele><time>2026-04-25T09:06:03.948Z</time></trkpt><trkpt lat="44.3196753" lon="10.9274272"><ele>249.0</ele><time>2026-04-25T09:06:04.948Z</time></trkpt><trkpt lat="44.3195661" lon="10.9273644"><ele>249.0</ele><time>2026-04-25T09:06:06.947Z</time></trkpt><trkpt lat="44.319484" lon="10.9273042"><ele>249.0</ele><time>2026-04-25T09:06:07.948Z</time></trkpt><trkpt lat="44.3194027" lon="10.9272568"><ele>249.0</ele><time>2026-04-25T09:06:08.947Z</time></trkpt><trkpt lat="44.3193278" lon="10.9272037"><ele>249.0</ele><time>2026-04-25T09:06:09.948Z</time></trkpt><trkpt lat="44.3192581" lon="10.9271463"><ele>249.0</ele><time>2026-04-25T09:06:10.947Z</time></trkpt><trkpt lat="44.3191861" lon="10.9270873"><ele>249.0</ele><time>2026-04-25T09:06:11.948Z</time></trkpt><trkpt lat="44.3191139" lon="10.9270262"><ele>249.0</ele><time>2026-04-25T09:06:12.948Z</time></trkpt><trkpt lat="44.3190437" lon="10.926978"><ele>249.0</ele><time>2026-04-25T09:06:13.948Z</time></trkpt><trkpt lat="44.3189713" lon="10.9269325"><ele>249.0</ele><time>2026-04-25T09:06:14.947Z</time></trkpt><trkpt lat="44.3189005" lon="10.9268777"><ele>249.0</ele><time>2026-04-25T09:06:15.947Z</time></trkpt><trkpt lat="44.3188373" lon="10.9268168"><ele>249.0</ele><time>2026-04-25T09:06:16.948Z</time></trkpt><trkpt lat="44.3187715" lon="10.9267465"><ele>249.0</ele><time>2026-04-25T09:06:17.948Z</time></trkpt><trkpt lat="44.3187006" lon="10.9266808"><ele>249.0</ele><time>2026-04-25T09:06:18.948Z</time></trkpt><trkpt lat="44.3186241" lon="10.9266275"><ele>249.39999999999998</ele><time>2026-04-25T09:06:19.948Z</time></trkpt><trkpt lat="44.3185361" lon="10.9265815"><ele>249.79999999999998</ele><time>2026-04-25T09:06:20.948Z</time></trkpt><trkpt lat="44.3184394" lon="10.9265401"><ele>250.20000000000002</ele><time>2026-04-25T09:06:21.947Z</time></trkpt><trkpt lat="44.3183331" lon="10.9264908"><ele>250.60000000000002</ele><time>2026-04-25T09:06:22.946Z</time></trkpt><trkpt lat="44.3182349" lon="10.9264224"><ele>251.0</ele><time>2026-04-25T09:06:23.948Z</time></trkpt><trkpt lat="44.3181375" lon="10.9263315"><ele>251.0</ele><time>2026-04-25T09:06:24.947Z</time></trkpt><trkpt lat="44.318039" lon="10.9262234"><ele>251.00000000000003</ele><time>2026-04-25T09:06:25.948Z</time></trkpt><trkpt lat="44.3179528" lon="10.9261228"><ele>251.00000000000003</ele><time>2026-04-25T09:06:26.948Z</time></trkpt><trkpt lat="44.3178629" lon="10.9260356"><ele>251.0</ele><time>2026-04-25T09:06:27.946Z</time></trkpt><trkpt lat="44.3177853" lon="10.9259517"><ele>251.0</ele><time>2026-04-25T09:06:28.948Z</time></trkpt><trkpt lat="44.3177136" lon="10.9258615"><ele>251.0</ele><time>2026-04-25T09:06:29.947Z</time></trkpt><trkpt lat="44.3176375" lon="10.9257684"><ele>251.00000000000003</ele><time>2026-04-25T09:06:30.948Z</time></trkpt><trkpt lat="44.3175582" lon="10.9256732"><ele>251.00000000000003</ele><time>2026-04-25T09:06:31.948Z</time></trkpt><trkpt lat="44.3174797" lon="10.9255818"><ele>251.0</ele><time>2026-04-25T09:06:32.948Z</time></trkpt><trkpt lat="44.3174088" lon="10.9254755"><ele>251.0</ele><time>2026-04-25T09:06:33.948Z</time></trkpt><trkpt lat="44.3173401" lon="10.9253788"><ele>251.0</ele><time>2026-04-25T09:06:34.947Z</time></trkpt><trkpt lat="44.3172664" lon="10.9252773"><ele>251.00000000000003</ele><time>2026-04-25T09:06:35.948Z</time></trkpt><trkpt lat="44.3171913" lon="10.9251704"><ele>251.00000000000003</ele><time>2026-04-25T09:06:36.947Z</time></trkpt><trkpt lat="44.3171152" lon="10.9250603"><ele>251.0</ele><time>2026-04-25T09:06:37.947Z</time></trkpt><trkpt lat="44.3170383" lon="10.9249526"><ele>251.0</ele><time>2026-04-25T09:06:38.948Z</time></trkpt><trkpt lat="44.3169683" lon="10.9248498"><ele>251.25</ele><time>2026-04-25T09:06:39.947Z</time></trkpt><trkpt lat="44.3168891" lon="10.9247339"><ele>251.5</ele><time>2026-04-25T09:06:40.947Z</time></trkpt><trkpt lat="44.316806" lon="10.9246229"><ele>251.75</ele><time>2026-04-25T09:06:41.947Z</time></trkpt><trkpt lat="44.316718" lon="10.9245197"><ele>252.0</ele><time>2026-04-25T09:06:42.948Z</time></trkpt><trkpt lat="44.3166226" lon="10.9244248"><ele>252.0</ele><time>2026-04-25T09:06:43.948Z</time></trkpt><trkpt lat="44.3165138" lon="10.9243242"><ele>252.0</ele><time>2026-04-25T09:06:44.948Z</time></trkpt><trkpt lat="44.316411" lon="10.9242205"><ele>252.0</ele><time>2026-04-25T09:06:45.947Z</time></trkpt><trkpt lat="44.3163139" lon="10.9241231"><ele>252.0</ele><time>2026-04-25T09:06:46.948Z</time></trkpt><trkpt lat="44.3162239" lon="10.9240127"><ele>253.6</ele><time>2026-04-25T09:06:47.948Z</time></trkpt><trkpt lat="44.3161378" lon="10.9239045"><ele>255.2</ele><time>2026-04-25T09:06:48.948Z</time></trkpt><trkpt lat="44.3160562" lon="10.9237932"><ele>256.8</ele><time>2026-04-25T09:06:49.948Z</time></trkpt><trkpt lat="44.3159812" lon="10.9236757"><ele>258.4</ele><time>2026-04-25T09:06:50.948Z</time></trkpt><trkpt lat="44.3159128" lon="10.9235675"><ele>260.0</ele><time>2026-04-25T09:06:51.948Z</time></trkpt><trkpt lat="44.315848" lon="10.9234568"><ele>259.0</ele><time>2026-04-25T09:06:52.947Z</time></trkpt><trkpt lat="44.3157861" lon="10.9233511"><ele>258.0</ele><time>2026-04-25T09:06:53.948Z</time></trkpt><trkpt lat="44.3157323" lon="10.9232453"><ele>257.0</ele><time>2026-04-25T09:06:54.946Z</time></trkpt><trkpt lat="44.3156876" lon="10.9231363"><ele>256.0</ele><time>2026-04-25T09:06:55.948Z</time></trkpt><trkpt lat="44.3156508" lon="10.9230246"><ele>255.0</ele><time>2026-04-25T09:06:56.947Z</time></trkpt><trkpt lat="44.3156262" lon="10.922908"><ele>255.0</ele><time>2026-04-25T09:06:57.948Z</time></trkpt><trkpt lat="44.3155955" lon="10.9227962"><ele>255.0</ele><time>2026-04-25T09:06:58.947Z</time></trkpt><trkpt lat="44.3155441" lon="10.9226981"><ele>255.0</ele><time>2026-04-25T09:06:59.947Z</time></trkpt><trkpt lat="44.3154799" lon="10.9226049"><ele>255.0</ele><time>2026-04-25T09:07:00.947Z</time></trkpt><trkpt lat="44.3154102" lon="10.9225071"><ele>255.0</ele><time>2026-04-25T09:07:01.945Z</time></trkpt><trkpt lat="44.31534" lon="10.9224072"><ele>255.4</ele><time>2026-04-25T09:07:02.946Z</time></trkpt><trkpt lat="44.3152617" lon="10.9223072"><ele>255.8</ele><time>2026-04-25T09:07:03.946Z</time></trkpt><trkpt lat="44.3151823" lon="10.9222078"><ele>256.2</ele><time>2026-04-25T09:07:04.947Z</time></trkpt><trkpt lat="44.3151003" lon="10.922104"><ele>256.6</ele><time>2026-04-25T09:07:05.947Z</time></trkpt><trkpt lat="44.3150115" lon="10.9220028"><ele>257.0</ele><time>2026-04-25T09:07:06.945Z</time></trkpt><trkpt lat="44.3149282" lon="10.9219014"><ele>257.0</ele><time>2026-04-25T09:07:07.946Z</time></trkpt><trkpt lat="44.3148431" lon="10.9217912"><ele>257.0</ele><time>2026-04-25T09:07:08.946Z</time></trkpt><trkpt lat="44.3147576" lon="10.9216804"><ele>257.0</ele><time>2026-04-25T09:07:09.946Z</time></trkpt><trkpt lat="44.3146875" lon="10.9215828"><ele>257.0</ele><time>2026-04-25T09:07:10.947Z</time></trkpt><trkpt lat="44.3146136" lon="10.921494"><ele>257.0</ele><time>2026-04-25T09:07:11.946Z</time></trkpt><trkpt lat="44.3145377" lon="10.9214233"><ele>257.1666666666667</ele><time>2026-04-25T09:07:12.947Z</time></trkpt><trkpt lat="44.3144596" lon="10.9213622"><ele>257.33333333333337</ele><time>2026-04-25T09:07:13.947Z</time></trkpt><trkpt lat="44.3143782" lon="10.9213049"><ele>257.5</ele><time>2026-04-25T09:07:14.947Z</time></trkpt><trkpt lat="44.3143019" lon="10.9212635"><ele>257.6666666666667</ele><time>2026-04-25T09:07:15.947Z</time></trkpt><trkpt lat="44.3142319" lon="10.9212238"><ele>257.8333333333333</ele><time>2026-04-25T09:07:16.946Z</time></trkpt><trkpt lat="44.3141725" lon="10.9211751"><ele>258.0</ele><time>2026-04-25T09:07:17.947Z</time></trkpt><trkpt lat="44.31412" lon="10.9211246"><ele>258.0</ele><time>2026-04-25T09:07:18.947Z</time></trkpt><trkpt lat="44.3140253" lon="10.9210566"><ele>258.0</ele><time>2026-04-25T09:07:20.945Z</time></trkpt><trkpt lat="44.313919" lon="10.9210492"><ele>258.0</ele><time>2026-04-25T09:07:22.947Z</time></trkpt><trkpt lat="44.3138248" lon="10.9210769"><ele>258.0</ele><time>2026-04-25T09:07:24.946Z</time></trkpt><trkpt lat="44.3136935" lon="10.9210679"><ele>258.0</ele><time>2026-04-25T09:07:26.947Z</time></trkpt><trkpt lat="44.3136211" lon="10.9210427"><ele>257.4</ele><time>2026-04-25T09:07:27.946Z</time></trkpt><trkpt lat="44.3135447" lon="10.9209845"><ele>256.8</ele><time>2026-04-25T09:07:28.947Z</time></trkpt><trkpt lat="44.3134595" lon="10.9208964"><ele>256.2</ele><time>2026-04-25T09:07:29.947Z</time></trkpt><trkpt lat="44.3133712" lon="10.9207792"><ele>255.6</ele><time>2026-04-25T09:07:30.947Z</time></trkpt><trkpt lat="44.3132849" lon="10.920645"><ele>255.0</ele><time>2026-04-25T09:07:31.945Z</time></trkpt><trkpt lat="44.3132134" lon="10.9205181"><ele>255.0</ele><time>2026-04-25T09:07:32.947Z</time></trkpt><trkpt lat="44.3131497" lon="10.9203917"><ele>255.0</ele><time>2026-04-25T09:07:33.947Z</time></trkpt><trkpt lat="44.3131013" lon="10.9202628"><ele>255.0</ele><time>2026-04-25T09:07:34.946Z</time></trkpt><trkpt lat="44.3130661" lon="10.9201243"><ele>255.0</ele><time>2026-04-25T09:07:35.946Z</time></trkpt><trkpt lat="44.3130278" lon="10.9199844"><ele>255.0</ele><time>2026-04-25T09:07:36.947Z</time></trkpt><trkpt lat="44.3129864" lon="10.9198522"><ele>257.6</ele><time>2026-04-25T09:07:37.945Z</time></trkpt><trkpt lat="44.3129475" lon="10.9197177"><ele>260.2</ele><time>2026-04-25T09:07:38.947Z</time></trkpt><trkpt lat="44.312913" lon="10.9195916"><ele>262.8</ele><time>2026-04-25T09:07:39.947Z</time></trkpt><trkpt lat="44.3128948" lon="10.9194696"><ele>265.4</ele><time>2026-04-25T09:07:40.946Z</time></trkpt><trkpt lat="44.3128933" lon="10.9193363"><ele>268.0</ele><time>2026-04-25T09:07:41.945Z</time></trkpt><trkpt lat="44.3128846" lon="10.9192064"><ele>268.0</ele><time>2026-04-25T09:07:42.947Z</time></trkpt><trkpt lat="44.3128617" lon="10.9190564"><ele>268.0</ele><time>2026-04-25T09:07:43.946Z</time></trkpt><trkpt lat="44.3128318" lon="10.9188956"><ele>268.0</ele><time>2026-04-25T09:07:44.947Z</time></trkpt><trkpt lat="44.3128063" lon="10.9187557"><ele>268.0</ele><time>2026-04-25T09:07:45.947Z</time></trkpt><trkpt lat="44.3127744" lon="10.9186214"><ele>268.0</ele><time>2026-04-25T09:07:46.947Z</time></trkpt><trkpt lat="44.3127341" lon="10.9184811"><ele>267.8333333333333</ele><time>2026-04-25T09:07:47.947Z</time></trkpt><trkpt lat="44.3126936" lon="10.9183409"><ele>267.66666666666663</ele><time>2026-04-25T09:07:48.946Z</time></trkpt><trkpt lat="44.3126456" lon="10.9182228"><ele>267.5</ele><time>2026-04-25T09:07:49.947Z</time></trkpt><trkpt lat="44.3125939" lon="10.918118"><ele>267.3333333333333</ele><time>2026-04-25T09:07:50.947Z</time></trkpt><trkpt lat="44.3125394" lon="10.9180435"><ele>267.1666666666667</ele><time>2026-04-25T09:07:51.947Z</time></trkpt><trkpt lat="44.3124784" lon="10.9179876"><ele>267.0</ele><time>2026-04-25T09:07:52.947Z</time></trkpt><trkpt lat="44.3124169" lon="10.9179461"><ele>267.0</ele><time>2026-04-25T09:07:53.946Z</time></trkpt><trkpt lat="44.3123429" lon="10.9179146"><ele>267.0</ele><time>2026-04-25T09:07:54.946Z</time></trkpt><trkpt lat="44.3122685" lon="10.9178984"><ele>267.0</ele><time>2026-04-25T09:07:55.946Z</time></trkpt><trkpt lat="44.3121955" lon="10.9179137"><ele>267.0</ele><time>2026-04-25T09:07:56.947Z</time></trkpt><trkpt lat="44.3121314" lon="10.9179292"><ele>267.0</ele><time>2026-04-25T09:07:57.946Z</time></trkpt><trkpt lat="44.312047" lon="10.9179256"><ele>267.0</ele><time>2026-04-25T09:07:59.947Z</time></trkpt><trkpt lat="44.3119913" lon="10.9178337"><ele>270.3333333333333</ele><time>2026-04-25T09:08:01.946Z</time></trkpt><trkpt lat="44.3119923" lon="10.9176403"><ele>273.6666666666667</ele><time>2026-04-25T09:08:03.947Z</time></trkpt><trkpt lat="44.3120029" lon="10.9175246"><ele>277.0</ele><time>2026-04-25T09:08:04.947Z</time></trkpt><trkpt lat="44.3120071" lon="10.9174017"><ele>280.33333333333337</ele><time>2026-04-25T09:08:05.945Z</time></trkpt><trkpt lat="44.3120053" lon="10.9173032"><ele>283.6666666666667</ele><time>2026-04-25T09:08:06.946Z</time></trkpt><trkpt lat="44.3119969" lon="10.9172096"><ele>287.0</ele><time>2026-04-25T09:08:07.947Z</time></trkpt><trkpt lat="44.3119805" lon="10.9171174"><ele>287.4</ele><time>2026-04-25T09:08:08.946Z</time></trkpt><trkpt lat="44.3119599" lon="10.9170179"><ele>287.79999999999995</ele><time>2026-04-25T09:08:09.947Z</time></trkpt><trkpt lat="44.3119376" lon="10.9169078"><ele>288.2</ele><time>2026-04-25T09:08:10.946Z</time></trkpt><trkpt lat="44.3119166" lon="10.9167822"><ele>288.59999999999997</ele><time>2026-04-25T09:08:11.947Z</time></trkpt><trkpt lat="44.3118953" lon="10.9166312"><ele>289.0</ele><time>2026-04-25T09:08:12.947Z</time></trkpt><trkpt lat="44.3118744" lon="10.9164652"><ele>289.16666666666663</ele><time>2026-04-25T09:08:13.947Z</time></trkpt><trkpt lat="44.311869" lon="10.9163293"><ele>289.3333333333333</ele><time>2026-04-25T09:08:14.945Z</time></trkpt><trkpt lat="44.3118639" lon="10.9161866"><ele>289.5</ele><time>2026-04-25T09:08:15.947Z</time></trkpt><trkpt lat="44.3118392" lon="10.916097"><ele>289.6666666666667</ele><time>2026-04-25T09:08:16.947Z</time></trkpt><trkpt lat="44.3117951" lon="10.9159963"><ele>289.83333333333337</ele><time>2026-04-25T09:08:17.947Z</time></trkpt><trkpt lat="44.3117406" lon="10.9159335"><ele>290.0</ele><time>2026-04-25T09:08:18.946Z</time></trkpt><trkpt lat="44.3116653" lon="10.9158718"><ele>290.0</ele><time>2026-04-25T09:08:19.946Z</time></trkpt><trkpt lat="44.3115843" lon="10.9158376"><ele>290.0</ele><time>2026-04-25T09:08:20.947Z</time></trkpt><trkpt lat="44.3114959" lon="10.9158145"><ele>290.0</ele><time>2026-04-25T09:08:21.947Z</time></trkpt><trkpt lat="44.3114171" lon="10.9157855"><ele>290.0</ele><time>2026-04-25T09:08:22.947Z</time></trkpt><trkpt lat="44.3113581" lon="10.9156713"><ele>290.0</ele><time>2026-04-25T09:08:23.947Z</time></trkpt><trkpt lat="44.3112959" lon="10.9155875"><ele>290.0</ele><time>2026-04-25T09:08:24.946Z</time></trkpt><trkpt lat="44.3112081" lon="10.9155004"><ele>291.5</ele><time>2026-04-25T09:08:25.947Z</time></trkpt><trkpt lat="44.3111208" lon="10.9154142"><ele>293.0</ele><time>2026-04-25T09:08:26.947Z</time></trkpt><trkpt lat="44.3110482" lon="10.9153675"><ele>294.5</ele><time>2026-04-25T09:08:27.946Z</time></trkpt><trkpt lat="44.310996" lon="10.9152999"><ele>296.0</ele><time>2026-04-25T09:08:28.947Z</time></trkpt><trkpt lat="44.3109373" lon="10.9152403"><ele>297.5</ele><time>2026-04-25T09:08:29.946Z</time></trkpt><trkpt lat="44.3108814" lon="10.9151739"><ele>299.0</ele><time>2026-04-25T09:08:30.947Z</time></trkpt><trkpt lat="44.3108123" lon="10.9151368"><ele>299.0</ele><time>2026-04-25T09:08:31.946Z</time></trkpt><trkpt lat="44.3107402" lon="10.9150928"><ele>299.0</ele><time>2026-04-25T09:08:32.946Z</time></trkpt><trkpt lat="44.3106744" lon="10.9150887"><ele>299.0</ele><time>2026-04-25T09:08:33.946Z</time></trkpt><trkpt lat="44.3106102" lon="10.9150681"><ele>299.0</ele><time>2026-04-25T09:08:34.946Z</time></trkpt><trkpt lat="44.3105262" lon="10.9150686"><ele>299.0</ele><time>2026-04-25T09:08:35.946Z</time></trkpt><trkpt lat="44.3104326" lon="10.9150472"><ele>299.0</ele><time>2026-04-25T09:08:36.947Z</time></trkpt><trkpt lat="44.3103468" lon="10.9150145"><ele>299.1666666666667</ele><time>2026-04-25T09:08:37.946Z</time></trkpt><trkpt lat="44.3102806" lon="10.9149901"><ele>299.33333333333337</ele><time>2026-04-25T09:08:38.947Z</time></trkpt><trkpt lat="44.3101762" lon="10.9149258"><ele>299.5</ele><time>2026-04-25T09:08:40.947Z</time></trkpt><trkpt lat="44.3100907" lon="10.914873"><ele>299.6666666666667</ele><time>2026-04-25T09:08:51.946Z</time></trkpt><trkpt lat="44.3100229" lon="10.9148596"><ele>299.8333333333333</ele><time>2026-04-25T09:08:53.947Z</time></trkpt><trkpt lat="44.3099424" lon="10.9148586"><ele>300.0</ele><time>2026-04-25T09:08:57.947Z</time></trkpt><trkpt lat="44.3099043" lon="10.9149564"><ele>300.0</ele><time>2026-04-25T09:09:01.947Z</time></trkpt><trkpt lat="44.3099122" lon="10.9150688"><ele>300.0</ele><time>2026-04-25T09:09:04.946Z</time></trkpt><trkpt lat="44.3098524" lon="10.9151431"><ele>300.0</ele><time>2026-04-25T09:09:07.945Z</time></trkpt><trkpt lat="44.3097918" lon="10.9152516"><ele>300.0</ele><time>2026-04-25T09:09:10.947Z</time></trkpt><trkpt lat="44.3097533" lon="10.9153674"><ele>300.0</ele><time>2026-04-25T09:09:12.947Z</time></trkpt><trkpt lat="44.3097175" lon="10.9155142"><ele>306.1666666666667</ele><time>2026-04-25T09:09:14.945Z</time></trkpt><trkpt lat="44.3096783" lon="10.9156326"><ele>312.3333333333333</ele><time>2026-04-25T09:09:16.946Z</time></trkpt><trkpt lat="44.3096394" lon="10.9157476"><ele>318.5</ele><time>2026-04-25T09:09:18.947Z</time></trkpt><trkpt lat="44.309614" lon="10.9158797"><ele>324.66666666666663</ele><time>2026-04-25T09:09:20.947Z</time></trkpt><trkpt lat="44.3095882" lon="10.9160131"><ele>330.8333333333333</ele><time>2026-04-25T09:09:22.947Z</time></trkpt><trkpt lat="44.3095735" lon="10.9161024"><ele>337.0</ele><time>2026-04-25T09:09:23.946Z</time></trkpt><trkpt lat="44.3095526" lon="10.9161867"><ele>337.00000000000006</ele><time>2026-04-25T09:09:24.947Z</time></trkpt><trkpt lat="44.3095346" lon="10.9162837"><ele>337.0</ele><time>2026-04-25T09:09:25.947Z</time></trkpt><trkpt lat="44.3094933" lon="10.916396"><ele>337.0</ele><time>2026-04-25T09:09:27.947Z</time></trkpt><trkpt lat="44.3094667" lon="10.916479"><ele>337.0</ele><time>2026-04-25T09:09:29.947Z</time></trkpt><trkpt lat="44.309439" lon="10.91658"><ele>337.0</ele><time>2026-04-25T09:09:34.946Z</time></trkpt><trkpt lat="44.3094244" lon="10.9166751"><ele>337.00000000000006</ele><time>2026-04-25T09:09:36.945Z</time></trkpt><trkpt lat="44.3094085" lon="10.9167732"><ele>337.0</ele><time>2026-04-25T09:09:38.947Z</time></trkpt><trkpt lat="44.3093904" lon="10.9168875"><ele>337.16666666666663</ele><time>2026-04-25T09:09:41.947Z</time></trkpt><trkpt lat="44.3094456" lon="10.9170244"><ele>337.3333333333333</ele><time>2026-04-25T09:09:44.947Z</time></trkpt><trkpt lat="44.3094696" lon="10.9171354"><ele>337.5</ele><time>2026-04-25T09:09:46.947Z</time></trkpt><trkpt lat="44.3095279" lon="10.9171985"><ele>337.6666666666667</ele><time>2026-04-25T09:10:01.945Z</time></trkpt><trkpt lat="44.3095486" lon="10.9172994"><ele>337.83333333333337</ele><time>2026-04-25T09:10:04.946Z</time></trkpt><trkpt lat="44.3096165" lon="10.9173505"><ele>338.0</ele><time>2026-04-25T09:10:07.946Z</time></trkpt><trkpt lat="44.309651" lon="10.9174486"><ele>338.0</ele><time>2026-04-25T09:10:09.946Z</time></trkpt><trkpt lat="44.3096771" lon="10.917539"><ele>338.0</ele><time>2026-04-25T09:10:11.946Z</time></trkpt><trkpt lat="44.3096838" lon="10.9176408"><ele>338.0</ele><time>2026-04-25T09:10:13.947Z</time></trkpt><trkpt lat="44.3096683" lon="10.917771"><ele>338.0</ele><time>2026-04-25T09:10:16.986Z</time></trkpt><trkpt lat="44.3096848" lon="10.9179152"><ele>338.0</ele><time>2026-04-25T09:10:18.945Z</time></trkpt><trkpt lat="44.3096947" lon="10.9180224"><ele>338.0</ele><time>2026-04-25T09:10:20.945Z</time></trkpt><trkpt lat="44.3096624" lon="10.9181088"><ele>339.1666666666667</ele><time>2026-04-25T09:10:22.947Z</time></trkpt><trkpt lat="44.3096298" lon="10.9182179"><ele>340.33333333333337</ele><time>2026-04-25T09:10:24.946Z</time></trkpt><trkpt lat="44.309601" lon="10.9183444"><ele>341.5</ele><time>2026-04-25T09:10:26.947Z</time></trkpt><trkpt lat="44.3095604" lon="10.9184488"><ele>342.6666666666667</ele><time>2026-04-25T09:10:28.946Z</time></trkpt><trkpt lat="44.3094986" lon="10.918587"><ele>343.8333333333333</ele><time>2026-04-25T09:10:30.946Z</time></trkpt><trkpt lat="44.309466" lon="10.9186686"><ele>345.0</ele><time>2026-04-25T09:10:31.947Z</time></trkpt><trkpt lat="44.3094141" lon="10.9187393"><ele>346.0</ele><time>2026-04-25T09:10:32.947Z</time></trkpt><trkpt lat="44.3093576" lon="10.9188285"><ele>347.0</ele><time>2026-04-25T09:10:33.947Z</time></trkpt><trkpt lat="44.3092994" lon="10.9189"><ele>348.0</ele><time>2026-04-25T09:10:34.947Z</time></trkpt><trkpt lat="44.3092483" lon="10.9189698"><ele>349.0</ele><time>2026-04-25T09:10:35.946Z</time></trkpt><trkpt lat="44.3092078" lon="10.9190488"><ele>350.0</ele><time>2026-04-25T09:10:36.947Z</time></trkpt><trkpt lat="44.3091602" lon="10.9191585"><ele>351.0</ele><time>2026-04-25T09:10:38.947Z</time></trkpt><trkpt lat="44.309096" lon="10.9192031"><ele>351.0</ele><time>2026-04-25T09:10:40.947Z</time></trkpt><trkpt lat="44.3090214" lon="10.9191639"><ele>351.0</ele><time>2026-04-25T09:10:41.947Z</time></trkpt><trkpt lat="44.3088986" lon="10.9191323"><ele>351.0</ele><time>2026-04-25T09:10:43.946Z</time></trkpt><trkpt lat="44.3088254" lon="10.9191309"><ele>351.0</ele><time>2026-04-25T09:10:44.946Z</time></trkpt><trkpt lat="44.3087303" lon="10.919107"><ele>351.0</ele><time>2026-04-25T09:10:46.946Z</time></trkpt><trkpt lat="44.30861" lon="10.919101"><ele>353.5</ele><time>2026-04-25T09:10:48.947Z</time></trkpt><trkpt lat="44.3085329" lon="10.9191553"><ele>356.0</ele><time>2026-04-25T09:10:50.946Z</time></trkpt><trkpt lat="44.3084636" lon="10.9192451"><ele>358.5</ele><time>2026-04-25T09:10:52.947Z</time></trkpt><trkpt lat="44.308424" lon="10.9193211"><ele>361.0</ele><time>2026-04-25T09:10:53.947Z</time></trkpt><trkpt lat="44.3083798" lon="10.9193982"><ele>363.5</ele><time>2026-04-25T09:10:54.945Z</time></trkpt><trkpt lat="44.3083311" lon="10.9194913"><ele>366.0</ele><time>2026-04-25T09:10:55.946Z</time></trkpt><trkpt lat="44.3082858" lon="10.9195596"><ele>366.5</ele><time>2026-04-25T09:10:56.947Z</time></trkpt><trkpt lat="44.3082261" lon="10.9196448"><ele>367.0</ele><time>2026-04-25T09:10:57.947Z</time></trkpt><trkpt lat="44.3081806" lon="10.9197141"><ele>367.5</ele><time>2026-04-25T09:10:58.946Z</time></trkpt><trkpt lat="44.3081094" lon="10.9198661"><ele>368.0</ele><time>2026-04-25T09:11:00.947Z</time></trkpt><trkpt lat="44.308067" lon="10.9199613"><ele>368.5</ele><time>2026-04-25T09:11:01.947Z</time></trkpt><trkpt lat="44.3080192" lon="10.9200542"><ele>369.0</ele><time>2026-04-25T09:11:02.946Z</time></trkpt><trkpt lat="44.3079563" lon="10.9201556"><ele>372.0</ele><time>2026-04-25T09:11:03.947Z</time></trkpt><trkpt lat="44.3079029" lon="10.920241"><ele>375.0</ele><time>2026-04-25T09:11:04.946Z</time></trkpt><trkpt lat="44.3078526" lon="10.9203237"><ele>378.0</ele><time>2026-04-25T09:11:05.947Z</time></trkpt><trkpt lat="44.3077396" lon="10.9204163"><ele>381.0</ele><time>2026-04-25T09:11:07.946Z</time></trkpt><trkpt lat="44.3076789" lon="10.9204454"><ele>384.0</ele><time>2026-04-25T09:11:08.946Z</time></trkpt><trkpt lat="44.3076069" lon="10.9204694"><ele>387.0</ele><time>2026-04-25T09:11:09.946Z</time></trkpt><trkpt lat="44.3075487" lon="10.9205189"><ele>387.0</ele><time>2026-04-25T09:11:10.946Z</time></trkpt><trkpt lat="44.3074809" lon="10.9206346"><ele>387.0</ele><time>2026-04-25T09:11:12.946Z</time></trkpt><trkpt lat="44.3074362" lon="10.9207775"><ele>387.0</ele><time>2026-04-25T09:11:14.946Z</time></trkpt><trkpt lat="44.3074243" lon="10.9208768"><ele>387.0</ele><time>2026-04-25T09:11:15.947Z</time></trkpt><trkpt lat="44.3074049" lon="10.9209757"><ele>387.0</ele><time>2026-04-25T09:11:16.947Z</time></trkpt><trkpt lat="44.3073938" lon="10.9210668"><ele>387.0</ele><time>2026-04-25T09:11:17.946Z</time></trkpt><trkpt lat="44.3074165" lon="10.9212288"><ele>389.0</ele><time>2026-04-25T09:11:19.947Z</time></trkpt><trkpt lat="44.3074601" lon="10.9213506"><ele>391.0</ele><time>2026-04-25T09:11:21.947Z</time></trkpt><trkpt lat="44.3075317" lon="10.921426"><ele>393.0</ele><time>2026-04-25T09:11:23.946Z</time></trkpt><trkpt lat="44.3075568" lon="10.9215183"><ele>395.0</ele><time>2026-04-25T09:11:25.947Z</time></trkpt><trkpt lat="44.3075336" lon="10.9216268"><ele>397.0</ele><time>2026-04-25T09:11:27.947Z</time></trkpt><trkpt lat="44.3075364" lon="10.9217513"><ele>399.0</ele><time>2026-04-25T09:11:29.947Z</time></trkpt><trkpt lat="44.3075659" lon="10.9218634"><ele>402.0</ele><time>2026-04-25T09:11:31.947Z</time></trkpt><trkpt lat="44.307592" lon="10.9219649"><ele>405.0</ele><time>2026-04-25T09:11:33.946Z</time></trkpt><trkpt lat="44.3076217" lon="10.9220736"><ele>408.0</ele><time>2026-04-25T09:11:35.946Z</time></trkpt><trkpt lat="44.3076683" lon="10.9221758"><ele>411.0</ele><time>2026-04-25T09:11:37.946Z</time></trkpt><trkpt lat="44.3077264" lon="10.9222826"><ele>414.0</ele><time>2026-04-25T09:11:39.947Z</time></trkpt><trkpt lat="44.3077751" lon="10.9223551"><ele>417.0</ele><time>2026-04-25T09:11:40.946Z</time></trkpt><trkpt lat="44.3078241" lon="10.9224106"><ele>417.0</ele><time>2026-04-25T09:11:41.945Z</time></trkpt><trkpt lat="44.3079073" lon="10.9224724"><ele>417.0</ele><time>2026-04-25T09:11:42.947Z</time></trkpt><trkpt lat="44.3079654" lon="10.9225205"><ele>417.0</ele><time>2026-04-25T09:11:43.946Z</time></trkpt><trkpt lat="44.3080316" lon="10.9225676"><ele>417.0</ele><time>2026-04-25T09:11:44.947Z</time></trkpt><trkpt lat="44.3080885" lon="10.9226338"><ele>417.0</ele><time>2026-04-25T09:11:45.946Z</time></trkpt><trkpt lat="44.3081392" lon="10.9227844"><ele>417.0</ele><time>2026-04-25T09:11:47.946Z</time></trkpt><trkpt lat="44.3081904" lon="10.9228759"><ele>418.0</ele><time>2026-04-25T09:11:48.946Z</time></trkpt><trkpt lat="44.3082491" lon="10.9229659"><ele>419.0</ele><time>2026-04-25T09:11:49.947Z</time></trkpt><trkpt lat="44.3083018" lon="10.9230353"><ele>420.0</ele><time>2026-04-25T09:11:50.947Z</time></trkpt><trkpt lat="44.3083419" lon="10.9231106"><ele>421.0</ele><time>2026-04-25T09:11:52.946Z</time></trkpt><trkpt lat="44.3083028" lon="10.9232259"><ele>422.0</ele><time>2026-04-25T09:11:54.945Z</time></trkpt><trkpt lat="44.3082669" lon="10.923313"><ele>423.0</ele><time>2026-04-25T09:11:56.945Z</time></trkpt><trkpt lat="44.3082254" lon="10.9234218"><ele>423.4</ele><time>2026-04-25T09:11:58.945Z</time></trkpt><trkpt lat="44.3081727" lon="10.9235332"><ele>423.79999999999995</ele><time>2026-04-25T09:12:00.946Z</time></trkpt><trkpt lat="44.3081006" lon="10.923634"><ele>424.2</ele><time>2026-04-25T09:12:02.947Z</time></trkpt><trkpt lat="44.308038" lon="10.9237478"><ele>424.6</ele><time>2026-04-25T09:12:04.947Z</time></trkpt><trkpt lat="44.3079748" lon="10.9238589"><ele>425.0</ele><time>2026-04-25T09:12:06.946Z</time></trkpt><trkpt lat="44.3079077" lon="10.9239668"><ele>430.2</ele><time>2026-04-25T09:12:08.946Z</time></trkpt><trkpt lat="44.3078211" lon="10.9240351"><ele>435.4</ele><time>2026-04-25T09:12:10.947Z</time></trkpt><trkpt lat="44.3077313" lon="10.924017"><ele>440.6</ele><time>2026-04-25T09:12:12.947Z</time></trkpt><trkpt lat="44.3076466" lon="10.9239497"><ele>445.8</ele><time>2026-04-25T09:12:14.947Z</time></trkpt><trkpt lat="44.3075664" lon="10.9238862"><ele>451.0</ele><time>2026-04-25T09:12:16.947Z</time></trkpt><trkpt lat="44.3074794" lon="10.9238454"><ele>451.00000000000006</ele><time>2026-04-25T09:12:18.946Z</time></trkpt><trkpt lat="44.3073902" lon="10.9238375"><ele>451.0</ele><time>2026-04-25T09:12:20.947Z</time></trkpt><trkpt lat="44.3073147" lon="10.9238903"><ele>451.0</ele><time>2026-04-25T09:12:22.947Z</time></trkpt><trkpt lat="44.307267" lon="10.9239658"><ele>451.0</ele><time>2026-04-25T09:12:24.946Z</time></trkpt><trkpt lat="44.3072354" lon="10.9240717"><ele>451.00000000000006</ele><time>2026-04-25T09:12:26.947Z</time></trkpt><trkpt lat="44.3071741" lon="10.9242044"><ele>451.0</ele><time>2026-04-25T09:12:28.946Z</time></trkpt><trkpt lat="44.3070778" lon="10.9243152"><ele>456.4</ele><time>2026-04-25T09:12:30.947Z</time></trkpt><trkpt lat="44.3070254" lon="10.9243643"><ele>461.8</ele><time>2026-04-25T09:12:31.946Z</time></trkpt><trkpt lat="44.3069412" lon="10.9244723"><ele>467.19999999999993</ele><time>2026-04-25T09:12:33.946Z</time></trkpt><trkpt lat="44.3068592" lon="10.9245959"><ele>472.59999999999997</ele><time>2026-04-25T09:12:35.947Z</time></trkpt><trkpt lat="44.3067768" lon="10.924724"><ele>478.0</ele><time>2026-04-25T09:12:37.946Z</time></trkpt><trkpt lat="44.3067074" lon="10.9248659"><ele>478.00000000000006</ele><time>2026-04-25T09:12:39.947Z</time></trkpt><trkpt lat="44.3066713" lon="10.9249449"><ele>478.0</ele><time>2026-04-25T09:12:40.946Z</time></trkpt><trkpt lat="44.306574" lon="10.9250503"><ele>478.0</ele><time>2026-04-25T09:12:42.946Z</time></trkpt><trkpt lat="44.3065026" lon="10.9250918"><ele>478.0</ele><time>2026-04-25T09:12:43.947Z</time></trkpt><trkpt lat="44.3064422" lon="10.9251373"><ele>478.00000000000006</ele><time>2026-04-25T09:12:44.947Z</time></trkpt><trkpt lat="44.3063825" lon="10.9251726"><ele>478.0</ele><time>2026-04-25T09:12:45.947Z</time></trkpt><trkpt lat="44.3062908" lon="10.925243"><ele>483.5</ele><time>2026-04-25T09:12:47.946Z</time></trkpt><trkpt lat="44.306196" lon="10.9253356"><ele>489.0</ele><time>2026-04-25T09:12:49.946Z</time></trkpt><trkpt lat="44.3061276" lon="10.9254772"><ele>494.5</ele><time>2026-04-25T09:12:51.947Z</time></trkpt><trkpt lat="44.3060571" lon="10.9255953"><ele>500.0</ele><time>2026-04-25T09:12:53.947Z</time></trkpt><trkpt lat="44.30599" lon="10.9257124"><ele>500.0</ele><time>2026-04-25T09:12:55.947Z</time></trkpt><trkpt lat="44.3059424" lon="10.9258233"><ele>500.0</ele><time>2026-04-25T09:12:57.947Z</time></trkpt><trkpt lat="44.3058779" lon="10.9259344"><ele>500.0</ele><time>2026-04-25T09:12:59.946Z</time></trkpt><trkpt lat="44.3057981" lon="10.9260333"><ele>500.0</ele><time>2026-04-25T09:13:01.946Z</time></trkpt><trkpt lat="44.3056976" lon="10.9261071"><ele>500.0</ele><time>2026-04-25T09:13:03.947Z</time></trkpt><trkpt lat="44.3056228" lon="10.9261844"><ele>505.8</ele><time>2026-04-25T09:13:05.945Z</time></trkpt><trkpt lat="44.3055718" lon="10.926333"><ele>511.6</ele><time>2026-04-25T09:13:07.947Z</time></trkpt><trkpt lat="44.3055247" lon="10.9264574"><ele>517.4</ele><time>2026-04-25T09:13:09.945Z</time></trkpt><trkpt lat="44.3054633" lon="10.9265404"><ele>523.2</ele><time>2026-04-25T09:13:11.946Z</time></trkpt><trkpt lat="44.3053921" lon="10.9265896"><ele>529.0</ele><time>2026-04-25T09:13:13.946Z</time></trkpt><trkpt lat="44.3053184" lon="10.9266457"><ele>529.0</ele><time>2026-04-25T09:13:15.946Z</time></trkpt><trkpt lat="44.3052539" lon="10.926713"><ele>529.0</ele><time>2026-04-25T09:13:18.946Z</time></trkpt><trkpt lat="44.3052261" lon="10.926799"><ele>529.0</ele><time>2026-04-25T09:14:35.946Z</time></trkpt><trkpt lat="44.3051665" lon="10.9268498"><ele>529.0</ele><time>2026-04-25T09:14:39.947Z</time></trkpt><trkpt lat="44.3051115" lon="10.9269366"><ele>529.0</ele><time>2026-04-25T09:15:10.946Z</time></trkpt><trkpt lat="44.3050592" lon="10.927045"><ele>529.0</ele><time>2026-04-25T09:15:13.944Z</time></trkpt><trkpt lat="44.3050303" lon="10.9271477"><ele>529.4285714285714</ele><time>2026-04-25T09:15:15.989Z</time></trkpt><trkpt lat="44.3050006" lon="10.9272261"><ele>529.8571428571429</ele><time>2026-04-25T09:15:17.946Z</time></trkpt><trkpt lat="44.3049758" lon="10.9273085"><ele>530.2857142857142</ele><time>2026-04-25T09:15:19.946Z</time></trkpt><trkpt lat="44.3049327" lon="10.9274121"><ele>530.7142857142858</ele><time>2026-04-25T09:15:22.878Z</time></trkpt><trkpt lat="44.3049127" lon="10.9275256"><ele>531.1428571428571</ele><time>2026-04-25T09:15:37.945Z</time></trkpt><trkpt lat="44.3048701" lon="10.9276133"><ele>531.5714285714286</ele><time>2026-04-25T09:15:40.956Z</time></trkpt><trkpt lat="44.3048148" lon="10.92767"><ele>532.0</ele><time>2026-04-25T09:15:43.944Z</time></trkpt><trkpt lat="44.304745" lon="10.9276922"><ele>537.2</ele><time>2026-04-25T09:15:46.945Z</time></trkpt><trkpt lat="44.3046956" lon="10.9276223"><ele>542.4000000000001</ele><time>2026-04-25T09:15:49.946Z</time></trkpt><trkpt lat="44.304595" lon="10.9275899"><ele>547.5999999999999</ele><time>2026-04-25T09:15:52.946Z</time></trkpt><trkpt lat="44.3044886" lon="10.9275946"><ele>552.8</ele><time>2026-04-25T09:15:54.946Z</time></trkpt><trkpt lat="44.3043966" lon="10.927575"><ele>558.0</ele><time>2026-04-25T09:15:56.945Z</time></trkpt><trkpt lat="44.3043197" lon="10.9275565"><ele>558.0</ele><time>2026-04-25T09:15:59.946Z</time></trkpt><trkpt lat="44.3042582" lon="10.9274786"><ele>558.0</ele><time>2026-04-25T09:18:02.945Z</time></trkpt><trkpt lat="44.3042284" lon="10.9273928"><ele>558.0</ele><time>2026-04-25T09:18:03.945Z</time></trkpt><trkpt lat="44.3042027" lon="10.9273075"><ele>558.0</ele><time>2026-04-25T09:18:04.944Z</time></trkpt><trkpt lat="44.3041894" lon="10.9271842"><ele>558.0</ele><time>2026-04-25T09:18:06.946Z</time></trkpt><trkpt lat="44.3041933" lon="10.9270801"><ele>558.0</ele><time>2026-04-25T09:18:08.946Z</time></trkpt><trkpt lat="44.3041968" lon="10.9269646"><ele>558.0</ele><time>2026-04-25T09:18:10.946Z</time></trkpt><trkpt lat="44.3041708" lon="10.9268525"><ele>558.0</ele><time>2026-04-25T09:18:12.945Z</time></trkpt><trkpt lat="44.3041456" lon="10.926729"><ele>558.0</ele><time>2026-04-25T09:18:14.945Z</time></trkpt><trkpt lat="44.3041269" lon="10.9265676"><ele>558.0</ele><time>2026-04-25T09:18:16.946Z</time></trkpt><trkpt lat="44.3041159" lon="10.9264781"><ele>558.0</ele><time>2026-04-25T09:18:17.946Z</time></trkpt><trkpt lat="44.3040943" lon="10.9263141"><ele>557.8333333333334</ele><time>2026-04-25T09:18:19.945Z</time></trkpt><trkpt lat="44.3040632" lon="10.926161"><ele>557.6666666666666</ele><time>2026-04-25T09:18:21.945Z</time></trkpt><trkpt lat="44.3040395" lon="10.9260764"><ele>557.5</ele><time>2026-04-25T09:18:22.946Z</time></trkpt><trkpt lat="44.3040209" lon="10.9259749"><ele>557.3333333333333</ele><time>2026-04-25T09:18:23.946Z</time></trkpt><trkpt lat="44.3040045" lon="10.9258837"><ele>557.1666666666666</ele><time>2026-04-25T09:18:24.944Z</time></trkpt><trkpt lat="44.3039494" lon="10.9257367"><ele>557.0</ele><time>2026-04-25T09:18:26.946Z</time></trkpt><trkpt lat="44.3039118" lon="10.9256656"><ele>560.3333333333333</ele><time>2026-04-25T09:18:27.946Z</time></trkpt><trkpt lat="44.3038611" lon="10.9255867"><ele>563.6666666666666</ele><time>2026-04-25T09:18:28.946Z</time></trkpt><trkpt lat="44.303807" lon="10.9254968"><ele>567.0</ele><time>2026-04-25T09:18:29.946Z</time></trkpt><trkpt lat="44.3037481" lon="10.9254113"><ele>570.3333333333334</ele><time>2026-04-25T09:18:30.946Z</time></trkpt><trkpt lat="44.3036959" lon="10.9253347"><ele>573.6666666666667</ele><time>2026-04-25T09:18:31.945Z</time></trkpt><trkpt lat="44.3036368" lon="10.9252364"><ele>577.0</ele><time>2026-04-25T09:18:33.945Z</time></trkpt><trkpt lat="44.303572" lon="10.9251395"><ele>576.5</ele><time>2026-04-25T09:18:35.945Z</time></trkpt><trkpt lat="44.3035001" lon="10.9250361"><ele>576.0</ele><time>2026-04-25T09:18:37.945Z</time></trkpt><trkpt lat="44.3034399" lon="10.9249851"><ele>575.5</ele><time>2026-04-25T09:18:39.945Z</time></trkpt><trkpt lat="44.3033714" lon="10.924918"><ele>575.0</ele><time>2026-04-25T09:18:41.946Z</time></trkpt><trkpt lat="44.3032967" lon="10.9247903"><ele>574.5</ele><time>2026-04-25T09:18:43.946Z</time></trkpt><trkpt lat="44.3032623" lon="10.9247008"><ele>574.0</ele><time>2026-04-25T09:18:44.945Z</time></trkpt><trkpt lat="44.3032002" lon="10.9246117"><ele>574.0</ele><time>2026-04-25T09:18:45.946Z</time></trkpt><trkpt lat="44.3031394" lon="10.9245222"><ele>574.0</ele><time>2026-04-25T09:18:46.945Z</time></trkpt><trkpt lat="44.3030767" lon="10.9243443"><ele>574.0</ele><time>2026-04-25T09:18:48.946Z</time></trkpt><trkpt lat="44.3030054" lon="10.9242497"><ele>574.0</ele><time>2026-04-25T09:18:49.946Z</time></trkpt><trkpt lat="44.3029608" lon="10.9241386"><ele>574.0</ele><time>2026-04-25T09:18:50.946Z</time></trkpt><trkpt lat="44.3028949" lon="10.9240533"><ele>577.6666666666667</ele><time>2026-04-25T09:18:51.946Z</time></trkpt><trkpt lat="44.3028322" lon="10.9239976"><ele>581.3333333333334</ele><time>2026-04-25T09:18:52.945Z</time></trkpt><trkpt lat="44.30276" lon="10.9239707"><ele>585.0</ele><time>2026-04-25T09:18:53.945Z</time></trkpt><trkpt lat="44.3026984" lon="10.923931"><ele>588.6666666666666</ele><time>2026-04-25T09:18:54.946Z</time></trkpt><trkpt lat="44.302611" lon="10.9237915"><ele>592.3333333333333</ele><time>2026-04-25T09:18:56.945Z</time></trkpt><trkpt lat="44.3025644" lon="10.9237142"><ele>596.0</ele><time>2026-04-25T09:18:57.945Z</time></trkpt><trkpt lat="44.3025" lon="10.9236465"><ele>596.0</ele><time>2026-04-25T09:18:58.946Z</time></trkpt><trkpt lat="44.302434" lon="10.9235858"><ele>596.0</ele><time>2026-04-25T09:18:59.946Z</time></trkpt><trkpt lat="44.3023811" lon="10.9234168"><ele>596.0</ele><time>2026-04-25T09:19:01.946Z</time></trkpt><trkpt lat="44.3023393" lon="10.9233147"><ele>596.0</ele><time>2026-04-25T09:19:02.946Z</time></trkpt><trkpt lat="44.3022968" lon="10.9232277"><ele>596.0</ele><time>2026-04-25T09:19:03.945Z</time></trkpt><trkpt lat="44.3022557" lon="10.9231571"><ele>596.0</ele><time>2026-04-25T09:19:04.945Z</time></trkpt><trkpt lat="44.302246" lon="10.9230627"><ele>601.6</ele><time>2026-04-25T09:19:05.945Z</time></trkpt><trkpt lat="44.3022123" lon="10.9229817"><ele>607.2</ele><time>2026-04-25T09:19:06.946Z</time></trkpt><trkpt lat="44.3021552" lon="10.9228164"><ele>612.8</ele><time>2026-04-25T09:19:08.945Z</time></trkpt><trkpt lat="44.3020983" lon="10.9226672"><ele>618.4</ele><time>2026-04-25T09:19:10.946Z</time></trkpt><trkpt lat="44.3020402" lon="10.9225085"><ele>624.0</ele><time>2026-04-25T09:19:12.945Z</time></trkpt><trkpt lat="44.3020195" lon="10.922402"><ele>624.0</ele><time>2026-04-25T09:19:13.946Z</time></trkpt><trkpt lat="44.3020015" lon="10.922288"><ele>624.0</ele><time>2026-04-25T09:19:14.945Z</time></trkpt><trkpt lat="44.3019798" lon="10.9221925"><ele>624.0</ele><time>2026-04-25T09:19:15.945Z</time></trkpt><trkpt lat="44.3019376" lon="10.9220993"><ele>624.0</ele><time>2026-04-25T09:19:16.946Z</time></trkpt><trkpt lat="44.3019014" lon="10.9220135"><ele>624.0</ele><time>2026-04-25T09:19:17.946Z</time></trkpt><trkpt lat="44.3018652" lon="10.9219382"><ele>624.0</ele><time>2026-04-25T09:19:18.945Z</time></trkpt><trkpt lat="44.3018219" lon="10.9218621"><ele>624.0</ele><time>2026-04-25T09:19:20.945Z</time></trkpt><trkpt lat="44.301809" lon="10.9217599"><ele>624.2</ele><time>2026-04-25T09:19:36.945Z</time></trkpt><trkpt lat="44.3018309" lon="10.9216757"><ele>624.4</ele><time>2026-04-25T09:19:37.944Z</time></trkpt><trkpt lat="44.3018486" lon="10.9215182"><ele>624.6</ele><time>2026-04-25T09:19:39.945Z</time></trkpt><trkpt lat="44.301853" lon="10.9213657"><ele>624.8</ele><time>2026-04-25T09:19:40.946Z</time></trkpt><trkpt lat="44.3018617" lon="10.9212408"><ele>625.0</ele><time>2026-04-25T09:19:41.946Z</time></trkpt><trkpt lat="44.3018753" lon="10.9211353"><ele>625.0</ele><time>2026-04-25T09:19:42.946Z</time></trkpt><trkpt lat="44.3018699" lon="10.9209466"><ele>625.0</ele><time>2026-04-25T09:19:44.945Z</time></trkpt><trkpt lat="44.3018029" lon="10.9209505"><ele>625.0</ele><time>2026-04-25T09:19:45.946Z</time></trkpt><trkpt lat="44.3017189" lon="10.9208838"><ele>625.0</ele><time>2026-04-25T09:19:47.946Z</time></trkpt><trkpt lat="44.3016259" lon="10.9207846"><ele>625.0</ele><time>2026-04-25T09:19:49.946Z</time></trkpt><trkpt lat="44.3015614" lon="10.9207396"><ele>625.0</ele><time>2026-04-25T09:19:50.944Z</time></trkpt><trkpt lat="44.3014645" lon="10.920723"><ele>625.0</ele><time>2026-04-25T09:19:52.945Z</time></trkpt><trkpt lat="44.3013492" lon="10.9207362"><ele>625.0</ele><time>2026-04-25T09:19:54.945Z</time></trkpt><trkpt lat="44.3012801" lon="10.9207306"><ele>625.0</ele><time>2026-04-25T09:19:55.946Z</time></trkpt><trkpt lat="44.3011459" lon="10.9206948"><ele>625.0</ele><time>2026-04-25T09:19:57.946Z</time></trkpt><trkpt lat="44.3010668" lon="10.9206296"><ele>630.6</ele><time>2026-04-25T09:19:58.945Z</time></trkpt><trkpt lat="44.3009971" lon="10.9205754"><ele>636.2</ele><time>2026-04-25T09:19:59.946Z</time></trkpt><trkpt lat="44.3009471" lon="10.9204962"><ele>641.8</ele><time>2026-04-25T09:20:00.946Z</time></trkpt><trkpt lat="44.3008514" lon="10.9203689"><ele>647.4</ele><time>2026-04-25T09:20:02.945Z</time></trkpt><trkpt lat="44.3008223" lon="10.9202803"><ele>653.0</ele><time>2026-04-25T09:20:03.946Z</time></trkpt><trkpt lat="44.3007695" lon="10.920133"><ele>651.8</ele><time>2026-04-25T09:20:05.946Z</time></trkpt><trkpt lat="44.3006985" lon="10.9200108"><ele>650.5999999999999</ele><time>2026-04-25T09:20:07.946Z</time></trkpt><trkpt lat="44.3006138" lon="10.9199432"><ele>649.4000000000001</ele><time>2026-04-25T09:20:09.946Z</time></trkpt><trkpt lat="44.3005564" lon="10.9198988"><ele>648.2</ele><time>2026-04-25T09:20:10.946Z</time></trkpt><trkpt lat="44.3004516" lon="10.9198445"><ele>647.0</ele><time>2026-04-25T09:20:12.946Z</time></trkpt><trkpt lat="44.3003384" lon="10.9197619"><ele>651.8333333333333</ele><time>2026-04-25T09:20:14.946Z</time></trkpt><trkpt lat="44.3002658" lon="10.9196738"><ele>656.6666666666666</ele><time>2026-04-25T09:20:16.945Z</time></trkpt><trkpt lat="44.3002233" lon="10.9195826"><ele>661.5</ele><time>2026-04-25T09:20:18.944Z</time></trkpt><trkpt lat="44.3002154" lon="10.9194703"><ele>666.3333333333334</ele><time>2026-04-25T09:20:20.946Z</time></trkpt><trkpt lat="44.3002046" lon="10.9193559"><ele>671.1666666666667</ele><time>2026-04-25T09:20:22.946Z</time></trkpt><trkpt lat="44.3001859" lon="10.9192531"><ele>676.0</ele><time>2026-04-25T09:20:24.945Z</time></trkpt><trkpt lat="44.3001586" lon="10.9191716"><ele>676.0</ele><time>2026-04-25T09:20:26.945Z</time></trkpt><trkpt lat="44.3001276" lon="10.9190736"><ele>676.0</ele><time>2026-04-25T09:20:28.945Z</time></trkpt><trkpt lat="44.3000678" lon="10.919124"><ele>676.0</ele><time>2026-04-25T09:20:34.946Z</time></trkpt><trkpt lat="44.3000542" lon="10.9192343"><ele>676.0</ele><time>2026-04-25T09:20:36.946Z</time></trkpt><trkpt lat="44.3000544" lon="10.9193491"><ele>676.0</ele><time>2026-04-25T09:20:38.945Z</time></trkpt><trkpt lat="44.3000462" lon="10.9194808"><ele>676.0</ele><time>2026-04-25T09:20:39.945Z</time></trkpt><trkpt lat="44.3000411" lon="10.9195891"><ele>677.4</ele><time>2026-04-25T09:20:40.945Z</time></trkpt><trkpt lat="44.3000361" lon="10.9197049"><ele>678.8</ele><time>2026-04-25T09:20:41.944Z</time></trkpt><trkpt lat="44.300039" lon="10.91983"><ele>680.1999999999999</ele><time>2026-04-25T09:20:42.945Z</time></trkpt><trkpt lat="44.3001009" lon="10.9198789"><ele>681.5999999999999</ele><time>2026-04-25T09:20:43.945Z</time></trkpt><trkpt lat="44.3001461" lon="10.9200694"><ele>683.0</ele><time>2026-04-25T09:20:45.945Z</time></trkpt><trkpt lat="44.3001312" lon="10.9202345"><ele>683.8333333333333</ele><time>2026-04-25T09:20:47.946Z</time></trkpt><trkpt lat="44.300114" lon="10.9203258"><ele>684.6666666666666</ele><time>2026-04-25T09:20:48.945Z</time></trkpt><trkpt lat="44.3000721" lon="10.920429"><ele>685.5</ele><time>2026-04-25T09:20:50.946Z</time></trkpt><trkpt lat="44.3000218" lon="10.9204994"><ele>686.3333333333334</ele><time>2026-04-25T09:20:52.945Z</time></trkpt><trkpt lat="44.3000308" lon="10.9206046"><ele>687.1666666666667</ele><time>2026-04-25T09:20:54.946Z</time></trkpt><trkpt lat="44.3000556" lon="10.9207307"><ele>688.0</ele><time>2026-04-25T09:20:56.946Z</time></trkpt><trkpt lat="44.3000465" lon="10.9208392"><ele>688.1666666666667</ele><time>2026-04-25T09:20:58.945Z</time></trkpt><trkpt lat="44.3000472" lon="10.9210251"><ele>688.3333333333334</ele><time>2026-04-25T09:21:00.946Z</time></trkpt><trkpt lat="44.3000317" lon="10.9211184"><ele>688.5</ele><time>2026-04-25T09:21:01.946Z</time></trkpt><trkpt lat="44.3000013" lon="10.9211973"><ele>688.6666666666666</ele><time>2026-04-25T09:21:02.946Z</time></trkpt><trkpt lat="44.2999822" lon="10.9212916"><ele>688.8333333333333</ele><time>2026-04-25T09:21:03.944Z</time></trkpt><trkpt lat="44.2999615" lon="10.9213912"><ele>689.0</ele><time>2026-04-25T09:21:04.946Z</time></trkpt><trkpt lat="44.2999524" lon="10.921496"><ele>689.0</ele><time>2026-04-25T09:21:05.946Z</time></trkpt><trkpt lat="44.299943" lon="10.9215856"><ele>689.0</ele><time>2026-04-25T09:21:06.945Z</time></trkpt><trkpt lat="44.2999175" lon="10.9217034"><ele>689.0</ele><time>2026-04-25T09:21:08.945Z</time></trkpt><trkpt lat="44.2998248" lon="10.9217503"><ele>689.0</ele><time>2026-04-25T09:21:11.945Z</time></trkpt><trkpt lat="44.299749" lon="10.9217023"><ele>689.0</ele><time>2026-04-25T09:21:13.944Z</time></trkpt><trkpt lat="44.2996829" lon="10.9215533"><ele>694.0</ele><time>2026-04-25T09:21:16.945Z</time></trkpt><trkpt lat="44.299674" lon="10.921432"><ele>699.0</ele><time>2026-04-25T09:21:17.945Z</time></trkpt><trkpt lat="44.2996419" lon="10.9212935"><ele>704.0</ele><time>2026-04-25T09:21:18.946Z</time></trkpt><trkpt lat="44.299641" lon="10.9211583"><ele>709.0</ele><time>2026-04-25T09:21:19.945Z</time></trkpt><trkpt lat="44.2996555" lon="10.9210175"><ele>714.0</ele><time>2026-04-25T09:21:20.946Z</time></trkpt><trkpt lat="44.2996692" lon="10.9209261"><ele>713.6</ele><time>2026-04-25T09:21:21.946Z</time></trkpt><trkpt lat="44.2996243" lon="10.9208487"><ele>713.2</ele><time>2026-04-25T09:21:22.945Z</time></trkpt><trkpt lat="44.2995788" lon="10.9206729"><ele>712.8000000000001</ele><time>2026-04-25T09:21:24.945Z</time></trkpt><trkpt lat="44.2995341" lon="10.9205925"><ele>712.4000000000001</ele><time>2026-04-25T09:21:26.946Z</time></trkpt><trkpt lat="44.2994791" lon="10.9206608"><ele>712.0</ele><time>2026-04-25T09:21:30.946Z</time></trkpt><trkpt lat="44.2993986" lon="10.9208187"><ele>712.0</ele><time>2026-04-25T09:21:32.946Z</time></trkpt><trkpt lat="44.2993617" lon="10.9208965"><ele>712.0</ele><time>2026-04-25T09:21:33.945Z</time></trkpt><trkpt lat="44.2993178" lon="10.9209923"><ele>712.0</ele><time>2026-04-25T09:21:34.946Z</time></trkpt><trkpt lat="44.2992864" lon="10.9211108"><ele>712.0</ele><time>2026-04-25T09:21:35.945Z</time></trkpt><trkpt lat="44.2992438" lon="10.9211906"><ele>712.0</ele><time>2026-04-25T09:21:36.946Z</time></trkpt><trkpt lat="44.2992373" lon="10.9212996"><ele>712.0</ele><time>2026-04-25T09:21:37.945Z</time></trkpt><trkpt lat="44.2992289" lon="10.9213936"><ele>712.1666666666667</ele><time>2026-04-25T09:21:38.945Z</time></trkpt><trkpt lat="44.299227" lon="10.9214824"><ele>712.3333333333334</ele><time>2026-04-25T09:21:39.946Z</time></trkpt><trkpt lat="44.2992103" lon="10.9216275"><ele>712.5</ele><time>2026-04-25T09:21:41.946Z</time></trkpt><trkpt lat="44.2991329" lon="10.9216846"><ele>712.6666666666666</ele><time>2026-04-25T09:21:42.946Z</time></trkpt><trkpt lat="44.2991025" lon="10.9217654"><ele>712.8333333333333</ele><time>2026-04-25T09:21:43.945Z</time></trkpt><trkpt lat="44.2990395" lon="10.9217832"><ele>713.0</ele><time>2026-04-25T09:21:44.945Z</time></trkpt><trkpt lat="44.2989726" lon="10.9219289"><ele>713.0</ele><time>2026-04-25T09:21:46.946Z</time></trkpt><trkpt lat="44.298938" lon="10.9220048"><ele>713.0</ele><time>2026-04-25T09:21:47.945Z</time></trkpt><trkpt lat="44.2989055" lon="10.9221034"><ele>713.0</ele><time>2026-04-25T09:21:48.946Z</time></trkpt><trkpt lat="44.2988379" lon="10.9222583"><ele>713.0</ele><time>2026-04-25T09:21:50.946Z</time></trkpt><trkpt lat="44.2988163" lon="10.9224036"><ele>713.0</ele><time>2026-04-25T09:21:52.945Z</time></trkpt><trkpt lat="44.2988238" lon="10.9225153"><ele>718.75</ele><time>2026-04-25T09:21:53.944Z</time></trkpt><trkpt lat="44.2987923" lon="10.9226466"><ele>724.5</ele><time>2026-04-25T09:21:55.945Z</time></trkpt><trkpt lat="44.2987905" lon="10.9227504"><ele>730.25</ele><time>2026-04-25T09:21:57.945Z</time></trkpt><trkpt lat="44.2988149" lon="10.9229817"><ele>736.0</ele><time>2026-04-25T09:22:00.946Z</time></trkpt><trkpt lat="44.2988488" lon="10.9231483"><ele>736.0</ele><time>2026-04-25T09:22:02.946Z</time></trkpt><trkpt lat="44.2988423" lon="10.9232684"><ele>736.0</ele><time>2026-04-25T09:22:03.945Z</time></trkpt><trkpt lat="44.2988542" lon="10.9233713"><ele>736.0</ele><time>2026-04-25T09:22:04.944Z</time></trkpt><trkpt lat="44.2988736" lon="10.9235247"><ele>736.0</ele><time>2026-04-25T09:22:06.946Z</time></trkpt><trkpt lat="44.298862" lon="10.9236346"><ele>736.0</ele><time>2026-04-25T09:22:08.945Z</time></trkpt><trkpt lat="44.2988419" lon="10.9237938"><ele>736.25</ele><time>2026-04-25T09:22:10.946Z</time></trkpt><trkpt lat="44.2988383" lon="10.9239806"><ele>736.5</ele><time>2026-04-25T09:22:12.946Z</time></trkpt><trkpt lat="44.2988352" lon="10.924082"><ele>736.75</ele><time>2026-04-25T09:22:13.946Z</time></trkpt><trkpt lat="44.2987805" lon="10.92422"><ele>737.0</ele><time>2026-04-25T09:22:15.946Z</time></trkpt><trkpt lat="44.2988024" lon="10.9244049"><ele>737.0</ele><time>2026-04-25T09:22:17.945Z</time></trkpt><trkpt lat="44.2988261" lon="10.9245168"><ele>737.0</ele><time>2026-04-25T09:22:18.945Z</time></trkpt><trkpt lat="44.298853" lon="10.9246205"><ele>737.0</ele><time>2026-04-25T09:22:19.946Z</time></trkpt><trkpt lat="44.2989154" lon="10.9246941"><ele>737.0</ele><time>2026-04-25T09:22:20.946Z</time></trkpt><trkpt lat="44.2989607" lon="10.9247731"><ele>737.0</ele><time>2026-04-25T09:22:21.945Z</time></trkpt><trkpt lat="44.2990453" lon="10.9248666"><ele>737.0</ele><time>2026-04-25T09:22:22.946Z</time></trkpt><trkpt lat="44.2991163" lon="10.925013"><ele>734.6666666666666</ele><time>2026-04-25T09:22:24.946Z</time></trkpt><trkpt lat="44.2991394" lon="10.9251645"><ele>732.3333333333333</ele><time>2026-04-25T09:22:26.945Z</time></trkpt><trkpt lat="44.2991571" lon="10.9252562"><ele>730.0</ele><time>2026-04-25T09:22:27.946Z</time></trkpt><trkpt lat="44.2991781" lon="10.9253503"><ele>727.6666666666666</ele><time>2026-04-25T09:22:28.945Z</time></trkpt><trkpt lat="44.2991949" lon="10.9254392"><ele>725.3333333333334</ele><time>2026-04-25T09:22:29.946Z</time></trkpt><trkpt lat="44.2992412" lon="10.9255207"><ele>723.0</ele><time>2026-04-25T09:22:30.944Z</time></trkpt><trkpt lat="44.299304" lon="10.92565"><ele>723.0</ele><time>2026-04-25T09:22:32.946Z</time></trkpt><trkpt lat="44.2993164" lon="10.9257482"><ele>723.0</ele><time>2026-04-25T09:22:34.945Z</time></trkpt><trkpt lat="44.2993037" lon="10.9258423"><ele>723.0</ele><time>2026-04-25T09:22:36.946Z</time></trkpt><trkpt lat="44.2992213" lon="10.9257752"><ele>723.0</ele><time>2026-04-25T09:22:42.944Z</time></trkpt><trkpt lat="44.2991501" lon="10.9257341"><ele>723.0</ele><time>2026-04-25T09:22:43.945Z</time></trkpt><trkpt lat="44.2990822" lon="10.9256626"><ele>723.0</ele><time>2026-04-25T09:22:44.944Z</time></trkpt><trkpt lat="44.2990191" lon="10.9255729"><ele>723.0000000000001</ele><time>2026-04-25T09:22:45.945Z</time></trkpt><trkpt lat="44.298983" lon="10.925493"><ele>723.0</ele><time>2026-04-25T09:22:46.945Z</time></trkpt><trkpt lat="44.2989105" lon="10.9254382"><ele>723.0</ele><time>2026-04-25T09:22:47.944Z</time></trkpt><trkpt lat="44.2988493" lon="10.9253874"><ele>723.0</ele><time>2026-04-25T09:22:48.943Z</time></trkpt><trkpt lat="44.2987978" lon="10.9253275"><ele>723.0</ele><time>2026-04-25T09:22:49.944Z</time></trkpt><trkpt lat="44.2987392" lon="10.925254"><ele>723.0000000000001</ele><time>2026-04-25T09:22:50.945Z</time></trkpt><trkpt lat="44.29868" lon="10.9251845"><ele>723.0</ele><time>2026-04-25T09:22:51.944Z</time></trkpt><trkpt lat="44.2985839" lon="10.9250914"><ele>725.8</ele><time>2026-04-25T09:22:53.945Z</time></trkpt><trkpt lat="44.2985184" lon="10.9249887"><ele>728.5999999999999</ele><time>2026-04-25T09:22:55.945Z</time></trkpt><trkpt lat="44.2984505" lon="10.9248492"><ele>731.4000000000001</ele><time>2026-04-25T09:22:57.945Z</time></trkpt><trkpt lat="44.2983525" lon="10.9247329"><ele>734.2</ele><time>2026-04-25T09:22:59.945Z</time></trkpt><trkpt lat="44.2983021" lon="10.9246639"><ele>737.0</ele><time>2026-04-25T09:23:00.944Z</time></trkpt><trkpt lat="44.2982597" lon="10.9244988"><ele>737.0</ele><time>2026-04-25T09:23:02.944Z</time></trkpt><trkpt lat="44.2982108" lon="10.9244186"><ele>737.0</ele><time>2026-04-25T09:23:03.944Z</time></trkpt><trkpt lat="44.2981359" lon="10.9243023"><ele>737.0</ele><time>2026-04-25T09:23:05.945Z</time></trkpt><trkpt lat="44.2980732" lon="10.9241806"><ele>737.0</ele><time>2026-04-25T09:23:07.944Z</time></trkpt><trkpt lat="44.2980906" lon="10.9240892"><ele>737.0</ele><time>2026-04-25T09:23:08.945Z</time></trkpt><trkpt lat="44.2981205" lon="10.9239769"><ele>737.0</ele><time>2026-04-25T09:23:09.945Z</time></trkpt><trkpt lat="44.2981832" lon="10.9238562"><ele>737.0</ele><time>2026-04-25T09:23:11.945Z</time></trkpt><trkpt lat="44.2981981" lon="10.9236809"><ele>737.0</ele><time>2026-04-25T09:23:13.945Z</time></trkpt><trkpt lat="44.2981711" lon="10.9235586"><ele>737.0</ele><time>2026-04-25T09:23:14.945Z</time></trkpt><trkpt lat="44.2981183" lon="10.9233886"><ele>737.0</ele><time>2026-04-25T09:23:16.944Z</time></trkpt><trkpt lat="44.298096" lon="10.9233045"><ele>737.0</ele><time>2026-04-25T09:23:17.945Z</time></trkpt><trkpt lat="44.2980808" lon="10.9232053"><ele>739.5</ele><time>2026-04-25T09:23:18.945Z</time></trkpt><trkpt lat="44.2980688" lon="10.9230976"><ele>742.0</ele><time>2026-04-25T09:23:19.943Z</time></trkpt><trkpt lat="44.2980683" lon="10.9230026"><ele>744.5</ele><time>2026-04-25T09:23:20.945Z</time></trkpt><trkpt lat="44.2980578" lon="10.9228717"><ele>747.0</ele><time>2026-04-25T09:23:22.944Z</time></trkpt><trkpt lat="44.2980585" lon="10.9227607"><ele>749.5</ele><time>2026-04-25T09:23:24.945Z</time></trkpt><trkpt lat="44.2980412" lon="10.922653"><ele>752.0</ele><time>2026-04-25T09:23:26.945Z</time></trkpt><trkpt lat="44.2980228" lon="10.9225446"><ele>752.0</ele><time>2026-04-25T09:23:29.945Z</time></trkpt><trkpt lat="44.2980169" lon="10.9224344"><ele>752.0</ele><time>2026-04-25T09:23:31.945Z</time></trkpt><trkpt lat="44.2980151" lon="10.9223147"><ele>752.0</ele><time>2026-04-25T09:23:32.945Z</time></trkpt><trkpt lat="44.29801" lon="10.9221379"><ele>752.0</ele><time>2026-04-25T09:23:34.943Z</time></trkpt><trkpt lat="44.2980095" lon="10.9220483"><ele>752.0</ele><time>2026-04-25T09:23:35.945Z</time></trkpt><trkpt lat="44.2979827" lon="10.9219085"><ele>752.0</ele><time>2026-04-25T09:23:37.945Z</time></trkpt><trkpt lat="44.2979674" lon="10.9218073"><ele>752.0</ele><time>2026-04-25T09:23:38.944Z</time></trkpt><trkpt lat="44.2979343" lon="10.921663"><ele>752.0</ele><time>2026-04-25T09:23:40.945Z</time></trkpt><trkpt lat="44.2979273" lon="10.9215376"><ele>752.0</ele><time>2026-04-25T09:23:42.945Z</time></trkpt><trkpt lat="44.2978996" lon="10.9214358"><ele>752.0</ele><time>2026-04-25T09:24:05.943Z</time></trkpt><trkpt lat="44.297829" lon="10.9213415"><ele>752.0</ele><time>2026-04-25T09:24:08.944Z</time></trkpt><trkpt lat="44.2977951" lon="10.9212522"><ele>751.2857142857142</ele><time>2026-04-25T09:24:11.944Z</time></trkpt><trkpt lat="44.2977657" lon="10.9211655"><ele>750.5714285714286</ele><time>2026-04-25T09:24:14.944Z</time></trkpt><trkpt lat="44.2977417" lon="10.9210684"><ele>749.8571428571429</ele><time>2026-04-25T09:24:15.944Z</time></trkpt><trkpt lat="44.2976983" lon="10.9209925"><ele>749.1428571428571</ele><time>2026-04-25T09:24:16.944Z</time></trkpt><trkpt lat="44.2976678" lon="10.9208865"><ele>748.4285714285714</ele><time>2026-04-25T09:24:17.945Z</time></trkpt><trkpt lat="44.2976252" lon="10.9208093"><ele>747.7142857142857</ele><time>2026-04-25T09:24:18.945Z</time></trkpt><trkpt lat="44.2976013" lon="10.9206958"><ele>747.0</ele><time>2026-04-25T09:24:19.944Z</time></trkpt><trkpt lat="44.297547" lon="10.9205423"><ele>746.1666666666666</ele><time>2026-04-25T09:24:21.944Z</time></trkpt><trkpt lat="44.2975245" lon="10.9204586"><ele>745.3333333333334</ele><time>2026-04-25T09:24:22.944Z</time></trkpt><trkpt lat="44.2974962" lon="10.9203659"><ele>744.5</ele><time>2026-04-25T09:24:24.944Z</time></trkpt><trkpt lat="44.2974482" lon="10.9202934"><ele>743.6666666666667</ele><time>2026-04-25T09:24:26.945Z</time></trkpt><trkpt lat="44.2973808" lon="10.9201977"><ele>742.8333333333334</ele><time>2026-04-25T09:24:28.945Z</time></trkpt><trkpt lat="44.297324" lon="10.9201508"><ele>742.0</ele><time>2026-04-25T09:24:29.943Z</time></trkpt><trkpt lat="44.2972572" lon="10.9200445"><ele>744.0</ele><time>2026-04-25T09:24:31.945Z</time></trkpt><trkpt lat="44.2971953" lon="10.919951"><ele>746.0</ele><time>2026-04-25T09:24:33.945Z</time></trkpt><trkpt lat="44.2971442" lon="10.9198533"><ele>748.0</ele><time>2026-04-25T09:24:36.944Z</time></trkpt><trkpt lat="44.2970684" lon="10.9197955"><ele>750.0</ele><time>2026-04-25T09:24:39.943Z</time></trkpt><trkpt lat="44.2969884" lon="10.9197622"><ele>752.0</ele><time>2026-04-25T09:24:41.944Z</time></trkpt><trkpt lat="44.2968845" lon="10.9197588"><ele>752.0</ele><time>2026-04-25T09:24:43.944Z</time></trkpt><trkpt lat="44.296798" lon="10.9197529"><ele>752.0</ele><time>2026-04-25T09:24:45.945Z</time></trkpt><trkpt lat="44.2967125" lon="10.9197232"><ele>752.0</ele><time>2026-04-25T09:24:47.944Z</time></trkpt><trkpt lat="44.2966461" lon="10.9197062"><ele>752.0</ele><time>2026-04-25T09:24:48.944Z</time></trkpt><trkpt lat="44.2965709" lon="10.9196569"><ele>752.0</ele><time>2026-04-25T09:24:49.944Z</time></trkpt><trkpt lat="44.2965106" lon="10.9196166"><ele>752.0</ele><time>2026-04-25T09:24:50.944Z</time></trkpt><trkpt lat="44.2964297" lon="10.919577"><ele>754.0</ele><time>2026-04-25T09:24:52.945Z</time></trkpt><trkpt lat="44.296351" lon="10.9196549"><ele>756.0</ele><time>2026-04-25T09:24:55.944Z</time></trkpt><trkpt lat="44.2962671" lon="10.9197466"><ele>758.0</ele><time>2026-04-25T09:24:57.944Z</time></trkpt><trkpt lat="44.2961645" lon="10.9198417"><ele>760.0</ele><time>2026-04-25T09:24:59.944Z</time></trkpt><trkpt lat="44.2960553" lon="10.9199079"><ele>762.0</ele><time>2026-04-25T09:25:01.944Z</time></trkpt><trkpt lat="44.2959859" lon="10.9200495"><ele>764.8</ele><time>2026-04-25T09:25:03.945Z</time></trkpt><trkpt lat="44.295938" lon="10.9201841"><ele>767.6</ele><time>2026-04-25T09:25:05.944Z</time></trkpt><trkpt lat="44.2959015" lon="10.9202941"><ele>770.4</ele><time>2026-04-25T09:25:07.945Z</time></trkpt><trkpt lat="44.2959349" lon="10.9204647"><ele>773.1999999999999</ele><time>2026-04-25T09:25:09.944Z</time></trkpt><trkpt lat="44.2959743" lon="10.9205699"><ele>776.0</ele><time>2026-04-25T09:25:11.945Z</time></trkpt><trkpt lat="44.2959987" lon="10.9206975"><ele>776.0000000000001</ele><time>2026-04-25T09:25:13.944Z</time></trkpt><trkpt lat="44.2960398" lon="10.9207761"><ele>776.0</ele><time>2026-04-25T09:25:14.945Z</time></trkpt><trkpt lat="44.2960691" lon="10.9208643"><ele>776.0</ele><time>2026-04-25T09:25:15.945Z</time></trkpt><trkpt lat="44.2961" lon="10.9209686"><ele>776.0</ele><time>2026-04-25T09:25:16.945Z</time></trkpt><trkpt lat="44.2961237" lon="10.9210506"><ele>776.0000000000001</ele><time>2026-04-25T09:25:17.945Z</time></trkpt><trkpt lat="44.2961361" lon="10.9211396"><ele>776.0</ele><time>2026-04-25T09:25:18.944Z</time></trkpt><trkpt lat="44.296133" lon="10.9213173"><ele>777.1999999999999</ele><time>2026-04-25T09:25:20.945Z</time></trkpt><trkpt lat="44.296129" lon="10.9214793"><ele>778.4</ele><time>2026-04-25T09:25:22.944Z</time></trkpt><trkpt lat="44.2960626" lon="10.9216406"><ele>779.6</ele><time>2026-04-25T09:25:24.945Z</time></trkpt><trkpt lat="44.2959779" lon="10.9217181"><ele>780.8</ele><time>2026-04-25T09:25:25.945Z</time></trkpt><trkpt lat="44.2959163" lon="10.9218014"><ele>782.0</ele><time>2026-04-25T09:25:26.944Z</time></trkpt><trkpt lat="44.295855" lon="10.9218755"><ele>782.0000000000001</ele><time>2026-04-25T09:25:27.944Z</time></trkpt><trkpt lat="44.2957904" lon="10.9219199"><ele>782.0</ele><time>2026-04-25T09:25:28.944Z</time></trkpt><trkpt lat="44.2956851" lon="10.9220119"><ele>782.0</ele><time>2026-04-25T09:25:30.945Z</time></trkpt><trkpt lat="44.2955908" lon="10.9220031"><ele>782.0</ele><time>2026-04-25T09:25:31.945Z</time></trkpt><trkpt lat="44.2955144" lon="10.9220209"><ele>782.0000000000001</ele><time>2026-04-25T09:25:32.944Z</time></trkpt><trkpt lat="44.2954577" lon="10.9220612"><ele>782.0</ele><time>2026-04-25T09:25:33.943Z</time></trkpt><trkpt lat="44.295358" lon="10.922121"><ele>783.6666666666667</ele><time>2026-04-25T09:25:34.945Z</time></trkpt><trkpt lat="44.2952815" lon="10.9221702"><ele>785.3333333333334</ele><time>2026-04-25T09:25:35.945Z</time></trkpt><trkpt lat="44.2952118" lon="10.922227"><ele>787.0</ele><time>2026-04-25T09:25:36.945Z</time></trkpt><trkpt lat="44.2951502" lon="10.9222875"><ele>788.6666666666667</ele><time>2026-04-25T09:25:37.944Z</time></trkpt><trkpt lat="44.2950716" lon="10.9223867"><ele>790.3333333333334</ele><time>2026-04-25T09:25:39.945Z</time></trkpt><trkpt lat="44.2950101" lon="10.9224067"><ele>792.0</ele><time>2026-04-25T09:25:40.944Z</time></trkpt><trkpt lat="44.2949254" lon="10.922419"><ele>792.0</ele><time>2026-04-25T09:25:42.944Z</time></trkpt><trkpt lat="44.2948312" lon="10.9223776"><ele>792.0</ele><time>2026-04-25T09:25:44.943Z</time></trkpt><trkpt lat="44.2947697" lon="10.9223459"><ele>792.0</ele><time>2026-04-25T09:25:45.945Z</time></trkpt><trkpt lat="44.294625" lon="10.9223244"><ele>792.0</ele><time>2026-04-25T09:25:47.945Z</time></trkpt><trkpt lat="44.2945482" lon="10.9223116"><ele>792.0</ele><time>2026-04-25T09:25:48.945Z</time></trkpt><trkpt lat="44.2944816" lon="10.9222984"><ele>792.0</ele><time>2026-04-25T09:25:49.945Z</time></trkpt><trkpt lat="44.2943754" lon="10.922248"><ele>792.0</ele><time>2026-04-25T09:25:51.945Z</time></trkpt><trkpt lat="44.2942635" lon="10.9222656"><ele>792.0</ele><time>2026-04-25T09:25:53.944Z</time></trkpt><trkpt lat="44.2942002" lon="10.9222907"><ele>792.0</ele><time>2026-04-25T09:25:55.944Z</time></trkpt><trkpt lat="44.2940961" lon="10.9223331"><ele>792.0</ele><time>2026-04-25T09:25:56.945Z</time></trkpt><trkpt lat="44.2940061" lon="10.9223519"><ele>793.0</ele><time>2026-04-25T09:25:57.945Z</time></trkpt><trkpt lat="44.2938706" lon="10.9224289"><ele>794.0</ele><time>2026-04-25T09:25:59.945Z</time></trkpt><trkpt lat="44.2938007" lon="10.9224634"><ele>795.0</ele><time>2026-04-25T09:26:00.944Z</time></trkpt><trkpt lat="44.2937366" lon="10.9225136"><ele>796.0</ele><time>2026-04-25T09:26:01.944Z</time></trkpt><trkpt lat="44.2936575" lon="10.9225627"><ele>797.0</ele><time>2026-04-25T09:26:02.944Z</time></trkpt><trkpt lat="44.2935766" lon="10.9226241"><ele>794.5000000000001</ele><time>2026-04-25T09:26:03.944Z</time></trkpt><trkpt lat="44.2935104" lon="10.9226829"><ele>792.0</ele><time>2026-04-25T09:26:04.943Z</time></trkpt><trkpt lat="44.293442" lon="10.9227389"><ele>789.5</ele><time>2026-04-25T09:26:05.944Z</time></trkpt><trkpt lat="44.2933859" lon="10.9228198"><ele>787.0</ele><time>2026-04-25T09:26:06.945Z</time></trkpt><trkpt lat="44.2933332" lon="10.9228916"><ele>784.5000000000001</ele><time>2026-04-25T09:26:07.945Z</time></trkpt><trkpt lat="44.2932644" lon="10.9229623"><ele>782.0</ele><time>2026-04-25T09:26:08.943Z</time></trkpt><trkpt lat="44.2931911" lon="10.9230172"><ele>782.0000000000001</ele><time>2026-04-25T09:26:09.944Z</time></trkpt><trkpt lat="44.2931251" lon="10.9230676"><ele>782.0</ele><time>2026-04-25T09:26:10.944Z</time></trkpt><trkpt lat="44.2930637" lon="10.9231116"><ele>782.0</ele><time>2026-04-25T09:26:11.945Z</time></trkpt><trkpt lat="44.2929743" lon="10.9231515"><ele>782.0</ele><time>2026-04-25T09:26:12.945Z</time></trkpt><trkpt lat="44.2928879" lon="10.9231594"><ele>782.0000000000001</ele><time>2026-04-25T09:26:13.945Z</time></trkpt><trkpt lat="44.2927906" lon="10.9231427"><ele>782.0</ele><time>2026-04-25T09:26:14.945Z</time></trkpt><trkpt lat="44.2926976" lon="10.9231519"><ele>781.0</ele><time>2026-04-25T09:26:15.944Z</time></trkpt><trkpt lat="44.2926117" lon="10.923155"><ele>780.0</ele><time>2026-04-25T09:26:16.945Z</time></trkpt><trkpt lat="44.2925224" lon="10.92315"><ele>779.0</ele><time>2026-04-25T09:26:17.945Z</time></trkpt><trkpt lat="44.2924256" lon="10.9231513"><ele>778.0</ele><time>2026-04-25T09:26:18.945Z</time></trkpt><trkpt lat="44.2923301" lon="10.9231748"><ele>777.0</ele><time>2026-04-25T09:26:19.944Z</time></trkpt><trkpt lat="44.2922265" lon="10.9231973"><ele>776.4000000000001</ele><time>2026-04-25T09:26:20.944Z</time></trkpt><trkpt lat="44.2920508" lon="10.923234"><ele>775.8000000000001</ele><time>2026-04-25T09:26:22.944Z</time></trkpt><trkpt lat="44.2919587" lon="10.9232602"><ele>775.2</ele><time>2026-04-25T09:26:23.943Z</time></trkpt><trkpt lat="44.2918631" lon="10.9232933"><ele>774.6</ele><time>2026-04-25T09:26:24.945Z</time></trkpt><trkpt lat="44.2917854" lon="10.9233111"><ele>774.0</ele><time>2026-04-25T09:26:25.945Z</time></trkpt><trkpt lat="44.2916929" lon="10.923302"><ele>774.0</ele><time>2026-04-25T09:26:26.945Z</time></trkpt><trkpt lat="44.2915991" lon="10.923238"><ele>774.0</ele><time>2026-04-25T09:26:27.945Z</time></trkpt><trkpt lat="44.2914788" lon="10.9232016"><ele>774.0</ele><time>2026-04-25T09:26:28.945Z</time></trkpt><trkpt lat="44.2913865" lon="10.9231667"><ele>774.0</ele><time>2026-04-25T09:26:29.945Z</time></trkpt><trkpt lat="44.2912954" lon="10.9231208"><ele>774.0</ele><time>2026-04-25T09:26:30.945Z</time></trkpt><trkpt lat="44.2912114" lon="10.9230931"><ele>772.8333333333334</ele><time>2026-04-25T09:26:31.944Z</time></trkpt><trkpt lat="44.2911351" lon="10.9230521"><ele>771.6666666666666</ele><time>2026-04-25T09:26:32.944Z</time></trkpt><trkpt lat="44.2910539" lon="10.9230402"><ele>770.5</ele><time>2026-04-25T09:26:33.945Z</time></trkpt><trkpt lat="44.290967" lon="10.9230292"><ele>769.3333333333333</ele><time>2026-04-25T09:26:34.945Z</time></trkpt><trkpt lat="44.2908993" lon="10.9230173"><ele>768.1666666666666</ele><time>2026-04-25T09:26:35.943Z</time></trkpt><trkpt lat="44.2908237" lon="10.9230018"><ele>767.0</ele><time>2026-04-25T09:26:36.945Z</time></trkpt><trkpt lat="44.290762" lon="10.9229583"><ele>767.0</ele><time>2026-04-25T09:26:37.943Z</time></trkpt><trkpt lat="44.2906772" lon="10.9229232"><ele>767.0</ele><time>2026-04-25T09:26:38.944Z</time></trkpt><trkpt lat="44.2905965" lon="10.9229166"><ele>767.0</ele><time>2026-04-25T09:26:39.945Z</time></trkpt><trkpt lat="44.2904939" lon="10.9229555"><ele>767.0</ele><time>2026-04-25T09:26:40.944Z</time></trkpt><trkpt lat="44.2904031" lon="10.922968"><ele>767.0</ele><time>2026-04-25T09:26:41.944Z</time></trkpt><trkpt lat="44.2903228" lon="10.9229877"><ele>767.0</ele><time>2026-04-25T09:26:42.945Z</time></trkpt><trkpt lat="44.2902393" lon="10.923015"><ele>766.0</ele><time>2026-04-25T09:26:43.945Z</time></trkpt><trkpt lat="44.2901683" lon="10.9230282"><ele>765.0</ele><time>2026-04-25T09:26:44.943Z</time></trkpt><trkpt lat="44.2901083" lon="10.9230602"><ele>764.0</ele><time>2026-04-25T09:26:45.944Z</time></trkpt><trkpt lat="44.2900049" lon="10.9231506"><ele>763.0</ele><time>2026-04-25T09:26:46.945Z</time></trkpt><trkpt lat="44.2899194" lon="10.9232047"><ele>762.0</ele><time>2026-04-25T09:26:47.945Z</time></trkpt><trkpt lat="44.2898336" lon="10.9232655"><ele>761.0</ele><time>2026-04-25T09:26:48.944Z</time></trkpt><trkpt lat="44.2897511" lon="10.9233297"><ele>759.4</ele><time>2026-04-25T09:26:49.945Z</time></trkpt><trkpt lat="44.289682" lon="10.9233814"><ele>757.8</ele><time>2026-04-25T09:26:50.943Z</time></trkpt><trkpt lat="44.2896088" lon="10.9234407"><ele>756.1999999999999</ele><time>2026-04-25T09:26:51.945Z</time></trkpt><trkpt lat="44.289555" lon="10.923495"><ele>754.5999999999999</ele><time>2026-04-25T09:26:52.945Z</time></trkpt><trkpt lat="44.2894496" lon="10.9235768"><ele>753.0</ele><time>2026-04-25T09:26:54.944Z</time></trkpt><trkpt lat="44.2893797" lon="10.9236999"><ele>753.0</ele><time>2026-04-25T09:26:56.944Z</time></trkpt><trkpt lat="44.2893294" lon="10.9237995"><ele>753.0</ele><time>2026-04-25T09:26:58.944Z</time></trkpt><trkpt lat="44.2892878" lon="10.9239042"><ele>753.0</ele><time>2026-04-25T09:32:12.942Z</time></trkpt><trkpt lat="44.2892397" lon="10.9240415"><ele>753.0</ele><time>2026-04-25T09:32:14.943Z</time></trkpt><trkpt lat="44.2892123" lon="10.9241336"><ele>753.0</ele><time>2026-04-25T09:32:15.943Z</time></trkpt><trkpt lat="44.2892122" lon="10.924241"><ele>753.0</ele><time>2026-04-25T09:32:16.944Z</time></trkpt><trkpt lat="44.2892141" lon="10.9243472"><ele>752.0</ele><time>2026-04-25T09:32:17.944Z</time></trkpt><trkpt lat="44.2892167" lon="10.9244563"><ele>751.0</ele><time>2026-04-25T09:32:18.944Z</time></trkpt><trkpt lat="44.289211" lon="10.9245786"><ele>750.0</ele><time>2026-04-25T09:32:19.944Z</time></trkpt><trkpt lat="44.2891811" lon="10.9247547"><ele>749.0</ele><time>2026-04-25T09:32:20.943Z</time></trkpt><trkpt lat="44.2891379" lon="10.9249381"><ele>748.0</ele><time>2026-04-25T09:32:21.944Z</time></trkpt><trkpt lat="44.2891037" lon="10.9250988"><ele>747.25</ele><time>2026-04-25T09:32:22.944Z</time></trkpt><trkpt lat="44.2890598" lon="10.9252466"><ele>746.5</ele><time>2026-04-25T09:32:23.944Z</time></trkpt><trkpt lat="44.2890073" lon="10.9253837"><ele>745.75</ele><time>2026-04-25T09:32:24.943Z</time></trkpt><trkpt lat="44.2889394" lon="10.9255203"><ele>745.0</ele><time>2026-04-25T09:32:25.944Z</time></trkpt><trkpt lat="44.2888655" lon="10.9256343"><ele>745.4</ele><time>2026-04-25T09:32:26.944Z</time></trkpt><trkpt lat="44.2887884" lon="10.9257338"><ele>745.8</ele><time>2026-04-25T09:32:27.943Z</time></trkpt><trkpt lat="44.2887087" lon="10.9258292"><ele>746.2</ele><time>2026-04-25T09:32:28.944Z</time></trkpt><trkpt lat="44.2886228" lon="10.9259143"><ele>746.6</ele><time>2026-04-25T09:32:29.942Z</time></trkpt><trkpt lat="44.2885334" lon="10.9259707"><ele>747.0</ele><time>2026-04-25T09:32:30.943Z</time></trkpt><trkpt lat="44.2884389" lon="10.9260225"><ele>747.0</ele><time>2026-04-25T09:32:31.944Z</time></trkpt><trkpt lat="44.2883387" lon="10.9260546"><ele>747.0</ele><time>2026-04-25T09:32:32.944Z</time></trkpt><trkpt lat="44.2882359" lon="10.9260724"><ele>747.0</ele><time>2026-04-25T09:32:33.943Z</time></trkpt><trkpt lat="44.2881405" lon="10.9260972"><ele>747.0</ele><time>2026-04-25T09:32:34.944Z</time></trkpt><trkpt lat="44.288048" lon="10.9261248"><ele>747.0</ele><time>2026-04-25T09:32:35.942Z</time></trkpt><trkpt lat="44.2879559" lon="10.9261575"><ele>747.8</ele><time>2026-04-25T09:32:36.943Z</time></trkpt><trkpt lat="44.2878656" lon="10.9262004"><ele>748.6</ele><time>2026-04-25T09:32:37.944Z</time></trkpt><trkpt lat="44.287784" lon="10.9262492"><ele>749.4</ele><time>2026-04-25T09:32:38.944Z</time></trkpt><trkpt lat="44.2876975" lon="10.9262964"><ele>750.1999999999999</ele><time>2026-04-25T09:32:39.944Z</time></trkpt><trkpt lat="44.2876162" lon="10.9263508"><ele>751.0</ele><time>2026-04-25T09:32:40.944Z</time></trkpt><trkpt lat="44.2875331" lon="10.9264101"><ele>751.0</ele><time>2026-04-25T09:32:41.944Z</time></trkpt><trkpt lat="44.2874356" lon="10.92646"><ele>751.0</ele><time>2026-04-25T09:32:42.943Z</time></trkpt><trkpt lat="44.2873333" lon="10.9264981"><ele>751.0</ele><time>2026-04-25T09:32:43.944Z</time></trkpt><trkpt lat="44.2872282" lon="10.9265291"><ele>751.0</ele><time>2026-04-25T09:32:44.944Z</time></trkpt><trkpt lat="44.2871188" lon="10.9265554"><ele>751.0</ele><time>2026-04-25T09:32:45.944Z</time></trkpt><trkpt lat="44.2870103" lon="10.9265731"><ele>751.0</ele><time>2026-04-25T09:32:46.944Z</time></trkpt><trkpt lat="44.2869054" lon="10.926582"><ele>751.0</ele><time>2026-04-25T09:32:47.944Z</time></trkpt><trkpt lat="44.2867975" lon="10.926598"><ele>751.0</ele><time>2026-04-25T09:32:48.943Z</time></trkpt><trkpt lat="44.2866938" lon="10.9266284"><ele>751.0</ele><time>2026-04-25T09:32:49.944Z</time></trkpt><trkpt lat="44.2865908" lon="10.9266522"><ele>751.0</ele><time>2026-04-25T09:32:50.944Z</time></trkpt><trkpt lat="44.2864925" lon="10.9266857"><ele>750.0</ele><time>2026-04-25T09:32:51.944Z</time></trkpt><trkpt lat="44.2863927" lon="10.9267157"><ele>749.0</ele><time>2026-04-25T09:32:52.944Z</time></trkpt><trkpt lat="44.2862984" lon="10.9267421"><ele>748.0</ele><time>2026-04-25T09:32:53.944Z</time></trkpt><trkpt lat="44.2861222" lon="10.926771"><ele>747.0</ele><time>2026-04-25T09:32:55.944Z</time></trkpt><trkpt lat="44.2860353" lon="10.9267769"><ele>746.2</ele><time>2026-04-25T09:32:56.944Z</time></trkpt><trkpt lat="44.2859573" lon="10.9267733"><ele>745.4000000000001</ele><time>2026-04-25T09:32:57.944Z</time></trkpt><trkpt lat="44.2858158" lon="10.9268537"><ele>744.5999999999999</ele><time>2026-04-25T09:32:59.944Z</time></trkpt><trkpt lat="44.2857518" lon="10.9269462"><ele>743.8</ele><time>2026-04-25T09:33:00.943Z</time></trkpt><trkpt lat="44.2857001" lon="10.92706"><ele>743.0</ele><time>2026-04-25T09:33:01.943Z</time></trkpt><trkpt lat="44.2856136" lon="10.9273087"><ele>740.0</ele><time>2026-04-25T09:33:03.942Z</time></trkpt><trkpt lat="44.2855852" lon="10.9274422"><ele>737.0</ele><time>2026-04-25T09:33:04.943Z</time></trkpt><trkpt lat="44.2855461" lon="10.9277205"><ele>734.0</ele><time>2026-04-25T09:33:06.943Z</time></trkpt><trkpt lat="44.2855527" lon="10.9278598"><ele>731.0</ele><time>2026-04-25T09:33:07.943Z</time></trkpt><trkpt lat="44.2855763" lon="10.9279917"><ele>731.1999999999999</ele><time>2026-04-25T09:33:08.943Z</time></trkpt><trkpt lat="44.2856069" lon="10.928126"><ele>731.4</ele><time>2026-04-25T09:33:09.943Z</time></trkpt><trkpt lat="44.28564" lon="10.9282633"><ele>731.6</ele><time>2026-04-25T09:33:10.944Z</time></trkpt><trkpt lat="44.285679" lon="10.928397"><ele>731.8</ele><time>2026-04-25T09:33:11.944Z</time></trkpt><trkpt lat="44.2857163" lon="10.9285321"><ele>732.0</ele><time>2026-04-25T09:33:12.943Z</time></trkpt><trkpt lat="44.2857555" lon="10.9286792"><ele>732.0</ele><time>2026-04-25T09:33:13.944Z</time></trkpt><trkpt lat="44.2858022" lon="10.9288314"><ele>732.0</ele><time>2026-04-25T09:33:14.943Z</time></trkpt><trkpt lat="44.2858454" lon="10.9289891"><ele>732.0</ele><time>2026-04-25T09:33:15.944Z</time></trkpt><trkpt lat="44.2858826" lon="10.9291381"><ele>732.0</ele><time>2026-04-25T09:33:16.944Z</time></trkpt><trkpt lat="44.2859234" lon="10.9292735"><ele>730.8</ele><time>2026-04-25T09:33:17.942Z</time></trkpt><trkpt lat="44.2859602" lon="10.9294031"><ele>729.6</ele><time>2026-04-25T09:33:18.944Z</time></trkpt><trkpt lat="44.2859946" lon="10.9295322"><ele>728.4</ele><time>2026-04-25T09:33:19.943Z</time></trkpt><trkpt lat="44.2860278" lon="10.9296663"><ele>727.1999999999999</ele><time>2026-04-25T09:33:20.944Z</time></trkpt><trkpt lat="44.2860583" lon="10.9298001"><ele>726.0</ele><time>2026-04-25T09:33:21.944Z</time></trkpt><trkpt lat="44.2860868" lon="10.9299269"><ele>726.25</ele><time>2026-04-25T09:33:22.944Z</time></trkpt><trkpt lat="44.2861136" lon="10.9300604"><ele>726.5</ele><time>2026-04-25T09:33:23.943Z</time></trkpt><trkpt lat="44.2861506" lon="10.9302117"><ele>726.75</ele><time>2026-04-25T09:33:24.943Z</time></trkpt><trkpt lat="44.2861882" lon="10.9303724"><ele>727.0</ele><time>2026-04-25T09:33:25.943Z</time></trkpt><trkpt lat="44.2862185" lon="10.9305614"><ele>727.0</ele><time>2026-04-25T09:33:26.944Z</time></trkpt><trkpt lat="44.2862385" lon="10.9307882"><ele>727.0</ele><time>2026-04-25T09:33:27.944Z</time></trkpt><trkpt lat="44.2862533" lon="10.9310175"><ele>727.0</ele><time>2026-04-25T09:33:28.944Z</time></trkpt><trkpt lat="44.2862591" lon="10.931225"><ele>728.75</ele><time>2026-04-25T09:33:29.944Z</time></trkpt><trkpt lat="44.2862606" lon="10.931417"><ele>730.5</ele><time>2026-04-25T09:33:30.943Z</time></trkpt><trkpt lat="44.2862529" lon="10.9315939"><ele>732.25</ele><time>2026-04-25T09:33:31.943Z</time></trkpt><trkpt lat="44.2862318" lon="10.9317504"><ele>734.0</ele><time>2026-04-25T09:33:32.944Z</time></trkpt><trkpt lat="44.2862024" lon="10.931892"><ele>736.2</ele><time>2026-04-25T09:33:33.943Z</time></trkpt><trkpt lat="44.2861752" lon="10.9320168"><ele>738.4000000000001</ele><time>2026-04-25T09:33:34.943Z</time></trkpt><trkpt lat="44.2861439" lon="10.9321247"><ele>740.6</ele><time>2026-04-25T09:33:35.942Z</time></trkpt><trkpt lat="44.2860736" lon="10.932316"><ele>742.8</ele><time>2026-04-25T09:33:37.943Z</time></trkpt><trkpt lat="44.2860398" lon="10.9323963"><ele>745.0</ele><time>2026-04-25T09:33:38.943Z</time></trkpt><trkpt lat="44.2859836" lon="10.9325368"><ele>745.8333333333334</ele><time>2026-04-25T09:33:40.943Z</time></trkpt><trkpt lat="44.285936" lon="10.9326627"><ele>746.6666666666667</ele><time>2026-04-25T09:33:42.943Z</time></trkpt><trkpt lat="44.2858968" lon="10.9327835"><ele>747.5</ele><time>2026-04-25T09:33:44.943Z</time></trkpt><trkpt lat="44.2858652" lon="10.9328938"><ele>748.3333333333334</ele><time>2026-04-25T09:33:46.944Z</time></trkpt><trkpt lat="44.2858254" lon="10.9329783"><ele>749.1666666666666</ele><time>2026-04-25T09:33:49.943Z</time></trkpt><trkpt lat="44.2858128" lon="10.9330774"><ele>750.0</ele><time>2026-04-25T09:33:52.943Z</time></trkpt><trkpt lat="44.2858032" lon="10.9331693"><ele>750.0</ele><time>2026-04-25T09:33:55.943Z</time></trkpt><trkpt lat="44.2857722" lon="10.933247"><ele>750.0</ele><time>2026-04-25T09:34:20.944Z</time></trkpt><trkpt lat="44.2857384" lon="10.9333341"><ele>750.0</ele><time>2026-04-25T09:34:22.942Z</time></trkpt><trkpt lat="44.2856701" lon="10.9333733"><ele>750.0</ele><time>2026-04-25T09:34:24.943Z</time></trkpt><trkpt lat="44.285569" lon="10.9333883"><ele>750.0</ele><time>2026-04-25T09:34:26.944Z</time></trkpt><trkpt lat="44.2854561" lon="10.9333971"><ele>750.0</ele><time>2026-04-25T09:34:28.944Z</time></trkpt><trkpt lat="44.2853252" lon="10.9334178"><ele>751.3333333333334</ele><time>2026-04-25T09:34:30.943Z</time></trkpt><trkpt lat="44.2852541" lon="10.9334318"><ele>752.6666666666666</ele><time>2026-04-25T09:34:31.943Z</time></trkpt><trkpt lat="44.2851761" lon="10.9334606"><ele>754.0</ele><time>2026-04-25T09:34:32.943Z</time></trkpt><trkpt lat="44.2850994" lon="10.9334964"><ele>755.3333333333333</ele><time>2026-04-25T09:34:33.944Z</time></trkpt><trkpt lat="44.2850301" lon="10.9335429"><ele>756.6666666666666</ele><time>2026-04-25T09:34:34.942Z</time></trkpt><trkpt lat="44.284965" lon="10.9335909"><ele>758.0</ele><time>2026-04-25T09:34:35.944Z</time></trkpt><trkpt lat="44.2849008" lon="10.9336385"><ele>758.0</ele><time>2026-04-25T09:34:36.943Z</time></trkpt><trkpt lat="44.2848264" lon="10.9336885"><ele>758.0</ele><time>2026-04-25T09:34:37.944Z</time></trkpt><trkpt lat="44.2847559" lon="10.9337379"><ele>758.0</ele><time>2026-04-25T09:34:38.943Z</time></trkpt><trkpt lat="44.284676" lon="10.933791"><ele>758.0</ele><time>2026-04-25T09:34:39.944Z</time></trkpt><trkpt lat="44.2846002" lon="10.9338443"><ele>758.0</ele><time>2026-04-25T09:34:40.943Z</time></trkpt><trkpt lat="44.2845261" lon="10.9338976"><ele>758.0</ele><time>2026-04-25T09:34:41.944Z</time></trkpt><trkpt lat="44.2844509" lon="10.9339414"><ele>757.6666666666666</ele><time>2026-04-25T09:34:42.943Z</time></trkpt><trkpt lat="44.2843752" lon="10.9339826"><ele>757.3333333333333</ele><time>2026-04-25T09:34:43.944Z</time></trkpt><trkpt lat="44.2843036" lon="10.9340274"><ele>757.0</ele><time>2026-04-25T09:34:44.944Z</time></trkpt><trkpt lat="44.2842325" lon="10.9340677"><ele>756.6666666666666</ele><time>2026-04-25T09:34:45.944Z</time></trkpt><trkpt lat="44.2841599" lon="10.9341093"><ele>756.3333333333334</ele><time>2026-04-25T09:34:46.944Z</time></trkpt><trkpt lat="44.2840894" lon="10.9341493"><ele>756.0</ele><time>2026-04-25T09:34:47.944Z</time></trkpt><trkpt lat="44.2840221" lon="10.9341836"><ele>756.0</ele><time>2026-04-25T09:34:48.943Z</time></trkpt><trkpt lat="44.2839571" lon="10.9342208"><ele>756.0</ele><time>2026-04-25T09:34:49.944Z</time></trkpt><trkpt lat="44.2838953" lon="10.9342535"><ele>756.0</ele><time>2026-04-25T09:34:50.943Z</time></trkpt><trkpt lat="44.2838341" lon="10.9342873"><ele>756.0</ele><time>2026-04-25T09:34:51.944Z</time></trkpt><trkpt lat="44.2837629" lon="10.9343269"><ele>756.0</ele><time>2026-04-25T09:34:52.944Z</time></trkpt><trkpt lat="44.2836862" lon="10.934364"><ele>756.0</ele><time>2026-04-25T09:34:53.944Z</time></trkpt><trkpt lat="44.2836028" lon="10.9344056"><ele>756.0</ele><time>2026-04-25T09:34:54.944Z</time></trkpt><trkpt lat="44.2835252" lon="10.9344498"><ele>757.8</ele><time>2026-04-25T09:34:55.943Z</time></trkpt><trkpt lat="44.2834467" lon="10.9345027"><ele>759.5999999999999</ele><time>2026-04-25T09:34:56.944Z</time></trkpt><trkpt lat="44.2833695" lon="10.9345508"><ele>761.4</ele><time>2026-04-25T09:34:57.944Z</time></trkpt><trkpt lat="44.283294" lon="10.9346184"><ele>763.2</ele><time>2026-04-25T09:34:58.944Z</time></trkpt><trkpt lat="44.2832053" lon="10.9346972"><ele>765.0</ele><time>2026-04-25T09:34:59.943Z</time></trkpt><trkpt lat="44.2831145" lon="10.9347843"><ele>765.0</ele><time>2026-04-25T09:35:00.943Z</time></trkpt><trkpt lat="44.2830244" lon="10.9348572"><ele>765.0</ele><time>2026-04-25T09:35:01.943Z</time></trkpt><trkpt lat="44.2829294" lon="10.9349246"><ele>765.0</ele><time>2026-04-25T09:35:02.943Z</time></trkpt><trkpt lat="44.2828283" lon="10.9349942"><ele>765.0</ele><time>2026-04-25T09:35:03.943Z</time></trkpt><trkpt lat="44.2827167" lon="10.9350638"><ele>765.0</ele><time>2026-04-25T09:35:04.944Z</time></trkpt><trkpt lat="44.2826043" lon="10.9351239"><ele>765.0</ele><time>2026-04-25T09:35:05.943Z</time></trkpt><trkpt lat="44.2824952" lon="10.9351744"><ele>765.0</ele><time>2026-04-25T09:35:06.942Z</time></trkpt><trkpt lat="44.2823883" lon="10.935211"><ele>765.0</ele><time>2026-04-25T09:35:07.944Z</time></trkpt><trkpt lat="44.2822722" lon="10.9352285"><ele>765.0</ele><time>2026-04-25T09:35:08.944Z</time></trkpt><trkpt lat="44.2821565" lon="10.9352141"><ele>765.2</ele><time>2026-04-25T09:35:09.944Z</time></trkpt><trkpt lat="44.2820532" lon="10.9351916"><ele>765.4</ele><time>2026-04-25T09:35:10.943Z</time></trkpt><trkpt lat="44.2819533" lon="10.9351758"><ele>765.5999999999999</ele><time>2026-04-25T09:35:11.943Z</time></trkpt><trkpt lat="44.2818552" lon="10.9351767"><ele>765.8</ele><time>2026-04-25T09:35:12.944Z</time></trkpt><trkpt lat="44.2817629" lon="10.9351744"><ele>766.0</ele><time>2026-04-25T09:35:13.944Z</time></trkpt><trkpt lat="44.2816736" lon="10.9351754"><ele>766.0</ele><time>2026-04-25T09:35:14.944Z</time></trkpt><trkpt lat="44.2815808" lon="10.9351765"><ele>766.0</ele><time>2026-04-25T09:35:15.943Z</time></trkpt><trkpt lat="44.2814896" lon="10.9351682"><ele>766.0</ele><time>2026-04-25T09:35:16.942Z</time></trkpt><trkpt lat="44.2813911" lon="10.9351813"><ele>766.0</ele><time>2026-04-25T09:35:17.944Z</time></trkpt><trkpt lat="44.2812888" lon="10.9352107"><ele>766.0</ele><time>2026-04-25T09:35:18.944Z</time></trkpt><trkpt lat="44.2811951" lon="10.9352325"><ele>766.5999999999999</ele><time>2026-04-25T09:35:19.944Z</time></trkpt><trkpt lat="44.2810993" lon="10.935273"><ele>767.2</ele><time>2026-04-25T09:35:20.944Z</time></trkpt><trkpt lat="44.281" lon="10.9353142"><ele>767.8</ele><time>2026-04-25T09:35:21.944Z</time></trkpt><trkpt lat="44.280901" lon="10.9353456"><ele>768.4000000000001</ele><time>2026-04-25T09:35:22.943Z</time></trkpt><trkpt lat="44.2808042" lon="10.9353852"><ele>769.0</ele><time>2026-04-25T09:35:23.943Z</time></trkpt><trkpt lat="44.2807091" lon="10.9354302"><ele>769.0</ele><time>2026-04-25T09:35:24.943Z</time></trkpt><trkpt lat="44.2806173" lon="10.9354698"><ele>769.0</ele><time>2026-04-25T09:35:25.944Z</time></trkpt><trkpt lat="44.2805261" lon="10.935514"><ele>769.0</ele><time>2026-04-25T09:35:26.943Z</time></trkpt><trkpt lat="44.2804332" lon="10.9355565"><ele>769.0</ele><time>2026-04-25T09:35:27.944Z</time></trkpt><trkpt lat="44.2803364" lon="10.9355959"><ele>769.0</ele><time>2026-04-25T09:35:28.943Z</time></trkpt><trkpt lat="44.2802253" lon="10.9356383"><ele>769.4000000000001</ele><time>2026-04-25T09:35:29.944Z</time></trkpt><trkpt lat="44.2801359" lon="10.9356694"><ele>769.8</ele><time>2026-04-25T09:35:30.944Z</time></trkpt><trkpt lat="44.2800228" lon="10.935709"><ele>770.2</ele><time>2026-04-25T09:35:31.944Z</time></trkpt><trkpt lat="44.2799124" lon="10.9357539"><ele>770.5999999999999</ele><time>2026-04-25T09:35:32.944Z</time></trkpt><trkpt lat="44.2798136" lon="10.9358013"><ele>771.0</ele><time>2026-04-25T09:35:33.943Z</time></trkpt><trkpt lat="44.2797147" lon="10.9358648"><ele>773.8</ele><time>2026-04-25T09:35:34.944Z</time></trkpt><trkpt lat="44.279619" lon="10.9359305"><ele>776.5999999999999</ele><time>2026-04-25T09:35:35.943Z</time></trkpt><trkpt lat="44.279528" lon="10.9359804"><ele>779.4</ele><time>2026-04-25T09:35:36.944Z</time></trkpt><trkpt lat="44.279431" lon="10.9360121"><ele>782.2</ele><time>2026-04-25T09:35:37.944Z</time></trkpt><trkpt lat="44.2793447" lon="10.9360113"><ele>785.0</ele><time>2026-04-25T09:35:38.942Z</time></trkpt><trkpt lat="44.2792529" lon="10.9359954"><ele>785.0000000000001</ele><time>2026-04-25T09:35:39.943Z</time></trkpt><trkpt lat="44.2791796" lon="10.9359348"><ele>785.0</ele><time>2026-04-25T09:35:40.944Z</time></trkpt><trkpt lat="44.2791135" lon="10.9358727"><ele>785.0</ele><time>2026-04-25T09:35:41.942Z</time></trkpt><trkpt lat="44.2790611" lon="10.9358021"><ele>785.0</ele><time>2026-04-25T09:35:42.944Z</time></trkpt><trkpt lat="44.2790121" lon="10.9357431"><ele>785.0000000000001</ele><time>2026-04-25T09:35:43.942Z</time></trkpt><trkpt lat="44.2789517" lon="10.9356508"><ele>785.0</ele><time>2026-04-25T09:35:45.944Z</time></trkpt><trkpt lat="44.2789019" lon="10.9355662"><ele>781.0</ele><time>2026-04-25T09:35:48.943Z</time></trkpt><trkpt lat="44.2788393" lon="10.9354994"><ele>777.0</ele><time>2026-04-25T09:35:51.944Z</time></trkpt><trkpt lat="44.2787632" lon="10.9355271"><ele>773.0</ele><time>2026-04-25T09:35:54.944Z</time></trkpt><trkpt lat="44.2786874" lon="10.935642"><ele>769.0</ele><time>2026-04-25T09:35:56.944Z</time></trkpt><trkpt lat="44.2786031" lon="10.9357267"><ele>765.0</ele><time>2026-04-25T09:35:58.943Z</time></trkpt><trkpt lat="44.2785031" lon="10.9357137"><ele>765.0</ele><time>2026-04-25T09:36:00.944Z</time></trkpt><trkpt lat="44.2784217" lon="10.9355915"><ele>765.0</ele><time>2026-04-25T09:36:02.944Z</time></trkpt><trkpt lat="44.2783827" lon="10.9354758"><ele>765.0</ele><time>2026-04-25T09:36:03.943Z</time></trkpt><trkpt lat="44.2783379" lon="10.9353586"><ele>765.0</ele><time>2026-04-25T09:36:04.943Z</time></trkpt><trkpt lat="44.2782802" lon="10.9352195"><ele>765.0</ele><time>2026-04-25T09:36:05.943Z</time></trkpt><trkpt lat="44.2782111" lon="10.9351289"><ele>764.4</ele><time>2026-04-25T09:36:06.944Z</time></trkpt><trkpt lat="44.2781478" lon="10.9350493"><ele>763.8</ele><time>2026-04-25T09:36:07.943Z</time></trkpt><trkpt lat="44.2780228" lon="10.9350329"><ele>763.2</ele><time>2026-04-25T09:36:08.943Z</time></trkpt><trkpt lat="44.277935" lon="10.9349927"><ele>762.6</ele><time>2026-04-25T09:36:09.944Z</time></trkpt><trkpt lat="44.2778198" lon="10.93499"><ele>762.0</ele><time>2026-04-25T09:36:10.944Z</time></trkpt><trkpt lat="44.2777211" lon="10.9349875"><ele>762.0</ele><time>2026-04-25T09:36:11.944Z</time></trkpt><trkpt lat="44.2774976" lon="10.9350196"><ele>762.0</ele><time>2026-04-25T09:36:13.943Z</time></trkpt><trkpt lat="44.2773496" lon="10.9350379"><ele>762.0</ele><time>2026-04-25T09:36:14.943Z</time></trkpt><trkpt lat="44.2772019" lon="10.9350563"><ele>765.25</ele><time>2026-04-25T09:36:15.943Z</time></trkpt><trkpt lat="44.2770678" lon="10.935093"><ele>768.5</ele><time>2026-04-25T09:36:16.943Z</time></trkpt><trkpt lat="44.2769507" lon="10.935157"><ele>771.75</ele><time>2026-04-25T09:36:17.944Z</time></trkpt><trkpt lat="44.2768491" lon="10.9352346"><ele>775.0</ele><time>2026-04-25T09:36:18.944Z</time></trkpt><trkpt lat="44.2767516" lon="10.9353184"><ele>775.0</ele><time>2026-04-25T09:36:19.943Z</time></trkpt><trkpt lat="44.2766595" lon="10.9354227"><ele>775.0</ele><time>2026-04-25T09:36:20.943Z</time></trkpt><trkpt lat="44.2765733" lon="10.9355366"><ele>775.0</ele><time>2026-04-25T09:36:21.944Z</time></trkpt><trkpt lat="44.276492" lon="10.935649"><ele>775.0</ele><time>2026-04-25T09:36:22.943Z</time></trkpt><trkpt lat="44.2764198" lon="10.935762"><ele>776.75</ele><time>2026-04-25T09:36:23.944Z</time></trkpt><trkpt lat="44.2763451" lon="10.9358776"><ele>778.5</ele><time>2026-04-25T09:36:24.944Z</time></trkpt><trkpt lat="44.2762688" lon="10.935996"><ele>780.25</ele><time>2026-04-25T09:36:25.944Z</time></trkpt><trkpt lat="44.2761843" lon="10.9361091"><ele>782.0</ele><time>2026-04-25T09:36:26.944Z</time></trkpt><trkpt lat="44.2760867" lon="10.9362175"><ele>782.0</ele><time>2026-04-25T09:36:27.944Z</time></trkpt><trkpt lat="44.2759747" lon="10.9363019"><ele>782.0</ele><time>2026-04-25T09:36:28.943Z</time></trkpt><trkpt lat="44.2758562" lon="10.93637"><ele>782.0</ele><time>2026-04-25T09:36:29.944Z</time></trkpt><trkpt lat="44.2757384" lon="10.9364245"><ele>782.0</ele><time>2026-04-25T09:36:30.944Z</time></trkpt><trkpt lat="44.275636" lon="10.9364851"><ele>781.75</ele><time>2026-04-25T09:36:31.944Z</time></trkpt><trkpt lat="44.2755399" lon="10.9365554"><ele>781.5</ele><time>2026-04-25T09:36:32.944Z</time></trkpt><trkpt lat="44.2754494" lon="10.9366484"><ele>781.25</ele><time>2026-04-25T09:36:33.944Z</time></trkpt><trkpt lat="44.2753585" lon="10.9367651"><ele>781.0</ele><time>2026-04-25T09:36:34.944Z</time></trkpt><trkpt lat="44.2752783" lon="10.9368947"><ele>783.75</ele><time>2026-04-25T09:36:35.943Z</time></trkpt><trkpt lat="44.275192" lon="10.9370197"><ele>786.5</ele><time>2026-04-25T09:36:36.943Z</time></trkpt><trkpt lat="44.2750928" lon="10.9371415"><ele>789.25</ele><time>2026-04-25T09:36:37.943Z</time></trkpt><trkpt lat="44.2749792" lon="10.937248"><ele>792.0</ele><time>2026-04-25T09:36:38.942Z</time></trkpt><trkpt lat="44.2748545" lon="10.9373483"><ele>792.5</ele><time>2026-04-25T09:36:39.943Z</time></trkpt><trkpt lat="44.2747174" lon="10.9374469"><ele>793.0</ele><time>2026-04-25T09:36:40.944Z</time></trkpt><trkpt lat="44.2745869" lon="10.9375164"><ele>793.5</ele><time>2026-04-25T09:36:41.944Z</time></trkpt><trkpt lat="44.2744552" lon="10.9375854"><ele>794.0</ele><time>2026-04-25T09:36:42.943Z</time></trkpt><trkpt lat="44.2743379" lon="10.937666"><ele>798.75</ele><time>2026-04-25T09:36:43.944Z</time></trkpt><trkpt lat="44.2742176" lon="10.9377363"><ele>803.5</ele><time>2026-04-25T09:36:44.943Z</time></trkpt><trkpt lat="44.2741076" lon="10.9378017"><ele>808.25</ele><time>2026-04-25T09:36:45.943Z</time></trkpt><trkpt lat="44.2739913" lon="10.9378512"><ele>813.0</ele><time>2026-04-25T09:36:46.944Z</time></trkpt><trkpt lat="44.2738714" lon="10.9378796"><ele>813.0</ele><time>2026-04-25T09:36:47.943Z</time></trkpt><trkpt lat="44.2737473" lon="10.9378894"><ele>813.0</ele><time>2026-04-25T09:36:48.943Z</time></trkpt><trkpt lat="44.2736146" lon="10.9379009"><ele>813.0</ele><time>2026-04-25T09:36:49.944Z</time></trkpt><trkpt lat="44.2734777" lon="10.9379034"><ele>813.0</ele><time>2026-04-25T09:36:50.944Z</time></trkpt><trkpt lat="44.273364" lon="10.9379752"><ele>813.0</ele><time>2026-04-25T09:36:51.943Z</time></trkpt><trkpt lat="44.2732629" lon="10.9380413"><ele>813.0</ele><time>2026-04-25T09:36:52.943Z</time></trkpt><trkpt lat="44.2730972" lon="10.9382399"><ele>813.0</ele><time>2026-04-25T09:36:54.944Z</time></trkpt><trkpt lat="44.2730232" lon="10.9383258"><ele>813.0</ele><time>2026-04-25T09:36:55.943Z</time></trkpt><trkpt lat="44.2729537" lon="10.938384"><ele>813.2</ele><time>2026-04-25T09:36:56.944Z</time></trkpt><trkpt lat="44.2728368" lon="10.9383561"><ele>813.4</ele><time>2026-04-25T09:36:58.944Z</time></trkpt><trkpt lat="44.2727892" lon="10.9381753"><ele>813.6</ele><time>2026-04-25T09:37:00.944Z</time></trkpt><trkpt lat="44.2727753" lon="10.9380499"><ele>813.8000000000001</ele><time>2026-04-25T09:37:01.944Z</time></trkpt><trkpt lat="44.2727173" lon="10.9379408"><ele>814.0</ele><time>2026-04-25T09:37:02.944Z</time></trkpt><trkpt lat="44.2726446" lon="10.9378399"><ele>814.0</ele><time>2026-04-25T09:37:03.944Z</time></trkpt><trkpt lat="44.2725573" lon="10.9377631"><ele>814.0</ele><time>2026-04-25T09:37:04.942Z</time></trkpt><trkpt lat="44.2724642" lon="10.937697"><ele>814.0</ele><time>2026-04-25T09:37:05.943Z</time></trkpt><trkpt lat="44.2723671" lon="10.9376513"><ele>814.0</ele><time>2026-04-25T09:37:06.944Z</time></trkpt><trkpt lat="44.2722537" lon="10.9376633"><ele>814.0</ele><time>2026-04-25T09:37:07.943Z</time></trkpt><trkpt lat="44.2721458" lon="10.9376857"><ele>814.5</ele><time>2026-04-25T09:37:08.944Z</time></trkpt><trkpt lat="44.2720349" lon="10.9377074"><ele>815.0</ele><time>2026-04-25T09:37:09.943Z</time></trkpt><trkpt lat="44.2719194" lon="10.9377227"><ele>815.5</ele><time>2026-04-25T09:37:10.943Z</time></trkpt><trkpt lat="44.271802" lon="10.9377293"><ele>816.0</ele><time>2026-04-25T09:37:11.943Z</time></trkpt><trkpt lat="44.2716786" lon="10.9377322"><ele>816.0</ele><time>2026-04-25T09:37:12.944Z</time></trkpt><trkpt lat="44.271551" lon="10.9377019"><ele>816.0</ele><time>2026-04-25T09:37:13.944Z</time></trkpt><trkpt lat="44.2714291" lon="10.9376785"><ele>816.0</ele><time>2026-04-25T09:37:14.944Z</time></trkpt><trkpt lat="44.2713105" lon="10.9376683"><ele>816.0</ele><time>2026-04-25T09:37:15.944Z</time></trkpt><trkpt lat="44.2711978" lon="10.9376526"><ele>813.4</ele><time>2026-04-25T09:37:16.944Z</time></trkpt><trkpt lat="44.2710872" lon="10.9376356"><ele>810.8</ele><time>2026-04-25T09:37:17.943Z</time></trkpt><trkpt lat="44.2709856" lon="10.9376151"><ele>808.1999999999999</ele><time>2026-04-25T09:37:18.943Z</time></trkpt><trkpt lat="44.2708731" lon="10.9375935"><ele>805.5999999999999</ele><time>2026-04-25T09:37:19.944Z</time></trkpt><trkpt lat="44.2707773" lon="10.9376067"><ele>803.0</ele><time>2026-04-25T09:37:20.943Z</time></trkpt><trkpt lat="44.2706732" lon="10.9376315"><ele>798.0</ele><time>2026-04-25T09:37:21.944Z</time></trkpt><trkpt lat="44.2706014" lon="10.9377323"><ele>793.0</ele><time>2026-04-25T09:37:22.943Z</time></trkpt><trkpt lat="44.2705214" lon="10.9378246"><ele>788.0</ele><time>2026-04-25T09:37:23.944Z</time></trkpt><trkpt lat="44.2704979" lon="10.9379745"><ele>783.0</ele><time>2026-04-25T09:37:24.944Z</time></trkpt><trkpt lat="44.2704699" lon="10.938108"><ele>778.0</ele><time>2026-04-25T09:37:25.944Z</time></trkpt><trkpt lat="44.2704639" lon="10.9382434"><ele>777.9999999999999</ele><time>2026-04-25T09:37:26.944Z</time></trkpt><trkpt lat="44.2704865" lon="10.9383627"><ele>778.0</ele><time>2026-04-25T09:37:27.942Z</time></trkpt><trkpt lat="44.2705339" lon="10.938462"><ele>778.0</ele><time>2026-04-25T09:37:28.943Z</time></trkpt><trkpt lat="44.2705945" lon="10.9385389"><ele>778.0</ele><time>2026-04-25T09:37:29.944Z</time></trkpt><trkpt lat="44.2706573" lon="10.9386153"><ele>777.9999999999999</ele><time>2026-04-25T09:37:30.943Z</time></trkpt><trkpt lat="44.2707142" lon="10.9386876"><ele>778.0</ele><time>2026-04-25T09:37:31.944Z</time></trkpt><trkpt lat="44.2707632" lon="10.9387733"><ele>780.8333333333333</ele><time>2026-04-25T09:37:32.943Z</time></trkpt><trkpt lat="44.2707974" lon="10.9388666"><ele>783.6666666666666</ele><time>2026-04-25T09:37:33.943Z</time></trkpt><trkpt lat="44.2707931" lon="10.9389648"><ele>786.5</ele><time>2026-04-25T09:37:34.943Z</time></trkpt><trkpt lat="44.2707959" lon="10.9390608"><ele>789.3333333333333</ele><time>2026-04-25T09:37:35.944Z</time></trkpt><trkpt lat="44.2707542" lon="10.9391281"><ele>792.1666666666666</ele><time>2026-04-25T09:37:36.942Z</time></trkpt><trkpt lat="44.2706297" lon="10.9391456"><ele>795.0</ele><time>2026-04-25T09:37:37.943Z</time></trkpt><trkpt lat="44.2705671" lon="10.939194"><ele>795.0</ele><time>2026-04-25T09:37:38.943Z</time></trkpt><trkpt lat="44.2704717" lon="10.9392348"><ele>795.0</ele><time>2026-04-25T09:37:39.943Z</time></trkpt><trkpt lat="44.2703745" lon="10.9392075"><ele>795.0</ele><time>2026-04-25T09:37:40.944Z</time></trkpt><trkpt lat="44.2703009" lon="10.9391971"><ele>795.0</ele><time>2026-04-25T09:37:41.943Z</time></trkpt><trkpt lat="44.2702193" lon="10.9391899"><ele>795.0</ele><time>2026-04-25T09:37:42.944Z</time></trkpt><trkpt lat="44.2701266" lon="10.9391855"><ele>795.0</ele><time>2026-04-25T09:37:43.943Z</time></trkpt><trkpt lat="44.2700473" lon="10.9391692"><ele>795.0</ele><time>2026-04-25T09:37:44.942Z</time></trkpt><trkpt lat="44.269968" lon="10.9391603"><ele>795.0</ele><time>2026-04-25T09:37:45.944Z</time></trkpt><trkpt lat="44.269888" lon="10.9391512"><ele>795.0</ele><time>2026-04-25T09:37:46.943Z</time></trkpt><trkpt lat="44.269802" lon="10.9391423"><ele>795.0</ele><time>2026-04-25T09:37:47.944Z</time></trkpt><trkpt lat="44.269735" lon="10.9391338"><ele>795.0</ele><time>2026-04-25T09:37:48.943Z</time></trkpt><trkpt lat="44.2696589" lon="10.9391221"><ele>795.0</ele><time>2026-04-25T09:37:49.944Z</time></trkpt><trkpt lat="44.2695937" lon="10.9391192"><ele>794.5</ele><time>2026-04-25T09:37:50.943Z</time></trkpt><trkpt lat="44.2694829" lon="10.9391533"><ele>794.0</ele><time>2026-04-25T09:37:52.943Z</time></trkpt><trkpt lat="44.269418" lon="10.9391851"><ele>793.5</ele><time>2026-04-25T09:37:53.944Z</time></trkpt><trkpt lat="44.2693589" lon="10.9392154"><ele>793.0</ele><time>2026-04-25T09:37:54.942Z</time></trkpt><trkpt lat="44.2692744" lon="10.9392843"><ele>792.5</ele><time>2026-04-25T09:37:56.943Z</time></trkpt><trkpt lat="44.2692129" lon="10.9393708"><ele>792.0</ele><time>2026-04-25T09:37:58.944Z</time></trkpt><trkpt lat="44.2691408" lon="10.9394575"><ele>793.3333333333334</ele><time>2026-04-25T09:38:00.942Z</time></trkpt><trkpt lat="44.2690682" lon="10.939574"><ele>794.6666666666667</ele><time>2026-04-25T09:38:02.942Z</time></trkpt><trkpt lat="44.2690388" lon="10.9396524"><ele>796.0</ele><time>2026-04-25T09:38:03.942Z</time></trkpt><trkpt lat="44.2690042" lon="10.9397272"><ele>797.3333333333334</ele><time>2026-04-25T09:38:04.943Z</time></trkpt><trkpt lat="44.2689293" lon="10.9398467"><ele>798.6666666666667</ele><time>2026-04-25T09:38:06.943Z</time></trkpt><trkpt lat="44.2688681" lon="10.9399332"><ele>800.0</ele><time>2026-04-25T09:38:08.942Z</time></trkpt><trkpt lat="44.2688141" lon="10.9399914"><ele>799.1666666666667</ele><time>2026-04-25T09:38:11.942Z</time></trkpt><trkpt lat="44.2687503" lon="10.9400805"><ele>798.3333333333334</ele><time>2026-04-25T09:38:14.943Z</time></trkpt><trkpt lat="44.2686874" lon="10.9401639"><ele>797.5</ele><time>2026-04-25T09:38:16.941Z</time></trkpt><trkpt lat="44.2686352" lon="10.9402408"><ele>796.6666666666667</ele><time>2026-04-25T09:38:18.943Z</time></trkpt><trkpt lat="44.268583" lon="10.9403135"><ele>795.8333333333334</ele><time>2026-04-25T09:38:20.942Z</time></trkpt><trkpt lat="44.2685333" lon="10.9403882"><ele>795.0</ele><time>2026-04-25T09:38:22.943Z</time></trkpt><trkpt lat="44.2684921" lon="10.9404863"><ele>795.0</ele><time>2026-04-25T09:38:24.943Z</time></trkpt><trkpt lat="44.2684229" lon="10.9405654"><ele>795.0</ele><time>2026-04-25T09:38:26.943Z</time></trkpt><trkpt lat="44.268347" lon="10.9406294"><ele>795.0</ele><time>2026-04-25T09:38:28.943Z</time></trkpt><trkpt lat="44.2682719" lon="10.9407043"><ele>795.0</ele><time>2026-04-25T09:38:30.942Z</time></trkpt><trkpt lat="44.2681825" lon="10.9407831"><ele>795.0</ele><time>2026-04-25T09:38:32.942Z</time></trkpt><trkpt lat="44.2681132" lon="10.9408413"><ele>793.0</ele><time>2026-04-25T09:38:34.943Z</time></trkpt><trkpt lat="44.2680194" lon="10.9408856"><ele>791.0</ele><time>2026-04-25T09:38:36.943Z</time></trkpt><trkpt lat="44.2679265" lon="10.9409198"><ele>789.0</ele><time>2026-04-25T09:38:38.943Z</time></trkpt><trkpt lat="44.2678426" lon="10.9409303"><ele>787.0</ele><time>2026-04-25T09:38:41.943Z</time></trkpt><trkpt lat="44.2677802" lon="10.9409666"><ele>785.0</ele><time>2026-04-25T09:38:44.941Z</time></trkpt><trkpt lat="44.2677691" lon="10.9410693"><ele>783.0</ele><time>2026-04-25T09:38:55.942Z</time></trkpt><trkpt lat="44.2677167" lon="10.9411546"><ele>783.0</ele><time>2026-04-25T09:40:53.943Z</time></trkpt><trkpt lat="44.2676526" lon="10.9411153"><ele>783.0</ele><time>2026-04-25T09:43:15.942Z</time></trkpt><trkpt lat="44.2677147" lon="10.9411302"><ele>783.0</ele><time>2026-04-25T09:47:29.941Z</time></trkpt><trkpt lat="44.2677798" lon="10.941148"><ele>783.0</ele><time>2026-04-25T09:52:35.941Z</time></trkpt><trkpt lat="44.2678555" lon="10.9411403"><ele>783.0</ele><time>2026-04-25T10:02:04.94Z</time></trkpt><trkpt lat="44.2679251" lon="10.9411852"><ele>783.0</ele><time>2026-04-25T10:02:06.94Z</time></trkpt><trkpt lat="44.2680243" lon="10.9412386"><ele>783.8</ele><time>2026-04-25T10:02:08.939Z</time></trkpt><trkpt lat="44.2681127" lon="10.9412921"><ele>784.5999999999999</ele><time>2026-04-25T10:02:10.94Z</time></trkpt><trkpt lat="44.268194" lon="10.9413426"><ele>785.4000000000001</ele><time>2026-04-25T10:02:12.939Z</time></trkpt><trkpt lat="44.2683063" lon="10.9414481"><ele>786.2</ele><time>2026-04-25T10:02:14.939Z</time></trkpt><trkpt lat="44.2683715" lon="10.9415081"><ele>787.0</ele><time>2026-04-25T10:02:15.938Z</time></trkpt><trkpt lat="44.2684385" lon="10.941549"><ele>786.9999999999999</ele><time>2026-04-25T10:02:16.94Z</time></trkpt><trkpt lat="44.268512" lon="10.9415967"><ele>787.0</ele><time>2026-04-25T10:02:17.94Z</time></trkpt><trkpt lat="44.2685919" lon="10.9416327"><ele>787.0</ele><time>2026-04-25T10:02:18.939Z</time></trkpt><trkpt lat="44.2686763" lon="10.9416698"><ele>787.0</ele><time>2026-04-25T10:02:19.94Z</time></trkpt><trkpt lat="44.268758" lon="10.9417251"><ele>786.9999999999999</ele><time>2026-04-25T10:02:20.939Z</time></trkpt><trkpt lat="44.2688239" lon="10.9418163"><ele>787.0</ele><time>2026-04-25T10:02:21.939Z</time></trkpt><trkpt lat="44.2688826" lon="10.9419089"><ele>788.1666666666666</ele><time>2026-04-25T10:02:22.939Z</time></trkpt><trkpt lat="44.2689403" lon="10.9420165"><ele>789.3333333333333</ele><time>2026-04-25T10:02:23.94Z</time></trkpt><trkpt lat="44.2689882" lon="10.9421125"><ele>790.5</ele><time>2026-04-25T10:02:24.94Z</time></trkpt><trkpt lat="44.2690288" lon="10.9421999"><ele>791.6666666666667</ele><time>2026-04-25T10:02:25.94Z</time></trkpt><trkpt lat="44.2690711" lon="10.9422763"><ele>792.8333333333334</ele><time>2026-04-25T10:02:26.939Z</time></trkpt><trkpt lat="44.2691115" lon="10.9423787"><ele>794.0</ele><time>2026-04-25T10:02:27.94Z</time></trkpt><trkpt lat="44.269155" lon="10.9424894"><ele>792.6</ele><time>2026-04-25T10:02:28.94Z</time></trkpt><trkpt lat="44.2691891" lon="10.9426016"><ele>791.2</ele><time>2026-04-25T10:02:29.94Z</time></trkpt><trkpt lat="44.2692279" lon="10.9427335"><ele>789.8000000000001</ele><time>2026-04-25T10:02:30.94Z</time></trkpt><trkpt lat="44.2692626" lon="10.9428724"><ele>788.4000000000001</ele><time>2026-04-25T10:02:31.939Z</time></trkpt><trkpt lat="44.2692992" lon="10.9430233"><ele>787.0</ele><time>2026-04-25T10:02:32.94Z</time></trkpt><trkpt lat="44.2693333" lon="10.9431647"><ele>787.0</ele><time>2026-04-25T10:02:33.94Z</time></trkpt><trkpt lat="44.2693646" lon="10.9433013"><ele>787.0</ele><time>2026-04-25T10:02:34.94Z</time></trkpt><trkpt lat="44.269404" lon="10.9434368"><ele>787.0</ele><time>2026-04-25T10:02:35.939Z</time></trkpt><trkpt lat="44.2694328" lon="10.943563"><ele>787.0</ele><time>2026-04-25T10:02:36.939Z</time></trkpt><trkpt lat="44.2694655" lon="10.9436854"><ele>787.0</ele><time>2026-04-25T10:02:37.94Z</time></trkpt><trkpt lat="44.2695036" lon="10.9438094"><ele>785.4000000000001</ele><time>2026-04-25T10:02:38.939Z</time></trkpt><trkpt lat="44.2695441" lon="10.9439375"><ele>783.8000000000001</ele><time>2026-04-25T10:02:39.939Z</time></trkpt><trkpt lat="44.2695894" lon="10.944063"><ele>782.2</ele><time>2026-04-25T10:02:40.94Z</time></trkpt><trkpt lat="44.2696366" lon="10.9441827"><ele>780.6</ele><time>2026-04-25T10:02:41.94Z</time></trkpt><trkpt lat="44.2696755" lon="10.9442986"><ele>779.0</ele><time>2026-04-25T10:02:42.938Z</time></trkpt><trkpt lat="44.2697028" lon="10.9444227"><ele>777.8000000000001</ele><time>2026-04-25T10:02:43.94Z</time></trkpt><trkpt lat="44.269719" lon="10.944557"><ele>776.6</ele><time>2026-04-25T10:02:44.939Z</time></trkpt><trkpt lat="44.2697119" lon="10.9447054"><ele>775.4</ele><time>2026-04-25T10:02:45.939Z</time></trkpt><trkpt lat="44.2697021" lon="10.9448526"><ele>774.2</ele><time>2026-04-25T10:02:46.939Z</time></trkpt><trkpt lat="44.2696624" lon="10.9450234"><ele>773.0</ele><time>2026-04-25T10:02:47.939Z</time></trkpt><trkpt lat="44.26963" lon="10.9451789"><ele>773.0</ele><time>2026-04-25T10:02:48.94Z</time></trkpt><trkpt lat="44.269595" lon="10.9453618"><ele>773.0</ele><time>2026-04-25T10:02:49.939Z</time></trkpt><trkpt lat="44.2695762" lon="10.9455444"><ele>773.0</ele><time>2026-04-25T10:02:50.94Z</time></trkpt><trkpt lat="44.2695742" lon="10.9457232"><ele>773.0</ele><time>2026-04-25T10:02:51.939Z</time></trkpt><trkpt lat="44.2695679" lon="10.9458909"><ele>773.0</ele><time>2026-04-25T10:02:52.939Z</time></trkpt><trkpt lat="44.2695556" lon="10.9460299"><ele>773.0</ele><time>2026-04-25T10:02:53.939Z</time></trkpt><trkpt lat="44.2695478" lon="10.9461496"><ele>773.0</ele><time>2026-04-25T10:02:54.94Z</time></trkpt><trkpt lat="44.2695361" lon="10.9462502"><ele>773.0</ele><time>2026-04-25T10:02:55.94Z</time></trkpt><trkpt lat="44.2695233" lon="10.9463435"><ele>773.0</ele><time>2026-04-25T10:02:56.938Z</time></trkpt><trkpt lat="44.2695005" lon="10.9465134"><ele>773.0000000000001</ele><time>2026-04-25T10:02:58.939Z</time></trkpt><trkpt lat="44.2694877" lon="10.9465998"><ele>773.0</ele><time>2026-04-25T10:02:59.939Z</time></trkpt><trkpt lat="44.2694684" lon="10.9466861"><ele>773.0</ele><time>2026-04-25T10:03:00.939Z</time></trkpt><trkpt lat="44.2694434" lon="10.9467798"><ele>773.0</ele><time>2026-04-25T10:03:01.94Z</time></trkpt><trkpt lat="44.2694094" lon="10.9468757"><ele>773.0000000000001</ele><time>2026-04-25T10:03:02.94Z</time></trkpt><trkpt lat="44.2693744" lon="10.9469901"><ele>773.0</ele><time>2026-04-25T10:03:03.939Z</time></trkpt><trkpt lat="44.2693366" lon="10.9471105"><ele>773.0000000000001</ele><time>2026-04-25T10:03:04.938Z</time></trkpt><trkpt lat="44.2692904" lon="10.9472275"><ele>773.0</ele><time>2026-04-25T10:03:05.939Z</time></trkpt><trkpt lat="44.2692458" lon="10.9473365"><ele>773.0</ele><time>2026-04-25T10:03:06.939Z</time></trkpt><trkpt lat="44.2692095" lon="10.9474375"><ele>773.0</ele><time>2026-04-25T10:03:07.939Z</time></trkpt><trkpt lat="44.2691767" lon="10.9475219"><ele>773.0000000000001</ele><time>2026-04-25T10:03:08.939Z</time></trkpt><trkpt lat="44.2691295" lon="10.9476419"><ele>773.0</ele><time>2026-04-25T10:03:10.94Z</time></trkpt><trkpt lat="44.2690922" lon="10.9477347"><ele>772.6666666666667</ele><time>2026-04-25T10:03:12.94Z</time></trkpt><trkpt lat="44.2690464" lon="10.9478343"><ele>772.3333333333334</ele><time>2026-04-25T10:03:15.94Z</time></trkpt><trkpt lat="44.2690081" lon="10.9479273"><ele>772.0</ele><time>2026-04-25T10:03:18.939Z</time></trkpt><trkpt lat="44.2689635" lon="10.9480066"><ele>771.6666666666667</ele><time>2026-04-25T10:03:54.94Z</time></trkpt><trkpt lat="44.2689312" lon="10.9480916"><ele>771.3333333333334</ele><time>2026-04-25T10:03:56.939Z</time></trkpt><trkpt lat="44.268862" lon="10.9482527"><ele>771.0</ele><time>2026-04-25T10:03:58.94Z</time></trkpt><trkpt lat="44.2688174" lon="10.9483689"><ele>769.5999999999999</ele><time>2026-04-25T10:03:59.94Z</time></trkpt><trkpt lat="44.2687681" lon="10.9485059"><ele>768.2</ele><time>2026-04-25T10:04:00.94Z</time></trkpt><trkpt lat="44.2687215" lon="10.9486408"><ele>766.8</ele><time>2026-04-25T10:04:01.94Z</time></trkpt><trkpt lat="44.2686748" lon="10.9487765"><ele>765.4000000000001</ele><time>2026-04-25T10:04:02.94Z</time></trkpt><trkpt lat="44.2686274" lon="10.9489061"><ele>764.0</ele><time>2026-04-25T10:04:03.938Z</time></trkpt><trkpt lat="44.2685755" lon="10.9490437"><ele>764.0</ele><time>2026-04-25T10:04:04.94Z</time></trkpt><trkpt lat="44.2685276" lon="10.9491846"><ele>764.0</ele><time>2026-04-25T10:04:05.94Z</time></trkpt><trkpt lat="44.2684841" lon="10.949325"><ele>764.0</ele><time>2026-04-25T10:04:06.939Z</time></trkpt><trkpt lat="44.2684404" lon="10.9494954"><ele>764.0</ele><time>2026-04-25T10:04:07.94Z</time></trkpt><trkpt lat="44.2684141" lon="10.9497024"><ele>765.0</ele><time>2026-04-25T10:04:08.94Z</time></trkpt><trkpt lat="44.2684119" lon="10.9499098"><ele>766.0</ele><time>2026-04-25T10:04:09.939Z</time></trkpt><trkpt lat="44.2684177" lon="10.9500945"><ele>767.0</ele><time>2026-04-25T10:04:10.94Z</time></trkpt><trkpt lat="44.2684149" lon="10.9502653"><ele>768.0</ele><time>2026-04-25T10:04:11.94Z</time></trkpt><trkpt lat="44.2684143" lon="10.9504273"><ele>768.2</ele><time>2026-04-25T10:04:12.939Z</time></trkpt><trkpt lat="44.2684099" lon="10.9505928"><ele>768.4</ele><time>2026-04-25T10:04:13.938Z</time></trkpt><trkpt lat="44.2683937" lon="10.9507509"><ele>768.6</ele><time>2026-04-25T10:04:14.939Z</time></trkpt><trkpt lat="44.2683715" lon="10.9509001"><ele>768.8000000000001</ele><time>2026-04-25T10:04:15.94Z</time></trkpt><trkpt lat="44.268351" lon="10.9510374"><ele>769.0</ele><time>2026-04-25T10:04:16.939Z</time></trkpt><trkpt lat="44.2683352" lon="10.9511674"><ele>769.1666666666666</ele><time>2026-04-25T10:04:17.938Z</time></trkpt><trkpt lat="44.2683116" lon="10.9512836"><ele>769.3333333333333</ele><time>2026-04-25T10:04:18.939Z</time></trkpt><trkpt lat="44.2682942" lon="10.9513997"><ele>769.5</ele><time>2026-04-25T10:04:19.939Z</time></trkpt><trkpt lat="44.268273" lon="10.951508"><ele>769.6666666666667</ele><time>2026-04-25T10:04:20.939Z</time></trkpt><trkpt lat="44.2682481" lon="10.951614"><ele>769.8333333333334</ele><time>2026-04-25T10:04:21.939Z</time></trkpt><trkpt lat="44.2682238" lon="10.9517212"><ele>770.0</ele><time>2026-04-25T10:04:22.94Z</time></trkpt><trkpt lat="44.2682075" lon="10.9518278"><ele>769.7142857142857</ele><time>2026-04-25T10:04:23.939Z</time></trkpt><trkpt lat="44.2681971" lon="10.9519294"><ele>769.4285714285714</ele><time>2026-04-25T10:04:24.939Z</time></trkpt><trkpt lat="44.2681869" lon="10.9520298"><ele>769.1428571428571</ele><time>2026-04-25T10:04:25.94Z</time></trkpt><trkpt lat="44.2681789" lon="10.9521268"><ele>768.8571428571429</ele><time>2026-04-25T10:04:26.94Z</time></trkpt><trkpt lat="44.2681708" lon="10.9522216"><ele>768.5714285714286</ele><time>2026-04-25T10:04:27.939Z</time></trkpt><trkpt lat="44.2681635" lon="10.9523127"><ele>768.2857142857142</ele><time>2026-04-25T10:04:28.94Z</time></trkpt><trkpt lat="44.2681571" lon="10.9524069"><ele>768.0</ele><time>2026-04-25T10:04:29.938Z</time></trkpt><trkpt lat="44.2681504" lon="10.9524977"><ele>767.0</ele><time>2026-04-25T10:04:30.94Z</time></trkpt><trkpt lat="44.2681452" lon="10.9525899"><ele>766.0</ele><time>2026-04-25T10:04:31.94Z</time></trkpt><trkpt lat="44.2681412" lon="10.9526831"><ele>765.0</ele><time>2026-04-25T10:04:32.94Z</time></trkpt><trkpt lat="44.2681314" lon="10.9528421"><ele>764.0</ele><time>2026-04-25T10:04:34.94Z</time></trkpt><trkpt lat="44.2681218" lon="10.9529676"><ele>763.0</ele><time>2026-04-25T10:04:36.939Z</time></trkpt><trkpt lat="44.2681282" lon="10.953074"><ele>762.0</ele><time>2026-04-25T10:04:39.939Z</time></trkpt><trkpt lat="44.2681626" lon="10.9531696"><ele>762.0</ele><time>2026-04-25T10:04:50.94Z</time></trkpt><trkpt lat="44.2682235" lon="10.9532531"><ele>762.0</ele><time>2026-04-25T10:04:53.94Z</time></trkpt><trkpt lat="44.2682722" lon="10.9533344"><ele>762.0</ele><time>2026-04-25T10:04:55.939Z</time></trkpt><trkpt lat="44.2683155" lon="10.9534282"><ele>762.0</ele><time>2026-04-25T10:04:57.939Z</time></trkpt><trkpt lat="44.2683618" lon="10.9535289"><ele>762.0</ele><time>2026-04-25T10:04:59.939Z</time></trkpt><trkpt lat="44.2684005" lon="10.9536284"><ele>762.0</ele><time>2026-04-25T10:05:01.939Z</time></trkpt><trkpt lat="44.2684273" lon="10.9537309"><ele>760.3333333333334</ele><time>2026-04-25T10:05:03.939Z</time></trkpt><trkpt lat="44.2684348" lon="10.9538482"><ele>758.6666666666666</ele><time>2026-04-25T10:05:05.939Z</time></trkpt><trkpt lat="44.2684629" lon="10.953968"><ele>757.0</ele><time>2026-04-25T10:05:07.939Z</time></trkpt><trkpt lat="44.2685411" lon="10.9540564"><ele>755.3333333333333</ele><time>2026-04-25T10:05:09.94Z</time></trkpt><trkpt lat="44.2686196" lon="10.954092"><ele>753.6666666666666</ele><time>2026-04-25T10:05:11.939Z</time></trkpt><trkpt lat="44.2687095" lon="10.9540817"><ele>752.0</ele><time>2026-04-25T10:05:14.939Z</time></trkpt><trkpt lat="44.2687722" lon="10.9540524"><ele>752.0</ele><time>2026-04-25T10:05:16.94Z</time></trkpt><trkpt lat="44.2688398" lon="10.954019"><ele>752.0</ele><time>2026-04-25T10:05:18.939Z</time></trkpt><trkpt lat="44.2689134" lon="10.9539865"><ele>752.0</ele><time>2026-04-25T10:05:20.939Z</time></trkpt><trkpt lat="44.2689995" lon="10.9539665"><ele>752.0</ele><time>2026-04-25T10:05:22.939Z</time></trkpt><trkpt lat="44.2690913" lon="10.9539731"><ele>752.0</ele><time>2026-04-25T10:05:24.94Z</time></trkpt><trkpt lat="44.2691892" lon="10.9539992"><ele>752.0</ele><time>2026-04-25T10:05:26.94Z</time></trkpt><trkpt lat="44.2692781" lon="10.954023"><ele>752.0</ele><time>2026-04-25T10:05:29.939Z</time></trkpt><trkpt lat="44.2693743" lon="10.9540136"><ele>752.0</ele><time>2026-04-25T10:05:33.939Z</time></trkpt><trkpt lat="44.2694662" lon="10.9540262"><ele>752.0</ele><time>2026-04-25T10:05:35.94Z</time></trkpt><trkpt lat="44.2695496" lon="10.954019"><ele>752.0</ele><time>2026-04-25T10:05:37.939Z</time></trkpt><trkpt lat="44.2696324" lon="10.9540649"><ele>752.0</ele><time>2026-04-25T10:05:39.94Z</time></trkpt><trkpt lat="44.2696784" lon="10.954126"><ele>752.0</ele><time>2026-04-25T10:05:40.94Z</time></trkpt><trkpt lat="44.2697273" lon="10.95419"><ele>750.0</ele><time>2026-04-25T10:05:41.94Z</time></trkpt><trkpt lat="44.2697773" lon="10.9542619"><ele>748.0</ele><time>2026-04-25T10:05:42.94Z</time></trkpt><trkpt lat="44.2698305" lon="10.9543383"><ele>746.0</ele><time>2026-04-25T10:05:43.94Z</time></trkpt><trkpt lat="44.2698867" lon="10.954417"><ele>744.0</ele><time>2026-04-25T10:05:44.938Z</time></trkpt><trkpt lat="44.2699403" lon="10.9544968"><ele>742.0</ele><time>2026-04-25T10:05:45.939Z</time></trkpt><trkpt lat="44.269995" lon="10.9545688"><ele>740.0</ele><time>2026-04-25T10:05:46.94Z</time></trkpt><trkpt lat="44.2700602" lon="10.9546198"><ele>740.0</ele><time>2026-04-25T10:05:47.94Z</time></trkpt><trkpt lat="44.2701421" lon="10.9546426"><ele>740.0</ele><time>2026-04-25T10:05:48.939Z</time></trkpt><trkpt lat="44.2702101" lon="10.9546823"><ele>740.0</ele><time>2026-04-25T10:05:49.939Z</time></trkpt><trkpt lat="44.2702799" lon="10.9547438"><ele>740.0</ele><time>2026-04-25T10:05:50.94Z</time></trkpt><trkpt lat="44.270344" lon="10.9548113"><ele>740.0</ele><time>2026-04-25T10:05:51.94Z</time></trkpt><trkpt lat="44.2704131" lon="10.954865"><ele>740.0</ele><time>2026-04-25T10:05:52.939Z</time></trkpt><trkpt lat="44.2704797" lon="10.9548947"><ele>740.0</ele><time>2026-04-25T10:05:53.939Z</time></trkpt><trkpt lat="44.2705516" lon="10.9548977"><ele>740.0</ele><time>2026-04-25T10:05:54.939Z</time></trkpt><trkpt lat="44.2706236" lon="10.9548752"><ele>740.0</ele><time>2026-04-25T10:05:55.94Z</time></trkpt><trkpt lat="44.2707321" lon="10.9548373"><ele>740.0</ele><time>2026-04-25T10:05:57.94Z</time></trkpt><trkpt lat="44.2708114" lon="10.9547959"><ele>740.0</ele><time>2026-04-25T10:05:59.94Z</time></trkpt><trkpt lat="44.2708876" lon="10.9547559"><ele>740.0</ele><time>2026-04-25T10:06:01.94Z</time></trkpt><trkpt lat="44.2709362" lon="10.9548441"><ele>739.8333333333333</ele><time>2026-04-25T10:06:04.94Z</time></trkpt><trkpt lat="44.2709032" lon="10.9549642"><ele>739.6666666666666</ele><time>2026-04-25T10:06:06.939Z</time></trkpt><trkpt lat="44.2709178" lon="10.9551332"><ele>739.5</ele><time>2026-04-25T10:06:08.939Z</time></trkpt><trkpt lat="44.2709535" lon="10.9552159"><ele>739.3333333333334</ele><time>2026-04-25T10:06:09.939Z</time></trkpt><trkpt lat="44.2709959" lon="10.9552892"><ele>739.1666666666667</ele><time>2026-04-25T10:06:10.94Z</time></trkpt><trkpt lat="44.2710388" lon="10.9553635"><ele>739.0</ele><time>2026-04-25T10:06:11.94Z</time></trkpt><trkpt lat="44.2710875" lon="10.9554203"><ele>736.2</ele><time>2026-04-25T10:06:12.939Z</time></trkpt><trkpt lat="44.2711419" lon="10.955465"><ele>733.4000000000001</ele><time>2026-04-25T10:06:13.94Z</time></trkpt><trkpt lat="44.2712468" lon="10.9555122"><ele>730.6</ele><time>2026-04-25T10:06:15.94Z</time></trkpt><trkpt lat="44.2713468" lon="10.9555692"><ele>727.8</ele><time>2026-04-25T10:06:17.94Z</time></trkpt><trkpt lat="44.2714512" lon="10.9556575"><ele>725.0</ele><time>2026-04-25T10:06:19.94Z</time></trkpt><trkpt lat="44.2715089" lon="10.9557015"><ele>723.3333333333333</ele><time>2026-04-25T10:06:20.939Z</time></trkpt><trkpt lat="44.2715926" lon="10.9558397"><ele>721.6666666666666</ele><time>2026-04-25T10:06:22.94Z</time></trkpt><trkpt lat="44.2716445" lon="10.9559439"><ele>720.0</ele><time>2026-04-25T10:06:24.94Z</time></trkpt><trkpt lat="44.2716819" lon="10.9560302"><ele>718.3333333333334</ele><time>2026-04-25T10:06:26.939Z</time></trkpt><trkpt lat="44.2717105" lon="10.9561156"><ele>716.6666666666667</ele><time>2026-04-25T10:06:28.939Z</time></trkpt><trkpt lat="44.2717566" lon="10.9561763"><ele>715.0</ele><time>2026-04-25T10:06:30.94Z</time></trkpt><trkpt lat="44.2718127" lon="10.9561299"><ele>712.5</ele><time>2026-04-25T10:06:32.94Z</time></trkpt><trkpt lat="44.2718754" lon="10.9560855"><ele>710.0</ele><time>2026-04-25T10:06:34.939Z</time></trkpt><trkpt lat="44.2719149" lon="10.9561622"><ele>707.5</ele><time>2026-04-25T10:06:36.939Z</time></trkpt><trkpt lat="44.271913" lon="10.9562587"><ele>705.0</ele><time>2026-04-25T10:06:38.94Z</time></trkpt><trkpt lat="44.2718993" lon="10.9563623"><ele>702.5</ele><time>2026-04-25T10:06:40.939Z</time></trkpt><trkpt lat="44.2719316" lon="10.9564826"><ele>700.0</ele><time>2026-04-25T10:06:43.94Z</time></trkpt><trkpt lat="44.2720069" lon="10.9565177"><ele>700.0</ele><time>2026-04-25T10:06:45.939Z</time></trkpt><trkpt lat="44.2720714" lon="10.9564489"><ele>700.0</ele><time>2026-04-25T10:06:46.94Z</time></trkpt><trkpt lat="44.2720953" lon="10.9563589"><ele>700.0</ele><time>2026-04-25T10:06:47.94Z</time></trkpt><trkpt lat="44.2721367" lon="10.9561419"><ele>700.0</ele><time>2026-04-25T10:06:49.94Z</time></trkpt><trkpt lat="44.2721588" lon="10.9560139"><ele>700.0</ele><time>2026-04-25T10:06:50.94Z</time></trkpt><trkpt lat="44.2721849" lon="10.9558585"><ele>699.4</ele><time>2026-04-25T10:06:52.939Z</time></trkpt><trkpt lat="44.2722153" lon="10.9557385"><ele>698.8</ele><time>2026-04-25T10:06:55.94Z</time></trkpt><trkpt lat="44.2722881" lon="10.9558955"><ele>698.2</ele><time>2026-04-25T10:06:57.94Z</time></trkpt><trkpt lat="44.2723381" lon="10.9559902"><ele>697.6</ele><time>2026-04-25T10:06:58.94Z</time></trkpt><trkpt lat="44.2724152" lon="10.9560753"><ele>697.0</ele><time>2026-04-25T10:06:59.938Z</time></trkpt><trkpt lat="44.2724861" lon="10.9561292"><ele>697.0</ele><time>2026-04-25T10:07:00.94Z</time></trkpt><trkpt lat="44.2725326" lon="10.956193"><ele>697.0</ele><time>2026-04-25T10:07:01.939Z</time></trkpt><trkpt lat="44.2726082" lon="10.9562613"><ele>697.0</ele><time>2026-04-25T10:07:04.94Z</time></trkpt><trkpt lat="44.2726709" lon="10.9561819"><ele>697.0</ele><time>2026-04-25T10:07:05.94Z</time></trkpt><trkpt lat="44.2727677" lon="10.9561045"><ele>697.0</ele><time>2026-04-25T10:07:07.94Z</time></trkpt><trkpt lat="44.2728455" lon="10.9560509"><ele>697.0</ele><time>2026-04-25T10:07:09.94Z</time></trkpt><trkpt lat="44.2729126" lon="10.956005"><ele>697.0</ele><time>2026-04-25T10:07:10.939Z</time></trkpt><trkpt lat="44.2730141" lon="10.9559373"><ele>697.0</ele><time>2026-04-25T10:07:11.94Z</time></trkpt><trkpt lat="44.2731187" lon="10.9558887"><ele>697.0</ele><time>2026-04-25T10:07:12.938Z</time></trkpt><trkpt lat="44.273195" lon="10.9558525"><ele>697.0</ele><time>2026-04-25T10:07:13.939Z</time></trkpt><trkpt lat="44.2732747" lon="10.9557836"><ele>697.0</ele><time>2026-04-25T10:07:14.94Z</time></trkpt><trkpt lat="44.2733497" lon="10.9557167"><ele>700.2</ele><time>2026-04-25T10:07:15.939Z</time></trkpt><trkpt lat="44.2734304" lon="10.9555746"><ele>703.4000000000001</ele><time>2026-04-25T10:07:17.939Z</time></trkpt><trkpt lat="44.2734754" lon="10.9554725"><ele>706.5999999999999</ele><time>2026-04-25T10:07:18.94Z</time></trkpt><trkpt lat="44.2735289" lon="10.9553885"><ele>709.8</ele><time>2026-04-25T10:07:19.94Z</time></trkpt><trkpt lat="44.2735774" lon="10.955294"><ele>713.0</ele><time>2026-04-25T10:07:20.939Z</time></trkpt><trkpt lat="44.2736177" lon="10.9551817"><ele>713.0</ele><time>2026-04-25T10:07:21.939Z</time></trkpt><trkpt lat="44.2736489" lon="10.9550734"><ele>713.0</ele><time>2026-04-25T10:07:22.94Z</time></trkpt><trkpt lat="44.2736807" lon="10.9549686"><ele>713.0</ele><time>2026-04-25T10:07:23.938Z</time></trkpt><trkpt lat="44.2737036" lon="10.9548741"><ele>713.0</ele><time>2026-04-25T10:07:24.94Z</time></trkpt><trkpt lat="44.2737622" lon="10.9547668"><ele>713.0</ele><time>2026-04-25T10:07:26.939Z</time></trkpt><trkpt lat="44.2738229" lon="10.9548712"><ele>713.0</ele><time>2026-04-25T10:07:31.94Z</time></trkpt><trkpt lat="44.2738148" lon="10.9550612"><ele>713.0</ele><time>2026-04-25T10:07:33.94Z</time></trkpt><trkpt lat="44.2737889" lon="10.955235"><ele>713.0</ele><time>2026-04-25T10:07:34.939Z</time></trkpt><trkpt lat="44.2737741" lon="10.955354"><ele>713.0</ele><time>2026-04-25T10:07:35.94Z</time></trkpt><trkpt lat="44.2737635" lon="10.9554543"><ele>713.0</ele><time>2026-04-25T10:07:36.939Z</time></trkpt><trkpt lat="44.2737667" lon="10.9555501"><ele>713.0</ele><time>2026-04-25T10:07:37.939Z</time></trkpt><trkpt lat="44.2738227" lon="10.9557032"><ele>713.0</ele><time>2026-04-25T10:07:39.94Z</time></trkpt><trkpt lat="44.2738934" lon="10.955836"><ele>713.0</ele><time>2026-04-25T10:07:41.938Z</time></trkpt><trkpt lat="44.2739447" lon="10.9559356"><ele>713.0</ele><time>2026-04-25T10:07:42.939Z</time></trkpt><trkpt lat="44.273994" lon="10.9560465"><ele>713.0</ele><time>2026-04-25T10:07:43.94Z</time></trkpt><trkpt lat="44.2740372" lon="10.9561636"><ele>713.0</ele><time>2026-04-25T10:07:44.939Z</time></trkpt><trkpt lat="44.2741127" lon="10.9563024"><ele>712.4</ele><time>2026-04-25T10:07:46.939Z</time></trkpt><trkpt lat="44.2741807" lon="10.9563712"><ele>711.8</ele><time>2026-04-25T10:07:48.94Z</time></trkpt><trkpt lat="44.2742473" lon="10.9564346"><ele>711.2</ele><time>2026-04-25T10:07:50.939Z</time></trkpt><trkpt lat="44.2743209" lon="10.9565124"><ele>710.6</ele><time>2026-04-25T10:07:52.939Z</time></trkpt><trkpt lat="44.2743961" lon="10.9566309"><ele>710.0</ele><time>2026-04-25T10:07:54.94Z</time></trkpt><trkpt lat="44.2744901" lon="10.9567516"><ele>709.0</ele><time>2026-04-25T10:07:56.94Z</time></trkpt><trkpt lat="44.2745449" lon="10.9568159"><ele>708.0</ele><time>2026-04-25T10:07:57.939Z</time></trkpt><trkpt lat="44.2746046" lon="10.956889"><ele>707.0</ele><time>2026-04-25T10:07:58.94Z</time></trkpt><trkpt lat="44.2746678" lon="10.9569476"><ele>706.0</ele><time>2026-04-25T10:07:59.94Z</time></trkpt><trkpt lat="44.2747233" lon="10.9570051"><ele>705.0</ele><time>2026-04-25T10:08:00.94Z</time></trkpt><trkpt lat="44.2747553" lon="10.9570889"><ele>704.0</ele><time>2026-04-25T10:08:01.939Z</time></trkpt><trkpt lat="44.2747732" lon="10.9572767"><ele>704.0</ele><time>2026-04-25T10:08:03.94Z</time></trkpt><trkpt lat="44.2747919" lon="10.9573657"><ele>704.0</ele><time>2026-04-25T10:08:04.94Z</time></trkpt><trkpt lat="44.2748299" lon="10.9574703"><ele>704.0</ele><time>2026-04-25T10:08:05.939Z</time></trkpt><trkpt lat="44.2748747" lon="10.9575746"><ele>704.0</ele><time>2026-04-25T10:08:06.939Z</time></trkpt><trkpt lat="44.2749187" lon="10.9576621"><ele>704.0</ele><time>2026-04-25T10:08:07.939Z</time></trkpt><trkpt lat="44.2749635" lon="10.9577432"><ele>704.0</ele><time>2026-04-25T10:08:08.939Z</time></trkpt><trkpt lat="44.2750234" lon="10.9578108"><ele>701.8333333333333</ele><time>2026-04-25T10:08:09.938Z</time></trkpt><trkpt lat="44.2750819" lon="10.9578522"><ele>699.6666666666666</ele><time>2026-04-25T10:08:10.939Z</time></trkpt><trkpt lat="44.2751353" lon="10.9579157"><ele>697.5</ele><time>2026-04-25T10:08:11.939Z</time></trkpt><trkpt lat="44.2751865" lon="10.9579814"><ele>695.3333333333334</ele><time>2026-04-25T10:08:12.939Z</time></trkpt><trkpt lat="44.2752431" lon="10.9580408"><ele>693.1666666666667</ele><time>2026-04-25T10:08:13.938Z</time></trkpt><trkpt lat="44.2753488" lon="10.9580762"><ele>691.0</ele><time>2026-04-25T10:08:15.938Z</time></trkpt><trkpt lat="44.2754211" lon="10.9580649"><ele>691.0</ele><time>2026-04-25T10:08:16.939Z</time></trkpt><trkpt lat="44.2754975" lon="10.9580259"><ele>691.0</ele><time>2026-04-25T10:08:17.939Z</time></trkpt><trkpt lat="44.2755708" lon="10.9579738"><ele>691.0</ele><time>2026-04-25T10:08:18.939Z</time></trkpt><trkpt lat="44.2756495" lon="10.9579269"><ele>691.0</ele><time>2026-04-25T10:08:19.939Z</time></trkpt><trkpt lat="44.2757261" lon="10.9578805"><ele>691.0</ele><time>2026-04-25T10:08:20.938Z</time></trkpt><trkpt lat="44.2758078" lon="10.9578304"><ele>691.0</ele><time>2026-04-25T10:08:21.939Z</time></trkpt><trkpt lat="44.2758917" lon="10.9577763"><ele>693.0</ele><time>2026-04-25T10:08:22.938Z</time></trkpt><trkpt lat="44.2759706" lon="10.9577248"><ele>695.0</ele><time>2026-04-25T10:08:23.939Z</time></trkpt><trkpt lat="44.2760553" lon="10.9576839"><ele>697.0</ele><time>2026-04-25T10:08:24.939Z</time></trkpt><trkpt lat="44.2761414" lon="10.9576479"><ele>699.0</ele><time>2026-04-25T10:08:25.939Z</time></trkpt><trkpt lat="44.2762314" lon="10.9576228"><ele>701.0</ele><time>2026-04-25T10:08:26.938Z</time></trkpt><trkpt lat="44.2763213" lon="10.9576133"><ele>703.0</ele><time>2026-04-25T10:08:27.938Z</time></trkpt><trkpt lat="44.2763901" lon="10.9576357"><ele>703.5</ele><time>2026-04-25T10:08:28.939Z</time></trkpt><trkpt lat="44.2764471" lon="10.9576755"><ele>704.0</ele><time>2026-04-25T10:08:29.939Z</time></trkpt><trkpt lat="44.2764801" lon="10.9577696"><ele>704.5</ele><time>2026-04-25T10:08:30.939Z</time></trkpt><trkpt lat="44.2765189" lon="10.9579005"><ele>705.0</ele><time>2026-04-25T10:08:31.937Z</time></trkpt><trkpt lat="44.2765604" lon="10.9580338"><ele>705.5</ele><time>2026-04-25T10:08:32.938Z</time></trkpt><trkpt lat="44.2766066" lon="10.9581642"><ele>706.0</ele><time>2026-04-25T10:08:33.938Z</time></trkpt><trkpt lat="44.2766198" lon="10.9582582"><ele>706.0</ele><time>2026-04-25T10:08:34.939Z</time></trkpt><trkpt lat="44.2766507" lon="10.9583585"><ele>706.0</ele><time>2026-04-25T10:08:35.939Z</time></trkpt><trkpt lat="44.2766787" lon="10.9584414"><ele>706.0</ele><time>2026-04-25T10:08:44.938Z</time></trkpt><trkpt lat="44.2767384" lon="10.9585234"><ele>706.0</ele><time>2026-04-25T10:08:48.938Z</time></trkpt><trkpt lat="44.2768145" lon="10.9585578"><ele>706.0</ele><time>2026-04-25T10:08:50.938Z</time></trkpt><trkpt lat="44.2768702" lon="10.9586026"><ele>706.0</ele><time>2026-04-25T10:08:52.939Z</time></trkpt><trkpt lat="44.2769639" lon="10.9585785"><ele>706.0</ele><time>2026-04-25T10:08:55.939Z</time></trkpt><trkpt lat="44.2770217" lon="10.9584568"><ele>706.0</ele><time>2026-04-25T10:08:57.939Z</time></trkpt><trkpt lat="44.2770601" lon="10.9583433"><ele>706.0</ele><time>2026-04-25T10:08:59.938Z</time></trkpt><trkpt lat="44.2771278" lon="10.9583822"><ele>706.0</ele><time>2026-04-25T10:09:07.938Z</time></trkpt><trkpt lat="44.2771705" lon="10.958482"><ele>706.0</ele><time>2026-04-25T10:09:10.937Z</time></trkpt><trkpt lat="44.2772344" lon="10.958539"><ele>706.0</ele><time>2026-04-25T10:09:13.939Z</time></trkpt><trkpt lat="44.2773139" lon="10.9585946"><ele>703.0</ele><time>2026-04-25T10:09:16.937Z</time></trkpt><trkpt lat="44.2773799" lon="10.9586593"><ele>700.0</ele><time>2026-04-25T10:09:19.938Z</time></trkpt><trkpt lat="44.2774325" lon="10.9587178"><ele>697.0</ele><time>2026-04-25T10:09:21.939Z</time></trkpt><trkpt lat="44.2774649" lon="10.9588299"><ele>694.0</ele><time>2026-04-25T10:09:23.939Z</time></trkpt><trkpt lat="44.2774925" lon="10.95892"><ele>691.0</ele><time>2026-04-25T10:09:25.938Z</time></trkpt><trkpt lat="44.2775329" lon="10.9589954"><ele>688.0</ele><time>2026-04-25T10:09:28.939Z</time></trkpt><trkpt lat="44.2775532" lon="10.9590882"><ele>685.0</ele><time>2026-04-25T10:09:35.938Z</time></trkpt><trkpt lat="44.277492" lon="10.9590573"><ele>685.0</ele><time>2026-04-25T10:09:59.938Z</time></trkpt><trkpt lat="44.2775057" lon="10.9591679"><ele>685.0</ele><time>2026-04-25T10:10:10.939Z</time></trkpt><trkpt lat="44.2775413" lon="10.9592406"><ele>685.0</ele><time>2026-04-25T10:10:13.939Z</time></trkpt><trkpt lat="44.2775885" lon="10.9593285"><ele>685.0</ele><time>2026-04-25T10:10:16.939Z</time></trkpt><trkpt lat="44.2775949" lon="10.9594323"><ele>685.0</ele><time>2026-04-25T10:10:19.938Z</time></trkpt><trkpt lat="44.2776244" lon="10.9595666"><ele>685.0</ele><time>2026-04-25T10:10:21.938Z</time></trkpt><trkpt lat="44.2776258" lon="10.9596955"><ele>680.0</ele><time>2026-04-25T10:10:24.938Z</time></trkpt><trkpt lat="44.2776507" lon="10.9597879"><ele>675.0</ele><time>2026-04-25T10:10:26.939Z</time></trkpt><trkpt lat="44.2776916" lon="10.9598692"><ele>670.0</ele><time>2026-04-25T10:10:29.939Z</time></trkpt><trkpt lat="44.2777729" lon="10.9598944"><ele>665.0</ele><time>2026-04-25T10:10:32.939Z</time></trkpt><trkpt lat="44.2778588" lon="10.9598966"><ele>660.0</ele><time>2026-04-25T10:10:34.939Z</time></trkpt><trkpt lat="44.2779447" lon="10.9598734"><ele>655.0</ele><time>2026-04-25T10:10:36.938Z</time></trkpt><trkpt lat="44.2780603" lon="10.9598563"><ele>655.4</ele><time>2026-04-25T10:10:38.939Z</time></trkpt><trkpt lat="44.2781442" lon="10.95987"><ele>655.8</ele><time>2026-04-25T10:10:40.938Z</time></trkpt><trkpt lat="44.278241" lon="10.9598799"><ele>656.2</ele><time>2026-04-25T10:10:42.939Z</time></trkpt><trkpt lat="44.2783332" lon="10.9598897"><ele>656.6</ele><time>2026-04-25T10:10:44.938Z</time></trkpt><trkpt lat="44.2784536" lon="10.9599367"><ele>657.0</ele><time>2026-04-25T10:10:46.938Z</time></trkpt><trkpt lat="44.2785532" lon="10.9599637"><ele>657.0</ele><time>2026-04-25T10:10:48.938Z</time></trkpt><trkpt lat="44.2786102" lon="10.9600053"><ele>657.0</ele><time>2026-04-25T10:10:49.939Z</time></trkpt><trkpt lat="44.2786792" lon="10.9600334"><ele>657.0</ele><time>2026-04-25T10:10:51.939Z</time></trkpt><trkpt lat="44.2787503" lon="10.9600352"><ele>657.0</ele><time>2026-04-25T10:10:53.939Z</time></trkpt><trkpt lat="44.2788181" lon="10.9600348"><ele>657.0</ele><time>2026-04-25T10:10:56.939Z</time></trkpt><trkpt lat="44.2788872" lon="10.9599796"><ele>657.0</ele><time>2026-04-25T10:11:00.938Z</time></trkpt><trkpt lat="44.2789391" lon="10.959927"><ele>657.0</ele><time>2026-04-25T10:11:04.938Z</time></trkpt><trkpt lat="44.2789815" lon="10.9598333"><ele>655.3333333333334</ele><time>2026-04-25T10:11:07.939Z</time></trkpt><trkpt lat="44.2790558" lon="10.9597555"><ele>653.6666666666666</ele><time>2026-04-25T10:11:09.939Z</time></trkpt><trkpt lat="44.2791266" lon="10.9597158"><ele>652.0</ele><time>2026-04-25T10:11:11.939Z</time></trkpt><trkpt lat="44.2792024" lon="10.9597262"><ele>650.3333333333333</ele><time>2026-04-25T10:11:13.938Z</time></trkpt><trkpt lat="44.2792717" lon="10.9597585"><ele>648.6666666666666</ele><time>2026-04-25T10:11:14.939Z</time></trkpt><trkpt lat="44.2793835" lon="10.9597452"><ele>647.0</ele><time>2026-04-25T10:11:16.938Z</time></trkpt><trkpt lat="44.2795027" lon="10.959771"><ele>647.0</ele><time>2026-04-25T10:11:18.939Z</time></trkpt><trkpt lat="44.2796021" lon="10.9597954"><ele>647.0</ele><time>2026-04-25T10:11:20.937Z</time></trkpt><trkpt lat="44.2796615" lon="10.959762"><ele>647.0</ele><time>2026-04-25T10:11:21.939Z</time></trkpt><trkpt lat="44.2797786" lon="10.9597267"><ele>647.0</ele><time>2026-04-25T10:11:23.937Z</time></trkpt><trkpt lat="44.2798421" lon="10.9597083"><ele>647.0</ele><time>2026-04-25T10:11:24.939Z</time></trkpt><trkpt lat="44.2799683" lon="10.9597464"><ele>642.2</ele><time>2026-04-25T10:11:26.939Z</time></trkpt><trkpt lat="44.2800976" lon="10.9597386"><ele>637.4000000000001</ele><time>2026-04-25T10:11:28.939Z</time></trkpt><trkpt lat="44.2801722" lon="10.9597229"><ele>632.5999999999999</ele><time>2026-04-25T10:11:29.938Z</time></trkpt><trkpt lat="44.2802816" lon="10.9596892"><ele>627.8</ele><time>2026-04-25T10:11:31.939Z</time></trkpt><trkpt lat="44.2803545" lon="10.9596988"><ele>623.0</ele><time>2026-04-25T10:11:32.937Z</time></trkpt><trkpt lat="44.2804178" lon="10.9596969"><ele>623.0</ele><time>2026-04-25T10:11:33.938Z</time></trkpt><trkpt lat="44.2805132" lon="10.959745"><ele>623.0</ele><time>2026-04-25T10:11:35.937Z</time></trkpt><trkpt lat="44.2806203" lon="10.9597765"><ele>623.0</ele><time>2026-04-25T10:11:37.939Z</time></trkpt><trkpt lat="44.2806983" lon="10.9598266"><ele>623.0</ele><time>2026-04-25T10:11:39.939Z</time></trkpt><trkpt lat="44.2807785" lon="10.9598693"><ele>623.0</ele><time>2026-04-25T10:11:41.938Z</time></trkpt><trkpt lat="44.2808967" lon="10.9598586"><ele>621.5</ele><time>2026-04-25T10:11:43.939Z</time></trkpt><trkpt lat="44.2811086" lon="10.9598961"><ele>620.0</ele><time>2026-04-25T10:11:51.938Z</time></trkpt><trkpt lat="44.2811724" lon="10.9598946"><ele>618.5</ele><time>2026-04-25T10:12:39.938Z</time></trkpt><trkpt lat="44.2812806" lon="10.9598736"><ele>617.0</ele><time>2026-04-25T10:12:42.938Z</time></trkpt><trkpt lat="44.2813604" lon="10.9598627"><ele>617.0</ele><time>2026-04-25T10:12:44.938Z</time></trkpt><trkpt lat="44.2814309" lon="10.9598695"><ele>617.0</ele><time>2026-04-25T10:12:47.939Z</time></trkpt><trkpt lat="44.2814978" lon="10.9598621"><ele>617.0</ele><time>2026-04-25T10:12:50.939Z</time></trkpt><trkpt lat="44.2815819" lon="10.9598367"><ele>617.0</ele><time>2026-04-25T10:12:52.938Z</time></trkpt><trkpt lat="44.2816682" lon="10.9598078"><ele>617.0</ele><time>2026-04-25T10:12:54.938Z</time></trkpt><trkpt lat="44.281732" lon="10.9597871"><ele>617.0</ele><time>2026-04-25T10:12:56.937Z</time></trkpt><trkpt lat="44.2817996" lon="10.9597549"><ele>617.0</ele><time>2026-04-25T10:12:58.938Z</time></trkpt><trkpt lat="44.2818644" lon="10.9597091"><ele>615.4</ele><time>2026-04-25T10:13:00.938Z</time></trkpt><trkpt lat="44.2819591" lon="10.959653"><ele>613.8000000000001</ele><time>2026-04-25T10:13:02.938Z</time></trkpt><trkpt lat="44.2820592" lon="10.9596427"><ele>612.2</ele><time>2026-04-25T10:13:04.939Z</time></trkpt><trkpt lat="44.2821893" lon="10.9596066"><ele>610.6</ele><time>2026-04-25T10:13:06.938Z</time></trkpt><trkpt lat="44.2822662" lon="10.9595933"><ele>609.0</ele><time>2026-04-25T10:13:07.939Z</time></trkpt><trkpt lat="44.2823318" lon="10.9595646"><ele>607.8</ele><time>2026-04-25T10:13:08.939Z</time></trkpt><trkpt lat="44.2824072" lon="10.9594956"><ele>606.5999999999999</ele><time>2026-04-25T10:13:09.939Z</time></trkpt><trkpt lat="44.2825178" lon="10.9594108"><ele>605.4</ele><time>2026-04-25T10:13:11.938Z</time></trkpt><trkpt lat="44.2825952" lon="10.959338"><ele>604.1999999999999</ele><time>2026-04-25T10:13:12.939Z</time></trkpt><trkpt lat="44.2826697" lon="10.9592888"><ele>603.0</ele><time>2026-04-25T10:13:13.939Z</time></trkpt><trkpt lat="44.282737" lon="10.9592247"><ele>605.1999999999999</ele><time>2026-04-25T10:13:14.938Z</time></trkpt><trkpt lat="44.2828086" lon="10.9591094"><ele>607.4</ele><time>2026-04-25T10:13:16.938Z</time></trkpt><trkpt lat="44.2828687" lon="10.9590721"><ele>609.5999999999999</ele><time>2026-04-25T10:13:17.938Z</time></trkpt><trkpt lat="44.2829682" lon="10.9589685"><ele>611.8</ele><time>2026-04-25T10:13:19.939Z</time></trkpt><trkpt lat="44.2830783" lon="10.9589454"><ele>614.0</ele><time>2026-04-25T10:13:21.939Z</time></trkpt><trkpt lat="44.2831824" lon="10.9589327"><ele>614.0</ele><time>2026-04-25T10:13:23.939Z</time></trkpt><trkpt lat="44.283242" lon="10.959029"><ele>614.0</ele><time>2026-04-25T10:13:24.939Z</time></trkpt><trkpt lat="44.2833457" lon="10.9590883"><ele>614.0</ele><time>2026-04-25T10:13:26.938Z</time></trkpt><trkpt lat="44.2834065" lon="10.9590368"><ele>614.0</ele><time>2026-04-25T10:13:29.939Z</time></trkpt><trkpt lat="44.2834322" lon="10.9589426"><ele>614.0</ele><time>2026-04-25T10:13:31.938Z</time></trkpt><trkpt lat="44.2834552" lon="10.9588595"><ele>614.0</ele><time>2026-04-25T10:13:32.939Z</time></trkpt><trkpt lat="44.2835166" lon="10.9587286"><ele>614.0</ele><time>2026-04-25T10:13:33.937Z</time></trkpt><trkpt lat="44.2835375" lon="10.9586102"><ele>614.0</ele><time>2026-04-25T10:13:34.939Z</time></trkpt><trkpt lat="44.2835832" lon="10.9584645"><ele>614.0</ele><time>2026-04-25T10:13:35.938Z</time></trkpt><trkpt lat="44.2836313" lon="10.9583402"><ele>614.0</ele><time>2026-04-25T10:13:36.939Z</time></trkpt><trkpt lat="44.2836729" lon="10.9582461"><ele>614.0</ele><time>2026-04-25T10:13:37.938Z</time></trkpt><trkpt lat="44.2837417" lon="10.9581716"><ele>614.1666666666666</ele><time>2026-04-25T10:13:39.939Z</time></trkpt><trkpt lat="44.2838181" lon="10.9581309"><ele>614.3333333333333</ele><time>2026-04-25T10:13:40.939Z</time></trkpt><trkpt lat="44.2838976" lon="10.9580884"><ele>614.5</ele><time>2026-04-25T10:13:41.939Z</time></trkpt><trkpt lat="44.2839566" lon="10.9580386"><ele>614.6666666666666</ele><time>2026-04-25T10:13:42.939Z</time></trkpt><trkpt lat="44.284034" lon="10.958007"><ele>614.8333333333334</ele><time>2026-04-25T10:13:43.939Z</time></trkpt><trkpt lat="44.284077" lon="10.9579195"><ele>615.0</ele><time>2026-04-25T10:13:44.939Z</time></trkpt><trkpt lat="44.2841306" lon="10.9578505"><ele>615.0</ele><time>2026-04-25T10:13:45.939Z</time></trkpt><trkpt lat="44.2841899" lon="10.9577642"><ele>615.0</ele><time>2026-04-25T10:13:46.939Z</time></trkpt><trkpt lat="44.2842372" lon="10.9576594"><ele>615.0</ele><time>2026-04-25T10:13:47.937Z</time></trkpt><trkpt lat="44.2843106" lon="10.9575344"><ele>615.0</ele><time>2026-04-25T10:13:48.937Z</time></trkpt><trkpt lat="44.2843743" lon="10.9574068"><ele>615.0</ele><time>2026-04-25T10:13:49.938Z</time></trkpt><trkpt lat="44.2844332" lon="10.957326"><ele>615.8333333333334</ele><time>2026-04-25T10:13:50.938Z</time></trkpt><trkpt lat="44.2845102" lon="10.9572726"><ele>616.6666666666666</ele><time>2026-04-25T10:13:51.939Z</time></trkpt><trkpt lat="44.2845805" lon="10.9571821"><ele>617.5</ele><time>2026-04-25T10:13:52.939Z</time></trkpt><trkpt lat="44.284689" lon="10.9571212"><ele>618.3333333333333</ele><time>2026-04-25T10:13:54.938Z</time></trkpt><trkpt lat="44.2847295" lon="10.9570257"><ele>619.1666666666666</ele><time>2026-04-25T10:13:55.938Z</time></trkpt><trkpt lat="44.2847821" lon="10.9569586"><ele>620.0</ele><time>2026-04-25T10:13:56.938Z</time></trkpt><trkpt lat="44.2848123" lon="10.9568706"><ele>620.0</ele><time>2026-04-25T10:13:58.939Z</time></trkpt><trkpt lat="44.2848372" lon="10.95677"><ele>620.0</ele><time>2026-04-25T10:14:13.938Z</time></trkpt><trkpt lat="44.2848556" lon="10.9566567"><ele>620.0</ele><time>2026-04-25T10:14:16.938Z</time></trkpt><trkpt lat="44.284882" lon="10.9565665"><ele>620.0</ele><time>2026-04-25T10:14:18.939Z</time></trkpt><trkpt lat="44.2849051" lon="10.9564706"><ele>620.0</ele><time>2026-04-25T10:14:20.939Z</time></trkpt><trkpt lat="44.2849093" lon="10.956295"><ele>620.0</ele><time>2026-04-25T10:14:22.939Z</time></trkpt><trkpt lat="44.2849506" lon="10.9561261"><ele>622.0</ele><time>2026-04-25T10:14:24.937Z</time></trkpt><trkpt lat="44.2850077" lon="10.9559833"><ele>624.0</ele><time>2026-04-25T10:14:26.938Z</time></trkpt><trkpt lat="44.2851487" lon="10.955904"><ele>626.0</ele><time>2026-04-25T10:14:28.939Z</time></trkpt><trkpt lat="44.2852241" lon="10.9558681"><ele>628.0</ele><time>2026-04-25T10:14:29.939Z</time></trkpt><trkpt lat="44.2852978" lon="10.9558294"><ele>630.0</ele><time>2026-04-25T10:14:30.938Z</time></trkpt><trkpt lat="44.2853625" lon="10.9557912"><ele>631.0</ele><time>2026-04-25T10:14:31.938Z</time></trkpt><trkpt lat="44.2854156" lon="10.9557384"><ele>632.0</ele><time>2026-04-25T10:14:32.939Z</time></trkpt><trkpt lat="44.2855016" lon="10.9555931"><ele>633.0</ele><time>2026-04-25T10:14:34.939Z</time></trkpt><trkpt lat="44.2855168" lon="10.9554772"><ele>634.0</ele><time>2026-04-25T10:14:35.938Z</time></trkpt><trkpt lat="44.2855308" lon="10.955359"><ele>635.0</ele><time>2026-04-25T10:14:36.939Z</time></trkpt><trkpt lat="44.2855776" lon="10.9552598"><ele>632.6</ele><time>2026-04-25T10:14:37.938Z</time></trkpt><trkpt lat="44.2856235" lon="10.9551738"><ele>630.2</ele><time>2026-04-25T10:14:38.938Z</time></trkpt><trkpt lat="44.2856895" lon="10.95511"><ele>627.8</ele><time>2026-04-25T10:14:39.938Z</time></trkpt><trkpt lat="44.2857548" lon="10.9550445"><ele>625.4</ele><time>2026-04-25T10:14:40.938Z</time></trkpt><trkpt lat="44.2858802" lon="10.9550242"><ele>623.0</ele><time>2026-04-25T10:14:41.939Z</time></trkpt><trkpt lat="44.2859715" lon="10.9549814"><ele>623.0</ele><time>2026-04-25T10:14:42.939Z</time></trkpt><trkpt lat="44.286046" lon="10.9549032"><ele>623.0</ele><time>2026-04-25T10:14:43.939Z</time></trkpt><trkpt lat="44.2861066" lon="10.9548133"><ele>623.0</ele><time>2026-04-25T10:14:44.939Z</time></trkpt><trkpt lat="44.2861635" lon="10.9547269"><ele>623.0</ele><time>2026-04-25T10:14:45.939Z</time></trkpt><trkpt lat="44.2862683" lon="10.9546735"><ele>623.0</ele><time>2026-04-25T10:14:47.939Z</time></trkpt><trkpt lat="44.2863337" lon="10.9547029"><ele>623.0</ele><time>2026-04-25T10:14:48.939Z</time></trkpt><trkpt lat="44.2864591" lon="10.9546524"><ele>620.6</ele><time>2026-04-25T10:14:50.938Z</time></trkpt><trkpt lat="44.2865374" lon="10.9546183"><ele>618.1999999999999</ele><time>2026-04-25T10:14:51.939Z</time></trkpt><trkpt lat="44.2866487" lon="10.9545578"><ele>615.8</ele><time>2026-04-25T10:14:53.939Z</time></trkpt><trkpt lat="44.2867816" lon="10.9544809"><ele>613.4</ele><time>2026-04-25T10:14:55.938Z</time></trkpt><trkpt lat="44.2868668" lon="10.9544271"><ele>611.0</ele><time>2026-04-25T10:14:56.939Z</time></trkpt><trkpt lat="44.2869702" lon="10.9543694"><ele>611.0</ele><time>2026-04-25T10:14:57.939Z</time></trkpt><trkpt lat="44.2870729" lon="10.9543338"><ele>611.0</ele><time>2026-04-25T10:14:58.939Z</time></trkpt><trkpt lat="44.287173" lon="10.954331"><ele>611.0</ele><time>2026-04-25T10:14:59.939Z</time></trkpt><trkpt lat="44.2872706" lon="10.954356"><ele>611.0</ele><time>2026-04-25T10:15:00.939Z</time></trkpt><trkpt lat="44.2873679" lon="10.9544058"><ele>611.0</ele><time>2026-04-25T10:15:01.938Z</time></trkpt><trkpt lat="44.2874514" lon="10.9544564"><ele>610.3333333333333</ele><time>2026-04-25T10:15:02.938Z</time></trkpt><trkpt lat="44.2875275" lon="10.9545209"><ele>609.6666666666666</ele><time>2026-04-25T10:15:03.938Z</time></trkpt><trkpt lat="44.2876046" lon="10.9545776"><ele>609.0</ele><time>2026-04-25T10:15:04.939Z</time></trkpt><trkpt lat="44.2876732" lon="10.9546158"><ele>608.3333333333334</ele><time>2026-04-25T10:15:05.938Z</time></trkpt><trkpt lat="44.2877528" lon="10.9546423"><ele>607.6666666666667</ele><time>2026-04-25T10:15:06.939Z</time></trkpt><trkpt lat="44.287838" lon="10.9546418"><ele>607.0</ele><time>2026-04-25T10:15:07.938Z</time></trkpt><trkpt lat="44.2879136" lon="10.9546308"><ele>607.0</ele><time>2026-04-25T10:15:08.938Z</time></trkpt><trkpt lat="44.2879848" lon="10.9546188"><ele>607.0</ele><time>2026-04-25T10:15:09.939Z</time></trkpt><trkpt lat="44.2880706" lon="10.9546179"><ele>607.0</ele><time>2026-04-25T10:15:10.939Z</time></trkpt><trkpt lat="44.2881659" lon="10.9546173"><ele>607.0</ele><time>2026-04-25T10:15:11.938Z</time></trkpt><trkpt lat="44.2882695" lon="10.9545954"><ele>607.0</ele><time>2026-04-25T10:15:12.939Z</time></trkpt><trkpt lat="44.2883778" lon="10.9545624"><ele>608.5</ele><time>2026-04-25T10:15:13.939Z</time></trkpt><trkpt lat="44.2884695" lon="10.9545291"><ele>610.0</ele><time>2026-04-25T10:15:14.939Z</time></trkpt><trkpt lat="44.2885475" lon="10.9544884"><ele>611.5</ele><time>2026-04-25T10:15:15.939Z</time></trkpt><trkpt lat="44.2886093" lon="10.95443"><ele>613.0</ele><time>2026-04-25T10:15:16.938Z</time></trkpt><trkpt lat="44.2886547" lon="10.9543523"><ele>614.5</ele><time>2026-04-25T10:15:17.939Z</time></trkpt><trkpt lat="44.2886736" lon="10.9542566"><ele>616.0</ele><time>2026-04-25T10:15:18.938Z</time></trkpt><trkpt lat="44.2886714" lon="10.9541453"><ele>618.3333333333334</ele><time>2026-04-25T10:15:19.938Z</time></trkpt><trkpt lat="44.2886483" lon="10.9540204"><ele>620.6666666666667</ele><time>2026-04-25T10:15:20.939Z</time></trkpt><trkpt lat="44.2886136" lon="10.9538924"><ele>623.0</ele><time>2026-04-25T10:15:21.938Z</time></trkpt><trkpt lat="44.2885841" lon="10.9537765"><ele>625.3333333333334</ele><time>2026-04-25T10:15:22.938Z</time></trkpt><trkpt lat="44.2885737" lon="10.9536696"><ele>627.6666666666666</ele><time>2026-04-25T10:15:23.939Z</time></trkpt><trkpt lat="44.2885775" lon="10.9535517"><ele>630.0</ele><time>2026-04-25T10:15:24.939Z</time></trkpt><trkpt lat="44.2886159" lon="10.9534129"><ele>629.25</ele><time>2026-04-25T10:15:25.938Z</time></trkpt><trkpt lat="44.288679" lon="10.9532759"><ele>628.5</ele><time>2026-04-25T10:15:26.939Z</time></trkpt><trkpt lat="44.2887662" lon="10.9531444"><ele>627.75</ele><time>2026-04-25T10:15:27.939Z</time></trkpt><trkpt lat="44.2888845" lon="10.9530069"><ele>627.0</ele><time>2026-04-25T10:15:28.939Z</time></trkpt><trkpt lat="44.2889801" lon="10.9528977"><ele>627.0</ele><time>2026-04-25T10:15:29.938Z</time></trkpt><trkpt lat="44.2890617" lon="10.9527743"><ele>627.0</ele><time>2026-04-25T10:15:30.938Z</time></trkpt><trkpt lat="44.2891319" lon="10.9526667"><ele>627.0</ele><time>2026-04-25T10:15:31.938Z</time></trkpt><trkpt lat="44.2891913" lon="10.9525643"><ele>627.0</ele><time>2026-04-25T10:15:32.939Z</time></trkpt><trkpt lat="44.2892292" lon="10.9524556"><ele>627.0</ele><time>2026-04-25T10:15:33.938Z</time></trkpt><trkpt lat="44.2892394" lon="10.9523368"><ele>628.3333333333334</ele><time>2026-04-25T10:15:34.939Z</time></trkpt><trkpt lat="44.2892297" lon="10.9522129"><ele>629.6666666666666</ele><time>2026-04-25T10:15:35.939Z</time></trkpt><trkpt lat="44.289207" lon="10.9520916"><ele>631.0</ele><time>2026-04-25T10:15:36.938Z</time></trkpt><trkpt lat="44.2891879" lon="10.9519615"><ele>632.3333333333333</ele><time>2026-04-25T10:15:37.939Z</time></trkpt><trkpt lat="44.2891789" lon="10.9518356"><ele>633.6666666666666</ele><time>2026-04-25T10:15:38.939Z</time></trkpt><trkpt lat="44.2891794" lon="10.9517265"><ele>635.0</ele><time>2026-04-25T10:15:39.939Z</time></trkpt><trkpt lat="44.2891908" lon="10.9516383"><ele>636.1666666666666</ele><time>2026-04-25T10:15:40.939Z</time></trkpt><trkpt lat="44.2892105" lon="10.9515019"><ele>637.3333333333333</ele><time>2026-04-25T10:15:42.938Z</time></trkpt><trkpt lat="44.2892186" lon="10.9513795"><ele>638.5</ele><time>2026-04-25T10:15:45.939Z</time></trkpt><trkpt lat="44.289218" lon="10.9512691"><ele>639.6666666666666</ele><time>2026-04-25T10:15:47.939Z</time></trkpt><trkpt lat="44.2892313" lon="10.9511534"><ele>640.8333333333334</ele><time>2026-04-25T10:15:49.937Z</time></trkpt><trkpt lat="44.2892907" lon="10.9510487"><ele>642.0</ele><time>2026-04-25T10:15:51.938Z</time></trkpt><trkpt lat="44.2894161" lon="10.9509461"><ele>642.0</ele><time>2026-04-25T10:15:53.938Z</time></trkpt><trkpt lat="44.2894974" lon="10.95089"><ele>642.0</ele><time>2026-04-25T10:15:54.938Z</time></trkpt><trkpt lat="44.2895817" lon="10.9508337"><ele>642.0</ele><time>2026-04-25T10:15:55.937Z</time></trkpt><trkpt lat="44.2896737" lon="10.9507907"><ele>642.0</ele><time>2026-04-25T10:15:56.938Z</time></trkpt><trkpt lat="44.2897706" lon="10.9507634"><ele>642.0</ele><time>2026-04-25T10:15:57.937Z</time></trkpt><trkpt lat="44.2898708" lon="10.9507425"><ele>637.75</ele><time>2026-04-25T10:15:58.938Z</time></trkpt><trkpt lat="44.2899687" lon="10.9507083"><ele>633.5</ele><time>2026-04-25T10:15:59.938Z</time></trkpt><trkpt lat="44.2900599" lon="10.9506522"><ele>629.25</ele><time>2026-04-25T10:16:00.938Z</time></trkpt><trkpt lat="44.2901443" lon="10.9505628"><ele>625.0</ele><time>2026-04-25T10:16:01.937Z</time></trkpt><trkpt lat="44.2903013" lon="10.9503464"><ele>625.0</ele><time>2026-04-25T10:16:03.937Z</time></trkpt><trkpt lat="44.2903954" lon="10.9502488"><ele>625.0</ele><time>2026-04-25T10:16:04.938Z</time></trkpt><trkpt lat="44.2904971" lon="10.9501647"><ele>625.0</ele><time>2026-04-25T10:16:05.937Z</time></trkpt><trkpt lat="44.2905966" lon="10.950086"><ele>625.0</ele><time>2026-04-25T10:16:06.937Z</time></trkpt><trkpt lat="44.2906962" lon="10.9500144"><ele>622.4</ele><time>2026-04-25T10:16:07.938Z</time></trkpt><trkpt lat="44.2907952" lon="10.9499687"><ele>619.8</ele><time>2026-04-25T10:16:08.938Z</time></trkpt><trkpt lat="44.2909087" lon="10.9499372"><ele>617.2</ele><time>2026-04-25T10:16:09.937Z</time></trkpt><trkpt lat="44.2910115" lon="10.949918"><ele>614.6</ele><time>2026-04-25T10:16:10.937Z</time></trkpt><trkpt lat="44.2911049" lon="10.9499029"><ele>612.0</ele><time>2026-04-25T10:16:11.938Z</time></trkpt><trkpt lat="44.291182" lon="10.9498828"><ele>612.0</ele><time>2026-04-25T10:16:12.938Z</time></trkpt><trkpt lat="44.2912461" lon="10.9498556"><ele>612.0</ele><time>2026-04-25T10:16:13.937Z</time></trkpt><trkpt lat="44.2913593" lon="10.9497995"><ele>612.0</ele><time>2026-04-25T10:16:15.937Z</time></trkpt><trkpt lat="44.2914757" lon="10.9497374"><ele>612.0</ele><time>2026-04-25T10:16:17.936Z</time></trkpt><trkpt lat="44.2915909" lon="10.9496938"><ele>612.0</ele><time>2026-04-25T10:16:19.938Z</time></trkpt><trkpt lat="44.2916979" lon="10.9496623"><ele>610.6</ele><time>2026-04-25T10:16:21.938Z</time></trkpt><trkpt lat="44.2918132" lon="10.9496506"><ele>609.2</ele><time>2026-04-25T10:16:23.937Z</time></trkpt><trkpt lat="44.2919401" lon="10.9496806"><ele>607.8</ele><time>2026-04-25T10:16:25.938Z</time></trkpt><trkpt lat="44.2920094" lon="10.949695"><ele>606.4</ele><time>2026-04-25T10:16:26.937Z</time></trkpt><trkpt lat="44.2920828" lon="10.9497064"><ele>605.0</ele><time>2026-04-25T10:16:27.938Z</time></trkpt><trkpt lat="44.2921614" lon="10.949716"><ele>605.0</ele><time>2026-04-25T10:16:28.938Z</time></trkpt><trkpt lat="44.2922494" lon="10.9497261"><ele>605.0</ele><time>2026-04-25T10:16:29.938Z</time></trkpt><trkpt lat="44.2923509" lon="10.9497294"><ele>605.0</ele><time>2026-04-25T10:16:30.937Z</time></trkpt><trkpt lat="44.292455" lon="10.9497368"><ele>605.0</ele><time>2026-04-25T10:16:31.938Z</time></trkpt><trkpt lat="44.2925567" lon="10.9497325"><ele>605.0</ele><time>2026-04-25T10:16:32.937Z</time></trkpt><trkpt lat="44.2926526" lon="10.9497314"><ele>602.6</ele><time>2026-04-25T10:16:33.937Z</time></trkpt><trkpt lat="44.2927461" lon="10.9497382"><ele>600.2</ele><time>2026-04-25T10:16:34.938Z</time></trkpt><trkpt lat="44.2928364" lon="10.9497559"><ele>597.8</ele><time>2026-04-25T10:16:35.937Z</time></trkpt><trkpt lat="44.2929213" lon="10.9497733"><ele>595.4</ele><time>2026-04-25T10:16:36.938Z</time></trkpt><trkpt lat="44.2930062" lon="10.9498033"><ele>593.0</ele><time>2026-04-25T10:16:37.937Z</time></trkpt><trkpt lat="44.2930915" lon="10.9498684"><ele>590.8</ele><time>2026-04-25T10:16:38.937Z</time></trkpt><trkpt lat="44.2931732" lon="10.9499702"><ele>588.5999999999999</ele><time>2026-04-25T10:16:39.938Z</time></trkpt><trkpt lat="44.2932474" lon="10.9500747"><ele>586.4000000000001</ele><time>2026-04-25T10:16:40.937Z</time></trkpt><trkpt lat="44.2933208" lon="10.9501696"><ele>584.2</ele><time>2026-04-25T10:16:41.938Z</time></trkpt><trkpt lat="44.2933942" lon="10.9502514"><ele>582.0</ele><time>2026-04-25T10:16:42.938Z</time></trkpt><trkpt lat="44.2934728" lon="10.9503165"><ele>580.8333333333334</ele><time>2026-04-25T10:16:43.937Z</time></trkpt><trkpt lat="44.2935546" lon="10.9503546"><ele>579.6666666666666</ele><time>2026-04-25T10:16:44.938Z</time></trkpt><trkpt lat="44.2936344" lon="10.9503661"><ele>578.5</ele><time>2026-04-25T10:16:45.938Z</time></trkpt><trkpt lat="44.2937155" lon="10.9503527"><ele>577.3333333333333</ele><time>2026-04-25T10:16:46.938Z</time></trkpt><trkpt lat="44.2938" lon="10.950318"><ele>576.1666666666666</ele><time>2026-04-25T10:16:47.938Z</time></trkpt><trkpt lat="44.2938917" lon="10.9502768"><ele>575.0</ele><time>2026-04-25T10:16:48.938Z</time></trkpt><trkpt lat="44.2939851" lon="10.950222"><ele>574.6666666666666</ele><time>2026-04-25T10:16:49.938Z</time></trkpt><trkpt lat="44.2940735" lon="10.9501588"><ele>574.3333333333333</ele><time>2026-04-25T10:16:50.937Z</time></trkpt><trkpt lat="44.294159" lon="10.9501028"><ele>574.0</ele><time>2026-04-25T10:16:51.938Z</time></trkpt><trkpt lat="44.2942392" lon="10.9500545"><ele>573.6666666666666</ele><time>2026-04-25T10:16:52.937Z</time></trkpt><trkpt lat="44.2943107" lon="10.9500201"><ele>573.3333333333334</ele><time>2026-04-25T10:16:53.938Z</time></trkpt><trkpt lat="44.2943857" lon="10.9500043"><ele>573.0</ele><time>2026-04-25T10:16:54.937Z</time></trkpt><trkpt lat="44.2944622" lon="10.9500298"><ele>573.0</ele><time>2026-04-25T10:16:55.936Z</time></trkpt><trkpt lat="44.2945413" lon="10.9500767"><ele>573.0</ele><time>2026-04-25T10:16:56.938Z</time></trkpt><trkpt lat="44.2946192" lon="10.9501321"><ele>573.0</ele><time>2026-04-25T10:16:57.936Z</time></trkpt><trkpt lat="44.2947045" lon="10.9501745"><ele>573.0</ele><time>2026-04-25T10:16:58.936Z</time></trkpt><trkpt lat="44.2947922" lon="10.9501987"><ele>573.0</ele><time>2026-04-25T10:16:59.936Z</time></trkpt><trkpt lat="44.2948774" lon="10.95022"><ele>573.0</ele><time>2026-04-25T10:17:00.936Z</time></trkpt><trkpt lat="44.2949533" lon="10.9502398"><ele>569.5</ele><time>2026-04-25T10:17:01.936Z</time></trkpt><trkpt lat="44.2950214" lon="10.9502563"><ele>566.0</ele><time>2026-04-25T10:17:02.937Z</time></trkpt><trkpt lat="44.2951345" lon="10.9502801"><ele>562.5</ele><time>2026-04-25T10:17:04.938Z</time></trkpt><trkpt lat="44.2953145" lon="10.950306"><ele>559.0</ele><time>2026-04-25T10:17:07.937Z</time></trkpt><trkpt lat="44.2954218" lon="10.9503071"><ele>559.0</ele><time>2026-04-25T10:17:09.938Z</time></trkpt><trkpt lat="44.295514" lon="10.9503052"><ele>559.0</ele><time>2026-04-25T10:17:11.937Z</time></trkpt><trkpt lat="44.2955966" lon="10.9503139"><ele>559.0</ele><time>2026-04-25T10:17:13.938Z</time></trkpt><trkpt lat="44.2956716" lon="10.950339"><ele>559.0</ele><time>2026-04-25T10:17:16.938Z</time></trkpt><trkpt lat="44.2957331" lon="10.9503671"><ele>559.0</ele><time>2026-04-25T10:17:20.938Z</time></trkpt><trkpt lat="44.2957948" lon="10.9504025"><ele>559.0</ele><time>2026-04-25T10:17:28.937Z</time></trkpt><trkpt lat="44.2958675" lon="10.950386"><ele>547.0</ele><time>2026-04-25T10:17:50.938Z</time></trkpt><trkpt lat="44.2959063" lon="10.9503044"><ele>547.0</ele><time>2026-04-25T10:18:01.937Z</time></trkpt><trkpt lat="44.2959035" lon="10.9501986"><ele>547.0</ele><time>2026-04-25T10:18:19.938Z</time></trkpt><trkpt lat="44.2958594" lon="10.9501223"><ele>547.0</ele><time>2026-04-25T10:18:21.938Z</time></trkpt><trkpt lat="44.2957887" lon="10.9500794"><ele>547.0</ele><time>2026-04-25T10:18:24.938Z</time></trkpt></trkseg></trk></gpx>